[[{"header":{"parameterUnit":"m.s-1","parameterCategory":1,"la1":30.6,"la2":29.2853,"lo1":-89.7004,"lo2":-87.6739,"dy":0.0162,"dx":0.0183,"nx":112,"ny":82,"refTime":"2026-03-27T00:00:00:Z","depth":0,"parameterNumber":2,"parameterNumberName":"U-component_of_WINDS"},"data":[0.0,0.0,0.0,0.0,0.0,0.0,0.0,0.0,0.0,0.0,0.0,0.0,0.0,0.0,0.0,0.0,0.0,0.0,0.0,0.0,0.0,0.0,0.0,0.0,0.0,0.0,0.0,0.0,0.0,0.0,0.0,0.0,0.0,0.0,0.0,0.0,0.0,0.0,0.0,0.0,0.0,0.0,0.0,0.0,0.0,0.0,0.0,0.0,0.0,0.0,0.0,0.0,0.0,0.0,0.0,0.0,0.0,0.0,0.0,0.0,0.0,0.0,0.0,0.0,0.0,0.0,0.0,0.0,0.0,0.0,0.0,0.0,0.0,0.0,0.0,0.0,0.0,0.0,0.0,0.0,0.0,0.0,0.0,0.0,0.0,0.0,0.0,0.0,0.0,0.0,-5.7584,-6.2046,-6.6559,-6.8568,-6.6843,-6.5301,-6.3025,-5.9588,0.0,0.0,0.0,0.0,0.0,0.0,0.0,0.0,0.0,0.0,0.0,0.0,0.0,0.0,0.0,0.0,0.0,0.0,0.0,0.0,0.0,0.0,0.0,0.0,0.0,0.0,0.0,0.0,0.0,0.0,0.0,0.0,0.0,0.0,0.0,0.0,0.0,0.0,0.0,0.0,0.0,0.0,0.0,0.0,0.0,0.0,0.0,0.0,0.0,0.0,0.0,0.0,0.0,0.0,0.0,0.0,0.0,0.0,0.0,0.0,0.0,0.0,0.0,0.0,0.0,0.0,0.0,0.0,0.0,0.0,0.0,0.0,0.0,0.0,0.0,0.0,0.0,0.0,0.0,0.0,0.0,0.0,0.0,0.0,0.0,0.0,0.0,0.0,0.0,0.0,0.0,0.0,0.0,0.0,0.0,0.0,0.0,0.0,0.0,0.0,0.0,0.0,0.0,0.0,-5.9688,-6.5923,-6.9183,-7.0,-6.7687,-6.6659,-6.4457,-6.0493,0.0,0.0,0.0,0.0,0.0,0.0,0.0,0.0,0.0,0.0,0.0,0.0,0.0,0.0,0.0,0.0,0.0,0.0,0.0,0.0,0.0,0.0,0.0,0.0,0.0,0.0,0.0,0.0,0.0,0.0,0.0,0.0,0.0,0.0,0.0,0.0,0.0,0.0,0.0,0.0,0.0,0.0,0.0,0.0,0.0,0.0,0.0,0.0,0.0,0.0,0.0,0.0,0.0,0.0,0.0,0.0,0.0,0.0,0.0,0.0,0.0,0.0,0.0,0.0,0.0,0.0,0.0,0.0,0.0,0.0,0.0,0.0,0.0,0.0,0.0,0.0,0.0,0.0,0.0,0.0,0.0,0.0,0.0,0.0,0.0,0.0,0.0,0.0,0.0,0.0,0.0,0.0,0.0,0.0,0.0,0.0,0.0,0.0,0.0,0.0,0.0,0.0,0.0,-5.974,-6.313,-6.6676,-6.9274,-6.9777,-6.7364,-6.6052,-6.3673,-5.97,-5.6131,0.0,0.0,0.0,0.0,0.0,0.0,0.0,0.0,0.0,0.0,0.0,0.0,0.0,0.0,0.0,0.0,0.0,0.0,0.0,0.0,0.0,0.0,0.0,0.0,0.0,0.0,0.0,0.0,0.0,0.0,0.0,0.0,0.0,0.0,0.0,0.0,0.0,0.0,0.0,0.0,0.0,0.0,0.0,0.0,0.0,0.0,0.0,0.0,0.0,0.0,0.0,0.0,0.0,0.0,0.0,0.0,0.0,0.0,0.0,0.0,0.0,0.0,0.0,0.0,0.0,0.0,0.0,0.0,0.0,0.0,0.0,0.0,0.0,0.0,0.0,0.0,0.0,0.0,0.0,0.0,0.0,0.0,0.0,0.0,0.0,0.0,0.0,0.0,0.0,0.0,0.0,0.0,0.0,0.0,0.0,0.0,0.0,0.0,0.0,0.0,0.0,0.0,-6.2348,-6.5597,-6.669,-6.8809,-6.9129,-6.653,-6.4757,-6.2137,-5.8285,-5.5051,0.0,0.0,0.0,0.0,0.0,0.0,0.0,0.0,0.0,0.0,0.0,0.0,0.0,0.0,0.0,0.0,0.0,0.0,0.0,0.0,0.0,0.0,0.0,0.0,0.0,0.0,0.0,0.0,0.0,0.0,0.0,0.0,0.0,0.0,0.0,0.0,0.0,0.0,0.0,0.0,0.0,0.0,0.0,0.0,0.0,0.0,0.0,0.0,0.0,0.0,0.0,0.0,0.0,0.0,0.0,0.0,0.0,0.0,0.0,0.0,0.0,0.0,0.0,0.0,0.0,0.0,0.0,0.0,0.0,0.0,0.0,0.0,0.0,0.0,0.0,0.0,0.0,0.0,0.0,0.0,0.0,0.0,0.0,0.0,0.0,0.0,0.0,0.0,0.0,0.0,0.0,0.0,0.0,0.0,0.0,0.0,0.0,0.0,0.0,0.0,0.0,0.0,-6.2335,-6.5432,-6.6915,-6.8646,-6.8501,-6.548,-6.3168,-6.0368,-5.6689,-5.3171,0.0,0.0,0.0,0.0,0.0,0.0,0.0,0.0,0.0,0.0,0.0,0.0,0.0,0.0,0.0,0.0,0.0,0.0,0.0,0.0,0.0,0.0,0.0,0.0,0.0,0.0,0.0,0.0,0.0,0.0,0.0,0.0,0.0,0.0,0.0,0.0,0.0,0.0,0.0,0.0,0.0,0.0,0.0,0.0,0.0,0.0,0.0,0.0,0.0,0.0,0.0,0.0,0.0,0.0,0.0,0.0,0.0,0.0,0.0,0.0,0.0,0.0,0.0,0.0,0.0,0.0,0.0,0.0,0.0,0.0,0.0,0.0,0.0,0.0,0.0,0.0,0.0,0.0,0.0,0.0,0.0,0.0,0.0,0.0,0.0,0.0,0.0,0.0,0.0,0.0,0.0,0.0,0.0,0.0,0.0,0.0,0.0,0.0,0.0,0.0,0.0,0.0,-6.1078,-6.4113,0.0,-6.6985,-6.66,-6.4006,-6.1724,-5.8866,-5.5221,0.0,0.0,0.0,0.0,0.0,0.0,0.0,0.0,0.0,0.0,0.0,0.0,0.0,0.0,0.0,0.0,0.0,0.0,0.0,0.0,0.0,0.0,0.0,0.0,0.0,0.0,0.0,0.0,0.0,0.0,0.0,0.0,0.0,0.0,0.0,0.0,0.0,0.0,0.0,0.0,0.0,0.0,0.0,0.0,0.0,0.0,0.0,0.0,0.0,0.0,0.0,0.0,0.0,0.0,0.0,0.0,0.0,0.0,0.0,0.0,0.0,0.0,0.0,0.0,0.0,0.0,0.0,0.0,0.0,0.0,0.0,0.0,0.0,0.0,0.0,0.0,0.0,0.0,0.0,0.0,0.0,0.0,0.0,0.0,0.0,0.0,0.0,0.0,0.0,0.0,0.0,0.0,0.0,0.0,0.0,0.0,0.0,0.0,0.0,0.0,0.0,0.0,-5.6158,-5.9907,-6.2802,0.0,-6.5262,-6.4813,-6.2292,-6.022,-5.7452,-5.3639,0.0,0.0,0.0,0.0,0.0,0.0,0.0,0.0,0.0,0.0,0.0,0.0,0.0,0.0,0.0,0.0,0.0,0.0,0.0,0.0,0.0,0.0,0.0,0.0,0.0,0.0,0.0,0.0,0.0,0.0,0.0,0.0,0.0,0.0,0.0,0.0,0.0,0.0,0.0,0.0,0.0,0.0,0.0,0.0,0.0,0.0,0.0,0.0,0.0,0.0,0.0,0.0,0.0,0.0,0.0,0.0,0.0,0.0,0.0,0.0,0.0,0.0,0.0,0.0,0.0,0.0,0.0,0.0,0.0,0.0,0.0,0.0,0.0,0.0,0.0,0.0,0.0,0.0,0.0,0.0,0.0,0.0,0.0,0.0,0.0,0.0,0.0,0.0,0.0,0.0,0.0,0.0,0.0,0.0,0.0,0.0,0.0,0.0,0.0,0.0,0.0,0.0,-5.5276,-5.8964,-6.1569,-6.2313,-6.37,-6.3362,-6.0351,-5.8727,-5.6128,0.0,0.0,0.0,0.0,0.0,0.0,0.0,0.0,0.0,0.0,0.0,0.0,0.0,0.0,0.0,0.0,0.0,0.0,0.0,0.0,0.0,0.0,0.0,0.0,0.0,0.0,0.0,0.0,0.0,0.0,0.0,0.0,0.0,0.0,0.0,0.0,0.0,0.0,0.0,0.0,0.0,0.0,0.0,0.0,0.0,0.0,0.0,0.0,0.0,0.0,0.0,0.0,0.0,0.0,0.0,0.0,0.0,0.0,0.0,0.0,0.0,0.0,0.0,0.0,0.0,0.0,0.0,0.0,0.0,0.0,0.0,0.0,0.0,0.0,0.0,0.0,0.0,0.0,0.0,0.0,0.0,0.0,0.0,0.0,0.0,0.0,0.0,0.0,0.0,0.0,0.0,0.0,0.0,0.0,0.0,0.0,0.0,0.0,0.0,0.0,0.0,0.0,0.0,-5.4465,-5.8152,-6.0757,-6.1535,-6.2009,-6.167,-6.0216,-5.8254,-5.5754,-5.2526,0.0,0.0,0.0,0.0,0.0,0.0,0.0,0.0,0.0,0.0,0.0,0.0,0.0,0.0,0.0,0.0,0.0,0.0,0.0,0.0,0.0,0.0,0.0,0.0,0.0,0.0,0.0,0.0,0.0,0.0,0.0,0.0,0.0,0.0,0.0,0.0,0.0,0.0,0.0,0.0,0.0,0.0,0.0,0.0,0.0,0.0,0.0,0.0,0.0,0.0,0.0,0.0,0.0,0.0,0.0,0.0,0.0,0.0,0.0,0.0,0.0,0.0,0.0,0.0,0.0,0.0,0.0,0.0,0.0,0.0,0.0,0.0,0.0,0.0,0.0,0.0,0.0,0.0,0.0,0.0,0.0,0.0,0.0,0.0,0.0,0.0,0.0,0.0,0.0,0.0,0.0,0.0,0.0,0.0,0.0,0.0,0.0,0.0,0.0,0.0,0.0,0.0,-5.3449,-5.7156,-5.9616,-6.0088,-6.0695,-6.0593,-5.9515,-5.8197,-5.5979,-5.2504,0.0,0.0,0.0,0.0,0.0,0.0,0.0,0.0,0.0,0.0,0.0,0.0,0.0,0.0,0.0,0.0,0.0,0.0,0.0,0.0,0.0,0.0,0.0,0.0,0.0,0.0,0.0,0.0,0.0,0.0,0.0,0.0,0.0,0.0,0.0,0.0,0.0,0.0,0.0,0.0,0.0,0.0,0.0,0.0,0.0,0.0,0.0,0.0,0.0,0.0,0.0,0.0,0.0,0.0,0.0,0.0,0.0,0.0,0.0,0.0,0.0,0.0,0.0,0.0,0.0,0.0,0.0,0.0,0.0,0.0,0.0,0.0,0.0,0.0,0.0,0.0,0.0,0.0,0.0,0.0,0.0,0.0,0.0,0.0,0.0,0.0,0.0,0.0,0.0,0.0,0.0,0.0,0.0,0.0,0.0,0.0,0.0,0.0,0.0,0.0,0.0,0.0,-5.2331,-5.594,-5.8212,-5.8279,-5.9482,-5.9683,-5.8313,-5.8179,-5.6308,-5.1998,0.0,0.0,0.0,0.0,0.0,0.0,0.0,0.0,0.0,0.0,0.0,0.0,0.0,0.0,0.0,0.0,0.0,0.0,0.0,0.0,0.0,0.0,0.0,0.0,0.0,0.0,0.0,0.0,0.0,0.0,0.0,0.0,0.0,0.0,0.0,0.0,0.0,0.0,0.0,0.0,0.0,0.0,0.0,0.0,0.0,0.0,0.0,0.0,0.0,0.0,0.0,0.0,0.0,0.0,0.0,0.0,0.0,0.0,0.0,0.0,-4.8424,0.0,0.0,0.0,0.0,0.0,0.0,0.0,0.0,0.0,0.0,0.0,0.0,0.0,0.0,0.0,0.0,0.0,0.0,0.0,0.0,0.0,0.0,0.0,0.0,0.0,0.0,0.0,0.0,0.0,0.0,0.0,0.0,0.0,0.0,0.0,0.0,0.0,0.0,0.0,0.0,0.0,-5.1523,-5.4689,-5.6797,-5.7324,-5.7687,-5.7522,-5.6665,-5.6527,-5.4952,-5.1307,-4.9588,0.0,0.0,0.0,0.0,0.0,0.0,0.0,0.0,0.0,0.0,0.0,0.0,0.0,0.0,0.0,0.0,0.0,0.0,0.0,0.0,0.0,0.0,0.0,0.0,0.0,0.0,0.0,0.0,0.0,0.0,0.0,0.0,0.0,0.0,0.0,0.0,0.0,0.0,0.0,0.0,0.0,0.0,0.0,0.0,0.0,0.0,0.0,0.0,0.0,0.0,0.0,0.0,0.0,0.0,0.0,0.0,0.0,0.0,0.0,0.0,-4.8472,0.0,0.0,0.0,0.0,0.0,0.0,0.0,0.0,0.0,0.0,0.0,0.0,0.0,0.0,0.0,0.0,0.0,0.0,0.0,0.0,0.0,0.0,0.0,0.0,0.0,0.0,0.0,0.0,0.0,0.0,0.0,0.0,0.0,0.0,0.0,0.0,0.0,0.0,0.0,0.0,-4.9839,-5.281,-5.4753,-5.5067,-5.5744,-5.5712,-5.4721,-5.4583,-5.3197,-5.0015,-4.8533,0.0,0.0,0.0,0.0,0.0,0.0,0.0,0.0,0.0,0.0,0.0,0.0,0.0,0.0,0.0,0.0,0.0,0.0,0.0,0.0,0.0,0.0,0.0,0.0,0.0,0.0,0.0,0.0,0.0,0.0,0.0,0.0,0.0,0.0,0.0,0.0,0.0,0.0,0.0,0.0,0.0,0.0,0.0,0.0,0.0,0.0,0.0,0.0,0.0,0.0,0.0,0.0,0.0,-5.2414,-5.2789,-5.252,-5.2946,-5.2698,-5.1865,-5.0743,-5.0287,-5.0303,-4.9701,0.0,0.0,0.0,0.0,0.0,0.0,0.0,0.0,0.0,0.0,0.0,0.0,0.0,0.0,0.0,0.0,0.0,0.0,0.0,0.0,0.0,0.0,0.0,0.0,-4.8084,-4.8037,0.0,0.0,0.0,0.0,0.0,0.0,0.0,0.0,0.0,0.0,0.0,0.0,-4.8159,-5.0803,-5.2482,-5.2608,-5.3647,-5.3805,-5.2545,-5.2545,-5.1495,-4.8875,-4.7599,-4.5285,0.0,0.0,0.0,0.0,0.0,0.0,0.0,0.0,0.0,0.0,0.0,0.0,0.0,0.0,0.0,0.0,0.0,0.0,0.0,0.0,0.0,0.0,0.0,0.0,0.0,0.0,0.0,0.0,0.0,0.0,0.0,0.0,-4.775,-4.8358,0.0,0.0,0.0,0.0,0.0,0.0,0.0,0.0,0.0,0.0,0.0,0.0,0.0,-5.0556,-5.1215,-5.1942,-5.2928,-5.4068,-5.4253,-5.493,-5.5947,-5.5407,-5.5374,-5.5534,-5.4504,0.0,-5.0444,-5.0321,0.0,0.0,0.0,0.0,0.0,0.0,0.0,0.0,0.0,0.0,0.0,0.0,0.0,0.0,0.0,0.0,0.0,0.0,0.0,0.0,0.0,0.0,-4.6903,-4.8073,-4.8429,-4.8445,0.0,-4.7625,-4.7013,-4.6243,-4.4555,0.0,0.0,0.0,0.0,0.0,0.0,0.0,-4.7318,-4.9151,-5.0368,-5.0913,-5.1172,-5.0986,-5.0213,-5.0677,-5.0368,-4.8872,-4.8075,-4.6323,-4.3285,-4.1597,0.0,0.0,0.0,0.0,0.0,0.0,0.0,0.0,0.0,0.0,0.0,0.0,0.0,0.0,0.0,0.0,0.0,0.0,0.0,0.0,0.0,0.0,0.0,0.0,0.0,0.0,0.0,0.0,0.0,-4.697,-4.8243,-4.891,-4.8728,-4.8273,0.0,0.0,0.0,0.0,0.0,0.0,0.0,0.0,0.0,-4.9974,-5.0993,-5.1862,-5.2522,-5.362,-5.44,-5.5,-5.572,-5.62,-5.644,-5.65,-5.6449,-5.6286,-5.6161,-5.5227,-5.3631,-5.235,-5.1042,-4.967,0.0,0.0,0.0,0.0,-4.6415,-4.6993,-4.7582,-4.7064,0.0,-4.5201,0.0,0.0,0.0,0.0,0.0,0.0,0.0,0.0,0.0,0.0,0.0,-4.8206,-4.8756,-4.9238,-4.938,-4.8713,-4.7739,0.0,-4.5218,-4.3478,-4.1378,0.0,0.0,0.0,0.0,-4.2595,-4.5541,-4.7448,-4.8621,-4.8922,-4.9614,-4.9644,-4.8591,-4.9102,-4.8922,-4.7641,-4.7641,-4.6413,-4.3728,-4.3279,-4.1786,0.0,0.0,0.0,0.0,0.0,0.0,0.0,0.0,0.0,0.0,0.0,0.0,0.0,0.0,0.0,0.0,0.0,0.0,0.0,0.0,0.0,0.0,0.0,0.0,0.0,0.0,0.0,0.0,-4.7496,-4.8549,-4.907,-4.9232,-4.8905,0.0,0.0,0.0,0.0,0.0,0.0,-4.8249,-4.9299,-5.0204,-5.0874,-5.1983,-5.28,-5.3347,-5.451,-5.5153,-5.5328,-5.6263,-5.6585,-5.6322,-5.679,-5.6731,-5.6351,-5.679,-5.6643,-5.5962,-5.4221,-5.2713,-5.1299,-4.9357,-4.8355,-4.8001,-4.7777,-4.829,-4.921,-4.9839,-4.9347,-4.8344,-4.7221,0.0,-4.2806,-4.2177,0.0,0.0,0.0,0.0,-4.3807,-4.4612,-4.6151,-4.7546,-4.7941,-4.8772,-4.9499,-4.9776,-4.9132,-4.8253,0.0,-4.5858,-4.415,-4.1852,0.0,0.0,0.0,0.0,-4.2158,-4.4575,-4.6314,-4.7361,-4.7361,-4.8319,-4.8525,-4.745,-4.8054,-4.8113,-4.714,-4.7507,-4.6742,-4.4431,-4.451,-4.3177,-3.9993,0.0,0.0,0.0,0.0,0.0,0.0,0.0,0.0,0.0,0.0,0.0,0.0,0.0,0.0,0.0,0.0,0.0,0.0,0.0,0.0,0.0,0.0,0.0,0.0,0.0,0.0,0.0,0.0,0.0,-4.8605,-4.9156,0.0,0.0,0.0,0.0,-4.8048,-4.8959,-4.9728,-5.0349,-5.0924,-5.1632,-5.2259,-5.2998,-5.3369,-5.3397,-5.4109,-5.4737,-5.5393,-5.5451,-5.5794,-5.6423,-5.6394,-5.6451,-5.6423,-5.6394,-5.6051,-5.5448,-5.5235,-5.4414,-5.3006,-5.1002,-5.0235,-5.0217,-4.993,-5.0272,-5.0944,-5.1337,-5.0681,-4.943,-4.768,-4.4629,-4.168,-4.1653,-4.1147,0.0,0.0,-4.2106,-4.2885,-4.4099,-4.537,-4.6449,-4.7098,-4.8084,-4.8855,-4.8924,-4.8807,-4.8621,0.0,-4.683,-4.5092,-4.3779,0.0,-4.1735,-4.2441,-4.2589,-4.3325,-4.5298,-4.6196,-4.6639,-4.6639,-4.7213,-4.7331,-4.6698,-4.7788,-4.8496,-4.8437,-4.8437,-4.7711,-4.6137,-4.5229,-4.3473,-4.0625,-3.9762,0.0,0.0,0.0,0.0,0.0,0.0,0.0,0.0,0.0,0.0,0.0,0.0,0.0,0.0,0.0,0.0,0.0,0.0,0.0,0.0,0.0,0.0,0.0,0.0,0.0,0.0,0.0,0.0,-4.9186,-5.0113,0.0,-4.9221,-4.8656,-4.847,-4.8664,-4.9968,-5.0876,-5.1068,-5.2416,-5.3134,-5.3,-5.3606,-5.383,-5.3502,-5.3696,-5.3917,-5.4197,-5.4197,-5.4307,-5.4529,-5.4529,-5.4529,-5.4529,-5.4529,-5.439,-5.4086,-5.33,-5.2875,-5.2583,-5.0652,-5.0033,-5.0198,-4.9724,-5.0138,-5.0867,-5.1019,-5.0594,-4.9482,-4.6906,-4.4401,-4.2462,-4.2462,-4.2253,-4.2121,-4.2383,-4.2858,-4.3437,-4.3912,-4.4626,-4.5342,-4.5741,-4.6589,-4.7188,-4.7017,-4.7003,-4.6994,-4.6528,-4.6408,-4.5828,-4.4208,-4.3507,-4.3086,-4.2911,-4.3261,-4.3903,-4.5026,-4.5756,-4.6164,-4.6164,-4.6674,-4.6966,-4.6732,-4.7566,-4.8062,-4.8062,-4.8395,-4.7683,-4.5607,-4.5652,-4.4157,-4.0768,-3.9754,-3.8394,0.0,0.0,0.0,0.0,0.0,0.0,0.0,0.0,0.0,0.0,0.0,0.0,0.0,0.0,0.0,0.0,0.0,0.0,0.0,0.0,0.0,0.0,0.0,0.0,0.0,0.0,-4.8328,-4.9307,-5.0476,-5.0745,-4.9628,-4.9266,-4.9096,-4.9096,-5.0527,-5.1343,-5.1189,-5.2685,-5.3334,-5.2719,-5.3155,-5.3243,-5.2842,-5.2842,-5.2842,-5.2842,-5.2842,-5.2842,-5.2842,-5.2842,-5.2842,-5.2842,-5.2842,-5.2842,-5.2761,-5.1555,-5.1316,-5.1516,-5.0202,-4.9836,-5.0037,-4.9674,-4.993,-5.0462,-5.0243,-4.9584,-4.8407,-4.6268,-4.4351,-4.2935,-4.2935,-4.2935,-4.2935,-4.2935,-4.3138,-4.3367,-4.3367,-4.3749,-4.4134,-4.4313,-4.494,-4.5448,-4.5225,-4.5016,-4.474,-4.4546,-4.5458,-4.5769,-4.4104,-4.3989,-4.3903,-4.3242,-4.3529,-4.4018,-4.4649,-4.5109,-4.5453,-4.5683,-4.6257,-4.663,-4.6583,-4.7406,-4.7693,-4.731,-4.7836,-4.7195,-4.5044,-4.5244,-4.3772,-4.0413,-3.8529,-3.7021,-3.5799,0.0,0.0,0.0,0.0,0.0,0.0,0.0,0.0,0.0,0.0,0.0,0.0,0.0,0.0,0.0,0.0,0.0,0.0,0.0,0.0,0.0,0.0,0.0,-4.5897,-4.732,-4.8262,-4.8926,-5.0014,-5.0433,-4.9902,-4.9528,-4.9351,-4.9351,-5.0707,-5.1315,-5.0741,-5.1758,-5.2071,-5.156,-5.1534,-5.1534,-5.1507,-5.1534,-5.1534,-5.1534,-5.1534,-5.1534,-5.1534,-5.1534,-5.1534,-5.1534,-5.1534,-5.1534,-5.1455,-5.0307,-4.9837,-4.9827,-4.9818,-4.9872,-4.9872,-4.9872,-4.9872,-4.9759,-4.919,-4.7793,-4.6282,-4.5768,-4.4402,-4.2986,-4.2986,-4.2961,-4.2961,-4.2961,-4.2712,-4.2463,-4.2432,-4.2683,-4.284,-4.2837,-4.333,-4.373,-4.3726,-4.2856,-4.2217,-4.2701,-4.4129,-4.4816,-4.3602,-4.391,-4.4107,-4.3462,-4.3406,0.0,-4.4294,-4.435,-4.4555,-4.5172,-4.5781,-4.6146,-4.6154,-4.7297,-4.7488,-4.6231,-4.6757,-4.6286,-4.4546,-4.3983,-4.2382,-3.9455,-3.6104,-3.434,-3.423,0.0,0.0,0.0,0.0,0.0,0.0,0.0,0.0,0.0,0.0,0.0,0.0,0.0,0.0,0.0,0.0,0.0,0.0,0.0,0.0,0.0,-4.2814,-4.3671,-4.5634,-4.6444,-4.7427,-4.9212,-5.0053,-5.0589,-5.0869,-5.083,-5.0766,-5.0766,-5.1514,-5.1702,-5.1119,-5.1463,-5.1184,-5.0193,-5.0168,-4.9965,-4.9558,-4.9965,-5.0168,-5.0168,-5.0168,-5.0168,-5.0168,-5.0168,-5.0168,-5.0168,-5.0168,-5.0168,-5.0066,-4.8923,-4.8466,-4.8462,-4.859,-4.8669,-4.8669,-4.8669,-4.8669,-4.8611,-4.8204,-4.7042,-4.5768,-4.5393,-4.4232,-4.2986,-4.2986,-4.2766,-4.2384,-4.2163,-4.1698,-4.139,-4.1564,-4.1675,-4.1847,-4.2263,-4.2493,-4.2511,-4.2116,-4.1749,-4.1464,-4.1128,-4.2287,-4.3235,-4.2738,-4.3682,-4.4184,-4.3143,-4.319,0.0,-4.2964,-4.2958,-4.3155,-4.3704,-4.4119,-4.4683,-4.5559,-4.5582,-4.5413,-4.5134,-4.4908,-4.3861,-4.17,-4.1874,-4.0641,-3.7619,-3.5411,-3.3847,0.0,0.0,0.0,0.0,0.0,0.0,0.0,0.0,0.0,0.0,0.0,0.0,0.0,0.0,0.0,0.0,0.0,0.0,0.0,0.0,0.0,0.0,-4.3482,-4.4699,-4.6152,-4.6525,-4.738,-4.9364,-5.0067,-5.0645,-5.1222,-5.1272,-5.1272,-5.1272,-5.18,-5.1749,-5.0971,-5.0921,-5.0519,-4.9615,-4.9364,-4.9213,-4.9113,-4.9439,-4.959,-4.959,-4.959,-4.959,-4.959,-4.959,-4.959,0.0,-4.959,-4.9464,-4.9188,-4.8284,-4.7782,0.0,0.0,0.0,0.0,0.0,-4.7409,-4.7375,-4.7172,-4.6254,-4.5164,-4.4991,-4.3947,-4.2768,-4.2518,-4.2013,-4.1429,-4.0963,-4.0355,-3.9976,-4.0354,-4.0337,-4.0373,-4.0908,-4.0893,-4.0676,-4.033,-3.9904,-3.959,-3.9688,-4.0553,0.0,-4.1364,-4.2782,-4.3472,-4.2199,-4.2156,-4.2137,-4.1617,-4.169,-4.1978,-4.256,-4.3054,-4.3659,-4.4378,-4.4351,0.0,0.0,0.0,-4.1901,-3.9886,-3.9488,0.0,0.0,0.0,0.0,0.0,0.0,0.0,0.0,-3.4059,-3.4275,0.0,0.0,0.0,0.0,0.0,0.0,0.0,0.0,0.0,0.0,0.0,0.0,0.0,0.0,0.0,0.0,-4.4242,-4.5974,-4.7154,-4.738,-4.8008,-4.959,-5.0218,-5.077,-5.1398,-5.1473,-5.1473,-5.1473,-5.1925,-5.1699,-5.0569,0.0,0.0,0.0,0.0,-4.9012,-4.949,-4.9565,-4.959,-4.959,-4.959,-4.959,-4.959,-4.9525,-4.9525,-4.9525,-4.9475,-4.9149,-4.8648,-4.7958,-4.7382,-4.6856,-4.6441,-4.6301,-4.6301,-4.6301,-4.6301,-4.6301,-4.6301,0.0,0.0,-4.456,-4.3637,-4.2438,-4.1886,-4.12,-4.0493,-3.9873,-3.9198,-3.8693,-3.9126,-3.9032,-3.896,-3.9489,-3.92,-3.8815,-3.8815,-3.7998,-3.7565,-3.8527,-3.9037,-3.9423,-3.9758,-4.1493,-4.2372,-4.0951,-4.072,-4.0593,-4.0236,-4.044,-4.0849,-4.1467,0.0,0.0,-4.2788,-4.3203,-4.2788,-4.1125,-4.0839,-4.0096,-3.8679,-3.7203,-3.6518,-3.6799,-3.5174,-3.4566,-3.4985,-3.4568,-3.4813,-3.5671,-3.4642,-3.411,0.0,0.0,0.0,0.0,0.0,0.0,0.0,0.0,0.0,0.0,0.0,0.0,0.0,0.0,0.0,-4.4669,-4.5573,-4.6677,-4.8234,-4.8837,-4.9565,-5.0795,-5.1046,-5.1498,-5.2528,-5.2603,-5.2603,-5.2603,-5.2703,-5.2277,-5.1172,-5.067,-4.9967,-4.8962,-4.8837,-4.8812,-4.8937,-4.9364,-4.959,-4.959,0.0,0.0,-4.959,-4.9332,-4.9202,-4.9177,-4.8471,-4.8095,-4.7922,-4.6909,-4.6131,-4.5723,-4.6109,-4.6301,-4.6301,-4.6301,-4.6301,-4.6301,-4.6301,-4.5573,-4.456,-4.4353,-4.349,-4.2457,-4.2132,-4.1625,0.0,-4.0166,-3.952,-3.9048,-3.8954,-3.887,-3.896,-3.9489,-3.92,-3.8815,-3.8815,-3.831,-3.7902,-3.8094,-3.8771,-3.918,-3.8785,-4.035,-4.125,-4.0025,-3.9692,-3.9361,-3.8865,-3.8816,-3.909,-3.9709,-4.0521,-4.1006,-4.0981,-4.1106,-4.0604,-3.9384,-3.8066,-3.737,-3.7518,-3.6801,-3.6505,-3.6796,-3.6453,-3.6207,-3.6104,-3.6418,-3.6466,-3.6225,-3.5794,-3.6257,0.0,0.0,0.0,0.0,0.0,0.0,0.0,0.0,0.0,0.0,0.0,-4.2559,-4.2559,0.0,-4.5246,-4.5799,-4.6828,-4.7933,-4.9038,-4.9761,-5.0422,-5.1222,-5.1523,-5.2026,-5.2854,-5.2929,-5.2804,-5.2528,-5.2528,-5.2026,-5.0921,-5.0318,-4.9741,-4.9213,-4.8912,-4.8912,-4.9188,-4.9464,-4.959,-4.959,-4.959,-4.9525,-4.9307,-4.8928,-4.8586,-4.8432,-4.7696,-4.7238,-4.6918,-4.6044,-4.5552,-4.5331,-4.5696,-4.5817,-4.5817,-4.5817,-4.5817,-4.5817,-4.5817,-4.5097,-4.4119,-4.4002,-4.3086,-4.1955,-4.1573,-4.0964,-4.0286,-3.9619,-3.9008,-3.8616,-3.8743,-3.8623,-3.8527,-3.908,-3.8791,-3.8407,-3.8407,-3.819,-3.807,-3.8359,-3.8731,-3.9032,-3.9008,-3.9795,-4.0129,-3.914,-3.8863,-3.8659,-3.8234,-3.8315,-3.8518,-3.881,-3.9589,-3.9972,-3.9677,-3.9406,-3.9037,-3.842,-3.7365,-3.6898,-3.7168,-3.6823,-3.6648,-3.6816,-3.6664,-3.6512,-3.6411,-3.6675,-3.6795,-3.6795,-3.6949,-3.7146,0.0,0.0,0.0,0.0,0.0,0.0,0.0,-4.2534,-4.2434,-4.2861,-4.3765,-4.4443,-4.4443,-4.5648,-4.6652,-4.6778,-4.8008,-4.9113,-4.9665,-5.0364,-5.0971,-5.1139,-5.164,-5.2122,-5.2673,-5.2792,-5.2566,-5.199,-5.2033,-5.1599,-5.0469,-4.9927,-4.9626,-4.9525,-4.9035,-4.8971,-4.9396,-4.9396,-4.9396,-4.9396,-4.9396,-4.9217,-4.8834,-4.8323,-4.7883,-4.7479,-4.6876,-4.6273,-4.571,-4.5257,-4.5086,-4.5086,-4.5086,-4.5086,-4.5147,-4.527,-4.5331,-4.5331,-4.5331,-4.4618,-4.3708,-4.359,-4.2656,-4.1533,-4.1039,-4.0403,-3.9801,-3.9272,-3.8791,-3.8527,-3.8888,-3.8551,-3.8262,-3.8719,-3.8383,-3.7974,-3.7974,-3.7974,-3.8118,-3.8575,-3.8647,-3.8791,-3.9224,-3.9296,-3.9086,-3.8529,-3.8461,-3.8384,-3.8051,-3.821,-3.8315,-3.8315,-3.9014,-3.9345,-3.8827,-3.8289,-3.7971,-3.7971,-3.758,-3.7286,-3.7189,-3.7083,-3.6982,-3.6885,-3.6753,-3.6723,-3.6723,-3.6723,-3.694,-3.7348,-3.7781,-3.7589,-3.9297,-4.0534,-4.2162,-4.2791,-4.4016,-4.5121,0.0,-4.5447,-4.5773,-4.5824,-4.6326,-4.6753,-4.6753,-4.728,-4.7908,-4.841,-4.9063,-4.969,-5.0243,-5.0938,-5.1234,-5.0829,-5.1006,-5.1368,-5.1911,-5.2238,-5.2197,-5.1625,-5.1872,-5.1599,-5.0469,-5.0081,-4.9635,-4.9137,-4.8853,-4.8657,-4.8706,-4.8706,-4.8706,-4.8706,-4.8706,-4.846,-4.7942,-4.7507,-4.702,-4.6494,-4.5643,-4.4987,-4.4481,-4.4433,-4.4409,-4.4409,-4.4409,-4.4409,-4.447,-4.5086,-4.5331,-4.5331,-4.5331,-4.4618,-4.3649,-4.333,-4.254,-4.1525,-4.1272,-4.1109,-4.0908,-4.0355,-4.0186,-4.0042,-3.9633,-3.9128,-3.8743,-3.8815,-3.8383,-3.7974,-3.7974,-3.7974,-3.7998,-3.807,-3.807,-3.8094,-3.8142,-3.8166,-3.8286,-3.8725,-3.8773,-3.8605,-3.8046,-3.8027,-3.8027,-3.8027,-3.8532,-3.8846,-3.8797,-3.8321,-3.8007,-3.8007,-3.7935,-3.7694,-3.7236,-3.7617,-3.7641,-3.716,-3.7565,-3.7805,-3.7805,-3.7805,-3.7829,-3.7902,-3.795,-3.819,-4.0455,-4.1735,-4.3313,-4.4217,-4.5673,-4.6979,-4.733,-4.7581,-4.7832,-4.8159,-4.8661,-4.8937,-4.8636,-4.9012,-4.9439,0.0,-5.0218,-5.077,-5.1322,-5.1532,-5.1462,-5.0962,-5.0294,-5.0137,-5.0837,-5.1501,-5.1532,-5.0638,-5.1222,-5.1055,-4.9731,-4.9551,-4.9256,-4.8837,-4.8641,-4.86,-4.86,-4.86,-4.86,-4.8576,-4.8256,-4.7896,-4.7393,-4.6655,-4.5881,-4.5184,-4.478,-4.4501,-4.4285,-4.4285,-4.4285,-4.4285,-4.4285,-4.4285,-4.4347,-4.4594,-4.4717,-4.4717,-4.4717,-4.4014,-4.3176,-4.2998,-4.2272,-4.1344,-4.123,-4.1172,-4.1124,-4.0908,-4.086,-4.0812,-4.0595,-3.9898,-3.9272,-3.9272,-3.8623,-3.7974,-3.7974,-3.7974,-3.7974,-3.7974,-3.7974,-3.7974,-3.7974,-3.7974,-3.807,-3.8286,-3.8334,-3.8238,-3.8022,-3.7974,-3.7974,-3.7974,-3.819,-3.8334,-3.8334,-3.8118,-3.7974,-3.7974,-3.7974,-3.7878,-3.7661,-3.7853,-3.7878,-3.7661,-3.7878,-3.8142,-3.8479,-3.8479,-3.8479,-3.8479,-3.8479,-3.8431,-4.1601,-4.2886,-4.4342,-4.5623,-4.7154,-4.8535,-4.9088,-4.9339,-4.954,-4.9766,-5.0017,-5.0067,-4.9665,-4.9791,-5.0067,-5.0368,-5.0896,-5.1473,-5.189,-5.1891,-5.1481,-5.07,-4.9592,-4.8952,-4.9175,-5.0339,-5.0641,-4.9702,-5.0481,-5.0398,-4.9017,-4.8877,-4.8682,-4.8445,-4.8313,-4.8313,-4.8313,-4.8313,-4.824,-4.8093,-4.7678,-4.7207,-4.6569,-4.5712,-4.4957,-4.4285,-4.4285,-4.4285,-4.4285,-4.4285,-4.4285,-4.4285,-4.4285,-4.4189,-4.4069,-4.4069,-4.4165,-4.4261,-4.4117,-4.3529,-4.2795,-4.2651,-4.1918,-4.1172,-4.1172,-4.1172,-4.1172,-4.1172,-4.1172,-4.1172,-4.1172,-4.0403,-3.9609,-3.9609,-3.8767,-3.7974,-3.7974,-3.7974,-3.7974,-3.7974,-3.7974,-3.7974,-3.7974,-3.7974,-3.7974,-3.7974,-3.7974,-3.7974,-3.7974,-3.7974,-3.7974,-3.7974,-3.7974,-3.8046,-3.819,-3.807,-3.8046,-3.819,-3.807,-3.7974,-3.7974,-3.8142,-3.8214,-3.8214,-3.8359,-3.8623,-3.9032,-3.9032,-3.9032,-3.9032,-3.8888,-3.8599,-4.2484,-4.374,-4.4995,-4.6677,-4.8335,-4.969,-5.0243,-5.0795,-5.1046,-5.0494,-4.9967,-4.9615,-4.959,-4.9163,-4.9163,-5.0243,-5.0896,-5.1314,-5.1501,-5.1659,-5.1288,-4.9869,-4.8923,-4.7906,0.0,-4.8622,-4.9504,-4.8877,-4.9677,-4.9731,-4.8649,-4.8248,-4.8026,-4.8026,-4.7696,-4.7497,-4.7497,-4.7497,-4.7233,-4.6752,-4.6728,-4.6175,-4.5164,-4.4611,-4.4309,-4.4285,-4.4285,-4.4285,-4.4285,-4.4285,-4.4285,-4.4285,-4.4285,-4.3949,-4.3529,-4.3529,-4.3829,-4.4213,-4.3721,-4.3192,-4.2723,-4.2217,-4.1629,-4.1172,-4.1172,-4.1172,-4.1172,-4.1172,-4.1172,-4.1172,-4.1172,-4.0403,-3.9609,-3.9609,-3.8767,-3.7974,-3.7974,-3.7974,-3.7974,-3.7974,-3.7974,-3.7974,-3.7974,-3.7974,-3.7974,-3.7974,-3.7974,-3.7974,-3.7974,-3.7974,-3.7974,-3.7974,-3.7974,-3.819,-3.8743,-3.8286,-3.8214,-3.8767,-3.8286,-3.7974,-3.7974,-3.8503,-3.8791,-3.8791,-3.9296,-3.9561,-3.9585,-3.9585,-3.9585,-3.9561,-3.9056,-3.8815,-4.3162,-4.5121,-4.7029,-4.7983,-4.9766,-5.1322,-5.1498,-5.1975,-5.2226,-5.1649,-5.0795,-5.0142,-5.0142,-4.9496,-4.9217,-4.9965,-5.0663,-5.1105,-5.1141,-5.1288,-5.0986,-4.9845,-4.8899,0.0,0.0,0.0,0.0,-4.7783,-4.8599,-4.8878,-4.8248,-4.8092,-4.7894,-4.7696,-4.7563,-4.7497,-4.7497,-4.7161,-4.6896,-4.6704,-4.6006,-4.5221,-4.4549,-4.4357,-4.4285,-4.4285,-4.4285,-4.4285,-4.4285,-4.4285,-4.4285,-4.4237,-4.3938,-4.3673,-4.3481,-4.3144,-4.312,-4.3265,-4.3072,-4.2663,-4.2265,-4.2097,-4.1629,-4.1172,-4.1172,-4.1172,-4.1172,-4.1172,-4.0932,-4.0667,-4.0667,-3.9874,-3.908,-3.908,-3.8527,-3.7974,-3.7974,-3.8262,-3.8527,-3.8527,-3.8527,-3.8527,-3.8527,-3.8238,-3.7974,-3.7974,-3.7974,-3.7974,-3.7974,-3.7974,-3.8118,-3.8503,-3.8527,-3.8623,-3.8791,-3.8647,-3.8455,-3.8286,-3.8094,-3.7974,-3.7974,-3.8527,-3.8815,-3.8815,-3.9101,-3.9308,-3.9495,-3.9495,-3.9495,-3.9495,-3.953,-3.9244,-4.4568,-4.6577,-4.846,-4.9414,-5.0896,-5.2151,-5.2352,-5.2678,-5.2653,-5.1699,-5.0619,-4.9766,-4.9565,-4.8807,-4.8501,-4.9445,-5.0246,-5.0763,-5.0798,-5.101,-5.0825,-4.9907,-4.886,-4.7954,0.0,0.0,0.0,-4.6738,-4.7507,-4.78,-4.7537,-4.7731,-4.7696,-4.7497,-4.7497,-4.7401,-4.7209,-4.6896,-4.6535,-4.615,-4.5197,-4.4621,-4.4285,-4.4285,-4.4285,-4.4285,-4.4285,-4.4285,-4.4285,-4.4285,-4.4165,-4.3949,-4.3649,-4.3289,-4.2928,-4.2651,-4.241,-4.2289,-4.2482,-4.2313,-4.1942,-4.1749,-4.1461,-4.1172,-4.1172,-4.1172,-4.1172,-4.1172,-4.0932,-4.0691,-4.0691,-3.9898,-3.9104,-3.9104,-3.8527,-3.7974,-3.7974,-3.8262,-3.8527,-3.8527,-3.8527,-3.8527,-3.8527,-3.8214,-3.7974,-3.7974,-3.7974,-3.7974,-3.7974,-3.8166,-3.8407,-3.8767,-3.8984,-3.9104,-3.9104,-3.8936,-3.8671,-3.831,-3.8094,-3.7974,-3.7974,-3.8695,-3.9104,-3.9104,-3.9332,-3.9433,-3.9302,-3.9325,-3.9325,-3.936,-3.9575,-3.9507,-4.6577,-4.8033,-4.9289,-5.0921,-5.1724,-5.2251,-5.2754,-5.2854,-5.2377,-5.072,-4.9464,-4.8485,0.0,0.0,-4.7022,-4.8675,-4.9611,-5.0166,-5.0312,-5.0801,-5.0877,0.0,0.0,0.0,0.0,0.0,0.0,-4.5886,0.0,-4.668,-4.6704,-4.7185,-4.7473,-4.7473,-4.7473,-4.7209,-4.668,-4.6631,-4.6102,-4.5029,-4.4525,-4.4285,-4.4285,-4.4285,-4.4285,-4.4285,-4.4285,-4.4285,-4.4285,-4.4261,-4.3925,-4.3505,-4.3457,-4.2832,-4.1966,-4.1942,-4.1629,-4.1244,-4.1749,-4.1942,-4.1904,-4.1341,-4.1172,-4.1172,-4.1172,-4.1172,-4.1172,-4.1172,-4.1172,-4.1148,-4.1148,-4.0379,-3.9609,-3.9585,-3.8767,-3.8022,-3.7998,-3.7998,-3.8022,-3.8022,-3.8022,-3.8022,-3.7998,-3.7974,-3.7974,-3.7974,-3.7974,-3.7974,-3.7974,-3.8479,-3.8815,-3.8864,-3.932,-3.9657,-3.9657,-3.9176,-3.8839,-3.8815,-3.8286,-3.7974,-3.7974,-3.9032,-3.9609,-3.9609,-3.9992,-3.9849,-3.9239,-3.9285,-3.9285,-3.9216,-3.936,-3.9519,-4.733,-4.9138,-5.0845,-5.1674,-5.2,-5.2151,-5.2277,-5.2,-5.1348,-5.0067,-4.8284,-4.6903,-4.6753,-4.5768,-4.5367,-4.666,-4.8279,0.0,-4.939,-5.0234,0.0,-4.9996,0.0,-4.894,-4.7617,-4.6776,0.0,0.0,-4.6054,-4.6295,-4.668,-4.6848,-4.692,-4.692,-4.692,-4.6655,-4.6126,-4.5742,-4.5149,-4.4477,-4.4357,-4.4285,-4.4285,-4.4285,-4.4285,-4.4285,-4.4285,-4.4285,-4.4261,-4.389,-4.3649,-4.3433,-4.2663,-4.2206,-4.1918,-4.1533,-4.1293,-4.1196,-4.1341,-4.1389,-4.1365,-4.122,-4.1172,-4.1172,-4.1172,-4.1172,-4.1172,-4.1172,-4.0908,-4.0595,-4.0595,-4.009,-3.9513,-3.9104,-3.8815,-3.8503,-3.807,-3.831,-3.8599,-3.8599,-3.8599,-3.8479,-3.8046,-3.7974,-3.7974,-3.7974,-3.7974,-3.7974,-3.7974,-3.8479,-3.896,-3.9369,-3.9874,-4.0186,-4.0186,-3.9705,-3.9248,-3.8839,-3.8286,-3.7974,-3.7974,-3.9032,-3.9609,-3.9609,-3.9992,-3.9873,-3.9285,-3.9285,-3.9285,-3.9285,-3.9791,-4.004,-4.8284,-4.9941,-5.1348,-5.1674,-5.1925,-5.1975,-5.1473,-5.0946,-5.0167,-4.8786,-4.6954,-4.5573,-4.5573,-4.4705,-4.4508,-4.5859,0.0,0.0,-4.8724,-4.9662,-5.0143,0.0,-4.9517,0.0,-4.7954,-4.7377,-4.6848,0.0,-4.6054,-4.6054,-4.6343,-4.6583,-4.6607,-4.6367,-4.6367,-4.6102,-4.551,-4.5005,-4.4573,-4.4285,-4.4285,-4.4285,-4.4285,-4.4285,-4.4285,-4.4285,0.0,-4.4141,-4.3962,-4.3649,-4.3241,-4.2784,-4.2206,-4.1822,-4.1581,-4.1293,-4.1172,-4.1172,-4.1172,-4.1172,-4.1172,-4.1172,-4.1172,-4.1172,-4.1172,-4.1172,-4.1172,-4.1172,-4.098,-4.0739,-4.0739,-4.0355,-3.9874,-3.9585,-3.9152,-3.8743,-3.8407,-3.8407,-3.8455,-3.8455,-3.8455,-3.8359,-3.8046,-3.7974,-3.7974,-3.7974,-3.7974,-3.7974,-3.7974,-3.8671,-3.9272,-3.9585,-4.0282,-4.0643,-4.0427,-4.0114,-3.9633,-3.8864,-3.8527,-3.8238,-3.7998,-3.9032,-3.9609,-3.9609,-3.9992,-3.9756,-3.8882,-3.8905,-3.8905,-3.8941,-3.9523,-4.004,-4.9188,-5.0368,-5.1197,-5.1272,-5.1523,-5.1498,-5.0444,-4.9615,-4.8636,-4.7043,-4.5397,-4.4242,-4.4367,-4.3887,-4.4042,-4.5687,0.0,-4.8291,-4.8291,-4.9133,-4.9589,-4.9133,-4.9084,-4.8868,-4.8339,-4.793,-4.7473,-4.6872,-4.6391,-4.6078,-4.5934,-4.6367,-4.6367,-4.5838,-4.5742,-4.5525,-4.5077,-4.4549,-4.4285,-4.4285,-4.4285,-4.4285,-4.4285,-4.4285,-4.4285,-4.4285,-4.4213,0.0,-4.3505,-4.3361,-4.2784,-4.1966,-4.1894,-4.1581,-4.1172,-4.1172,-4.1172,-4.1172,-4.1172,-4.1172,-4.1172,-4.1172,-4.1172,-4.1172,-4.1172,-4.1172,-4.1172,-4.1172,-4.1172,-4.1172,-4.1172,-4.0836,-4.0475,-4.0403,-3.9705,-3.9008,-3.8936,-3.8551,-3.819,-3.819,-3.8142,-3.8094,-3.8094,-3.8022,-3.7974,-3.7974,-3.7974,-3.7974,-3.7974,-3.8864,-3.9537,-3.9609,-4.0499,-4.0932,-4.0523,-4.0427,-3.9994,-3.908,-3.896,-3.8719,-3.8214,-3.9176,-3.9705,-3.9705,-4.0097,-3.9674,-3.8539,-3.8585,-3.8527,-3.8424,-3.8976,-3.9514,-4.9389,-5.0067,-5.0695,-5.1172,-5.0645,-4.9866,-4.9213,-4.7581,-4.5974,-4.5221,-4.3332,-4.2183,-4.3087,-4.3126,-4.3477,-4.5122,-4.6997,-4.8291,-4.8291,-4.882,-4.9181,0.0,-4.9084,-4.8868,-4.8339,-4.8603,0.0,0.0,0.0,-4.6848,-4.5982,-4.6006,-4.5814,-4.5285,-4.4789,-4.4717,-4.5077,-4.4549,-4.4285,-4.4285,-4.4285,-4.4285,-4.4285,-4.4285,-4.4285,-4.4261,-4.3866,0.0,-4.3433,-4.2591,-4.2134,-4.1976,-4.1485,-4.1268,-4.1172,-4.1172,-4.1172,-4.1172,-4.1172,-4.1172,-4.1172,-4.1172,-4.1172,-4.1172,-4.1172,-4.1172,-4.1172,-4.1172,-4.1172,-4.1172,-4.1172,-4.1124,-4.0932,-4.0499,-4.0258,-3.9994,-3.9561,-3.9393,-3.932,-3.932,-3.896,-3.8671,-3.8671,-3.8286,-3.7974,-3.7974,-3.7974,-3.7974,-3.7974,-3.8551,-3.9128,-3.9561,-4.0162,-4.0667,-4.1028,-4.0643,-4.0306,-4.0138,-3.9705,-3.9417,-3.932,-3.9922,-4.0258,-4.0258,-4.0459,-4.0161,-3.9218,-3.8989,-3.8758,-3.847,-3.8228,-3.8366,-4.9866,-5.0444,-5.0795,-5.0469,-4.9766,-4.8786,-4.738,-4.5573,-4.394,-4.3087,-4.1551,-4.0727,-4.1555,-4.1886,-4.2495,-4.414,-4.5881,-4.7064,-4.7064,-4.7762,-4.8147,-4.7882,-4.8098,-4.8147,0.0,-4.8363,-4.8339,-4.7569,0.0,-4.704,-4.5982,-4.5342,-4.4933,-4.4669,-4.4429,-4.4405,-4.4669,-4.4405,-4.4285,-4.4285,-4.4285,-4.4285,-4.4285,-4.4285,-4.4117,-4.389,-4.3625,0.0,-4.2663,-4.2182,-4.1856,-4.1533,-4.1293,-4.1172,-4.1172,-4.1172,-4.1172,-4.1172,-4.1172,-4.1172,-4.1172,-4.1172,-4.1172,-4.1172,-4.1172,-4.1172,-4.1172,-4.1172,-4.1172,-4.1172,-4.1172,-4.1172,-4.1124,-4.086,-4.0595,-4.0258,-3.9729,-3.9609,-3.9609,-3.9609,-3.9176,-3.8815,-3.8815,-3.8359,-3.7974,-3.7974,-3.7974,-3.7974,-3.7974,-3.8214,-3.8599,-3.9128,-3.9657,-4.0186,-4.0739,-4.0547,-4.0403,-4.0403,-4.0162,-3.9898,-3.9609,-4.0114,-4.0403,-4.0403,-4.0736,-4.0645,-3.9926,-3.9471,-3.8931,-3.8447,-3.7929,-3.7717,-5.0444,-5.0845,-5.0845,-4.9841,-4.8912,-4.7732,-4.5748,-4.374,-4.2032,-4.1153,-3.9998,-3.9371,-4.0049,-4.0471,-4.1404,-4.3192,-4.4585,-4.5589,-4.595,-4.6631,-4.7016,-4.6583,-4.7016,0.0,-4.7329,-4.7906,0.0,-4.7545,0.0,0.0,-4.5982,-4.4861,-4.4285,-4.4285,-4.4285,-4.4285,-4.4285,-4.4285,-4.4285,-4.4285,-4.4285,-4.4213,-4.4117,-4.4117,-4.3866,-4.3337,-4.3241,0.0,0.0,-4.1904,-4.1557,-4.1172,-4.1172,-4.1172,-4.1172,-4.1172,-4.1172,-4.1172,-4.1172,-4.1172,-4.1172,-4.1172,-4.1172,-4.1172,-4.1172,-4.1172,-4.1172,-4.1172,-4.1172,-4.1172,-4.1172,-4.1172,-4.1172,-4.1172,-4.086,-4.0451,-4.0042,-3.9946,-3.9946,-3.9946,-3.9513,-3.9152,-3.9152,-3.8599,-3.8166,-3.8166,-3.8046,-3.7974,-3.7974,-3.7974,-3.8142,-3.8599,-3.9224,-3.9826,-4.0355,-4.0499,-4.0571,-4.0571,-4.0571,-4.0379,-3.997,-4.0331,-4.0571,-4.0571,-4.0923,-4.0817,-4.0153,-3.9471,-3.8758,-3.8018,-3.7264,-3.6897,-5.1046,-5.087,-5.0343,-4.9741,-4.8058,-4.6225,-4.4995,-4.2258,-3.9973,-3.9873,-3.8542,-3.7739,-3.8818,-3.9264,-4.0244,-4.2928,-4.3752,-4.462,-4.6163,-4.6199,-4.6054,-4.6006,0.0,0.0,-4.6776,-4.769,0.0,0.0,0.0,0.0,-4.5934,-4.4861,-4.4285,-4.4285,-4.4285,-4.4285,-4.4285,-4.4285,-4.4285,-4.4285,-4.4285,-4.4021,-4.3577,-4.3577,-4.3313,-4.2867,-4.2327,0.0,0.0,-4.1461,-4.122,-4.1172,-4.1172,-4.1172,-4.1172,-4.1172,-4.1172,-4.1172,-4.1172,-4.1172,-4.1172,-4.1172,-4.1172,-4.1172,-4.1172,-4.1172,-4.1172,-4.1172,-4.1172,-4.1172,-4.1172,-4.1172,-4.1172,-4.1172,-4.1148,-4.11,-4.1052,-4.1028,-4.1028,-4.1028,-4.0619,-4.0258,-4.0258,-3.9417,-3.8743,-3.8743,-3.831,-3.7974,-3.7974,-3.7974,-3.7998,-3.8046,-3.8984,-3.9826,-4.0355,-4.0836,-4.1124,-4.1124,-4.1124,-4.1076,-4.1028,-4.1076,-4.1124,-4.1124,-4.0884,-4.0334,-3.9504,-3.8666,-3.7736,-3.6772,-3.5644,-3.5058,-5.0193,-5.0594,-5.0645,-4.9414,-4.7456,-4.5422,-4.3966,-4.1329,-3.9094,-3.8743,-3.7889,-3.7312,-3.7764,-3.8341,-3.9305,-4.1042,-4.2021,-4.286,-4.3832,-4.4556,-4.4909,-4.4909,-4.539,0.0,0.0,0.0,-4.7257,0.0,0.0,0.0,-4.5453,-4.4693,-4.4285,-4.4285,-4.4285,-4.4285,-4.4285,-4.4285,-4.4285,-4.4285,-4.3949,-4.3721,-4.3505,-4.3192,-4.2784,-4.2338,-4.2062,0.0,0.0,-4.1268,-4.1172,-4.1172,-4.1172,-4.1172,-4.1172,-4.1172,-4.1172,-4.1172,-4.1172,-4.1172,-4.1172,-4.1172,-4.1172,-4.1172,-4.1172,-4.1172,-4.1172,-4.1172,-4.1172,-4.1172,-4.1172,-4.1172,-4.1172,-4.1172,-4.1172,-4.1172,-4.1172,-4.1172,-4.1172,-4.1172,-4.0763,-4.0403,-4.0403,-3.9513,-3.8815,-3.8815,-3.8334,-3.7974,-3.7974,-3.7974,-3.7974,-3.7974,-3.8671,-3.9345,-3.9874,-4.0403,-4.0836,-4.1172,-4.1172,-4.1172,-4.1172,-4.1172,-4.1172,-4.1172,-4.0653,-4.0012,-3.9291,-3.8222,-3.709,-3.5861,-3.5002,-3.4492,-4.9464,-5.0293,-5.067,-4.9138,-4.6979,-4.4844,-4.3313,-4.0727,-3.8492,-3.809,-3.7437,-3.6935,-3.6935,-3.7441,-3.834,-3.9882,-4.0488,-4.1225,-4.2598,-4.3409,-4.389,-4.389,0.0,-4.4804,0.0,-4.5838,-4.6247,0.0,0.0,0.0,-4.4837,-4.4501,-4.4285,-4.4285,-4.4285,-4.4285,-4.4285,-4.4117,-4.4045,-4.4045,-4.3553,-4.3216,-4.3048,-4.2687,-4.2289,-4.1725,-4.1725,0.0,0.0,-4.1172,-4.1172,-4.1172,-4.1172,-4.1172,-4.1172,-4.1172,-4.1172,-4.1172,-4.1172,-4.1172,-4.1172,-4.1172,-4.1172,-4.1172,-4.1172,-4.1172,-4.1172,-4.1172,-4.1172,-4.1172,-4.1172,-4.1172,-4.1172,-4.1172,-4.1172,-4.1172,-4.1172,-4.1172,-4.1172,-4.1172,-4.0884,-4.0643,-4.0643,-3.9874,-3.9272,-3.9272,-3.8815,-3.8455,-3.8455,-3.8455,-3.8455,-3.8455,-3.896,-3.9369,-3.9585,-4.009,-4.0619,-4.1148,-4.1172,-4.1172,-4.1172,-4.1172,-4.1172,-4.1172,-4.0455,-3.9674,-3.8944,-3.7714,-3.6441,-3.5087,-3.4548,-3.4223,-4.9163,-4.9992,-5.0167,-4.9063,-4.6677,-4.4342,-4.3237,-4.04,-3.8015,-3.8015,-3.7136,-3.6405,-3.6405,-3.643,-3.7287,-4.0074,-3.955,-3.9967,-4.3241,-4.3176,-4.2843,0.0,0.0,-4.3529,-4.3529,-4.4515,0.0,0.0,0.0,0.0,-4.4333,-4.4285,-4.4285,-4.4285,-4.4285,-4.4285,-4.4285,-4.3794,-4.3529,-4.3505,-4.3,-4.2554,-4.2049,-4.199,-4.1701,0.0,0.0,0.0,0.0,-4.1172,-4.1172,-4.1172,-4.1172,-4.1172,-4.1172,-4.1172,-4.1172,-4.1172,-4.1172,-4.1172,-4.1172,-4.1172,-4.1172,-4.1172,-4.1172,-4.1172,-4.1172,-4.1172,-4.1172,-4.1172,-4.1172,-4.1172,-4.1172,-4.1172,-4.1172,-4.1172,-4.1172,-4.1172,-4.1172,-4.1172,-4.1172,-4.1172,-4.1172,-4.0739,-4.0379,-4.0379,-3.9922,-3.9585,-3.9585,-3.9585,-3.9585,-3.9585,-4.0066,-4.0162,-3.9657,-4.009,-4.0619,-4.1148,-4.1172,-4.1172,-4.1172,-4.1172,-4.1172,-4.1172,-4.0305,-3.9344,-3.8291,-3.705,-3.5705,-3.4423,-3.4047,-3.397,-4.5949,-4.7431,-4.836,-4.6878,-4.5271,-4.3765,-4.2715,-4.0124,-3.8015,-3.8015,-3.7136,-3.6405,-3.6405,-3.6405,-3.6862,-3.8316,-3.8382,-3.8932,-4.0898,0.0,0.0,-4.223,-4.2976,-4.3649,0.0,0.0,0.0,0.0,0.0,0.0,-4.4285,-4.4285,-4.4285,-4.4285,-4.4285,-4.4093,-4.377,-4.3601,-4.3337,-4.3,-4.2471,-4.2134,-4.2024,-4.1605,-4.1341,0.0,0.0,0.0,0.0,-4.1172,-4.1172,-4.1172,-4.1172,-4.1172,-4.1172,-4.1172,-4.1172,-4.1172,-4.1172,-4.1172,-4.1172,-4.1172,-4.1172,-4.1172,-4.1172,-4.1172,-4.1172,-4.1172,-4.1172,-4.1172,-4.1172,-4.1172,-4.1172,-4.1172,-4.1172,-4.1172,-4.1172,-4.1172,-4.1172,-4.1172,-4.1172,-4.1172,-4.1172,-4.0739,-4.0403,-4.0403,-3.9946,-3.9609,-3.9609,-3.9609,-3.9609,-3.9609,-3.9753,-3.9946,-4.0138,-4.0643,-4.1004,-4.1172,-4.1172,-4.1172,-4.1172,-4.1172,-4.1365,-4.1701,-4.0563,-3.9507,-3.8579,-3.7275,-3.5968,-3.462,-3.4825,-3.4975,-4.3313,-4.4995,-4.6125,-4.5095,-4.3865,-4.2635,-4.1731,-3.9546,-3.7688,-3.7688,-3.6985,-3.6405,-3.6405,-3.631,-3.6543,-3.7444,-3.7564,-3.8115,-3.9758,0.0,0.0,-4.223,0.0,0.0,0.0,0.0,0.0,0.0,0.0,0.0,-4.4285,-4.4285,-4.4285,-4.4285,-4.4285,-4.4021,-4.3529,-4.3313,-4.2976,-4.2506,-4.1918,-4.1677,-4.1677,-4.1341,-4.1172,0.0,0.0,0.0,0.0,-4.1172,-4.1172,-4.1172,-4.1172,-4.1172,-4.1172,-4.1172,-4.1172,-4.1172,-4.1172,-4.1172,-4.1172,-4.1172,-4.1172,-4.1172,-4.1172,-4.1172,-4.1172,-4.1172,-4.1172,-4.1172,-4.1172,-4.1172,-4.1172,-4.1172,-4.1172,-4.1244,-4.1437,-4.1485,-4.1533,-4.1749,-4.1774,-4.1774,-4.1774,-4.1509,-4.122,-4.1028,-4.0715,-4.0427,-4.0234,-4.0186,-4.0186,-4.0186,-4.0186,-4.0427,-4.0956,-4.0932,-4.098,-4.1172,-4.1057,-4.0942,-4.0826,-4.0711,-4.0832,-4.1236,-4.002,-3.9093,-3.8289,-3.6742,-3.5556,-3.4707,-3.5176,-3.5391,0.0,-4.276,-4.3614,-4.3614,-4.2434,-4.1075,-4.0576,-3.8768,0.0,-3.7186,-3.6782,-3.6405,-3.6358,-3.6193,-3.6351,-3.737,-3.7118,-3.757,0.0,-4.0692,0.0,0.0,-4.2867,0.0,-4.2867,0.0,0.0,0.0,0.0,0.0,-4.4285,-4.4285,-4.4285,-4.4285,-4.4237,-4.3949,-4.3457,-4.3,-4.253,-4.1976,-4.1413,-4.1172,-4.1172,-4.1172,-4.1172,0.0,0.0,0.0,0.0,-4.1172,-4.1172,-4.1172,-4.1172,-4.1172,-4.1172,-4.1172,-4.1172,-4.1172,-4.1172,-4.1172,-4.1172,-4.1172,-4.1172,-4.1172,-4.1172,-4.1172,-4.1172,-4.1172,-4.1172,-4.1172,-4.1172,-4.1172,-4.1172,-4.1172,-4.1172,-4.1317,-4.187,-4.1966,-4.2193,-4.2723,-4.2819,-4.2819,-4.2819,-4.2819,-4.2651,-4.2169,-4.199,-4.1798,-4.1293,-4.1196,-4.1172,-4.1172,-4.1172,-4.1389,-4.187,-4.1052,-4.0739,-4.1268,-4.0946,-4.0597,-4.0282,-3.993,-3.9867,-3.9931,-3.8942,-3.8195,-3.7678,-3.5746,-3.4785,-3.4805,-3.5234,-3.543,-3.917,0.0,-4.1852,-4.1852,-4.1304,-4.0576,0.0,-3.8492,-3.7186,-3.7186,-3.6782,-3.631,-3.6146,-3.6051,-3.6231,-3.6896,-3.6866,-3.7467,-3.9406,-4.0917,0.0,-4.3216,-4.3337,-4.3337,-4.3337,0.0,0.0,0.0,0.0,-4.4285,-4.4285,-4.4285,-4.4285,-4.4285,-4.3938,-4.3457,-4.2952,-4.2891,-4.2303,-4.1365,-4.1244,-4.1172,-4.1172,-4.1172,-4.1172,0.0,0.0,0.0,-4.1172,-4.1172,-4.1172,-4.1172,-4.1172,-4.1172,-4.1172,-4.1172,-4.1172,-4.1172,-4.1172,-4.1172,-4.1172,-4.1172,-4.1172,-4.1172,-4.1172,-4.1172,-4.1172,-4.1172,-4.1172,-4.1172,-4.1172,-4.1172,-4.1172,-4.1172,-4.1172,-4.1317,-4.187,-4.1966,-4.2193,-4.2723,-4.2819,-4.2819,-4.2819,-4.2819,-4.2771,-4.2651,-4.223,-4.1918,-4.1798,-4.1437,-4.1172,-4.1172,-4.1172,-4.122,-4.1365,-4.1509,-4.1822,-4.241,-4.184,-4.1218,-4.0569,-4.0045,-3.968,-3.9522,-3.868,-3.7892,-3.7223,-3.6174,-3.5703,-3.5703,-3.582,-3.5879,-3.8466,-3.932,-3.9997,-4.1025,-4.0551,-3.9747,-3.9697,-3.8592,-3.7563,-3.7563,-3.7014,-3.6543,-3.6399,-3.5985,-3.5794,-3.6379,-3.6763,-3.7843,0.0,0.0,-4.2711,-4.377,-4.389,-4.389,0.0,0.0,0.0,0.0,0.0,-4.4285,-4.4285,-4.4285,-4.4165,-4.3901,-4.3673,-4.3265,-4.2819,-4.2578,-4.2049,-4.1172,-4.1172,-4.1172,-4.1172,-4.1172,-4.1172,0.0,0.0,0.0,-4.1172,-4.1172,-4.1172,-4.1172,-4.1172,-4.1172,-4.1172,-4.1172,-4.1172,-4.1172,-4.1172,-4.1172,-4.1172,-4.1172,-4.1172,-4.1172,-4.1172,-4.1172,-4.1172,-4.1172,-4.1172,-4.1172,-4.1172,-4.1172,-4.1172,-4.1172,-4.1365,-4.1677,-4.2265,-4.2519,-4.2832,-4.3385,-4.3481,-4.3481,-4.3481,-4.3481,-4.3409,-4.3144,-4.2856,-4.2591,-4.2351,-4.187,-4.1557,-4.1557,-4.1317,-4.1268,-4.1533,-4.1798,-4.2145,-4.2434,-4.1567,-4.0865,-4.041,-3.9437,-3.8653,-3.821,-3.7636,-3.7191,-3.6789,-3.6287,-3.6016,-3.6016,-3.6016,-3.6016,-3.8592,-3.8567,-3.8642,-4.0648,-4.0099,-3.912,-3.9597,-3.8944,-3.8191,-3.8066,-3.7344,-3.6751,-3.6604,-3.5819,-3.5379,-3.6032,0.0,0.0,-4.1465,-4.2376,-4.312,-4.4041,-4.4223,0.0,0.0,0.0,0.0,0.0,0.0,-4.4285,-4.4285,-4.4213,-4.3949,-4.3529,-4.3361,-4.3072,-4.2699,-4.2265,-4.1701,-4.1172,-4.1172,-4.1172,-4.1172,-4.1172,-4.1172,-4.1172,0.0,0.0,-4.1172,-4.1172,-4.1172,-4.1172,-4.1172,-4.1172,-4.1172,-4.1172,-4.1172,-4.1172,-4.1172,-4.1172,-4.1172,-4.1172,-4.1172,-4.1172,-4.1172,-4.1172,-4.1172,-4.1172,-4.1172,-4.1172,-4.1172,-4.1172,-4.1172,-4.1172,-4.1533,-4.2073,-4.2699,-4.3096,-4.3577,-4.4165,-4.4285,-4.4285,-4.4285,-4.4285,-4.4117,-4.3697,-4.3553,-4.3361,-4.2928,-4.241,-4.1966,-4.1966,-4.1509,-4.1365,-4.1822,-4.1846,-4.1894,-4.1966,-4.1022,-4.0256,-3.9893,-3.8481,-3.7369,-3.6655,-3.6309,-3.6183,-3.6352,-3.6054,-3.5957,-3.6016,-3.6016,-3.6016,-3.912,-3.917,-3.9044,-4.0325,-4.0099,-3.9597,-3.9672,-3.9546,-3.9193,-3.8209,-3.7339,-3.6545,-3.5809,-3.5404,-3.5455,-3.6414,0.0,-4.008,0.0,0.0,-4.2767,-4.338,0.0,0.0,0.0,0.0,0.0,0.0,0.0,-4.4285,-4.4285,-4.389,-4.3601,-4.3505,-4.2663,-4.2182,-4.2145,-4.2014,-4.1701,-4.1172,-4.1172,-4.1172,-4.1172,-4.1172,-4.1172,-4.1172,0.0,-4.1172,-4.1172,-4.1172,-4.1172,-4.1172,-4.1172,-4.1172,-4.1172,-4.1172,-4.1172,-4.1172,-4.1172,-4.1172,-4.1172,-4.1172,-4.1172,-4.1172,-4.1172,-4.1172,-4.1172,-4.1172,-4.1172,-4.1172,-4.1172,-4.1172,-4.1172,-4.1172,-4.1244,-4.1581,-4.2602,-4.2891,-4.3168,-4.4093,-4.4285,-4.4285,-4.4285,-4.4285,-4.4261,-4.4165,-4.3818,-4.3481,-4.3409,-4.2567,-4.1966,-4.1966,-4.1509,-4.122,-4.1293,-4.1293,-4.1509,-4.1942,-4.165,-4.0716,-3.8997,-3.7593,-3.6534,-3.586,-3.529,-3.5152,-3.5555,-3.5488,-3.5664,-3.6016,-3.6016,-3.6016,-3.8492,-3.8592,-3.8668,-3.9798,-4.0325,-4.0752,-4.1329,-4.1121,-4.0404,-3.8932,-3.7641,-3.6449,-3.5679,-3.4984,-3.534,-3.7609,0.0,-4.031,-4.1074,-4.1669,-4.2179,0.0,0.0,0.0,0.0,0.0,0.0,0.0,0.0,0.0,-4.3853,-4.3649,-4.3265,-4.2687,-4.2206,-4.1846,-4.1557,-4.1557,-4.1413,-4.1172,-4.1172,-4.1172,-4.1172,-4.1172,-4.1172,-4.1172,0.0,-4.1172,-4.1172,-4.1172,-4.1172,-4.1172,-4.1172,-4.1172,-4.1172,-4.1172,-4.1172,-4.1172,-4.1172,-4.1172,-4.1172,-4.1172,-4.1172,-4.1172,-4.1172,-4.1172,-4.1172,-4.1172,-4.1172,-4.1172,-4.1172,-4.1172,-4.1172,-4.1172,-4.1413,-4.1822,-4.2651,-4.2976,-4.3409,-4.4141,-4.4285,-4.4285,-4.4285,-4.4285,-4.4285,-4.4285,-4.4069,-4.3962,-4.3962,-4.3289,-4.2808,-4.2808,-4.2351,-4.2038,-4.2038,-4.2038,-4.1835,-4.1325,-4.1306,-4.0491,-3.8581,-3.7245,-3.6435,-3.6333,-3.5621,-3.5633,-3.6328,-3.6328,-3.6293,-3.6268,-3.6084,-3.6016,-3.7864,-3.8015,-3.8316,-3.9572,-4.0526,-4.1351,-4.2304,-4.2071,-4.1232,-3.9516,-3.7778,-3.631,-3.5591,-3.4918,-3.546,-3.8416,-3.9319,-3.9953,-4.0876,-4.1125,-4.1352,-4.1779,0.0,0.0,0.0,0.0,0.0,0.0,0.0,0.0,-4.3529,-4.3289,-4.2784,-4.199,-4.1846,-4.1605,-4.1196,-4.1172,-4.1172,-4.1172,-4.1172,-4.1172,-4.1172,-4.1172,-4.1172,-4.1172,-4.1172,-4.1172,-4.1172,-4.1172,-4.1172,-4.1172,-4.1172,-4.1172,-4.1172,-4.1172,-4.1172,-4.1172,-4.1172,-4.1172,-4.1172,-4.1172,-4.1172,-4.1172,-4.1172,-4.1172,-4.1172,-4.1172,-4.1172,-4.1172,-4.1172,-4.1172,-4.1172,-4.1172,-4.1485,-4.1942,-4.253,-4.2976,-4.3505,-4.3973,-4.4189,-4.4285,-4.4285,-4.4285,-4.4285,-4.4285,-4.4285,-4.4285,-4.4285,-4.3743,-4.3323,-4.3262,-4.2747,-4.2436,-4.2436,-4.252,-4.2126,-4.1022,-4.1271,-4.0642,-3.8972,-3.7597,-3.6977,-3.704,-3.6398,-3.6395,-3.7185,-3.7185,-3.6958,-3.6654,-3.62,-3.6016,-3.7864,-3.8015,-3.8391,-4.0049,-4.0526,-4.0621,-4.0981,-4.1355,-4.1079,-3.9343,-3.7633,-3.609,-3.5162,-3.5312,-3.617,-3.7894,-3.8547,-3.9051,-3.9469,0.0,-4.0322,0.0,0.0,0.0,0.0,0.0,0.0,0.0,0.0,0.0,-4.3505,-4.2615,-4.2038,-4.1966,-4.1509,-4.122,-4.1172,-4.1172,-4.1172,-4.1172,-4.1172,-4.1172,-4.1172,-4.1172,-4.1172,-4.1172,-4.1172,-4.1172,-4.1172,-4.1172,-4.1172,-4.1172,-4.1172,-4.1172,-4.1172,-4.1172,-4.1172,-4.1172,-4.1172,-4.1172,-4.1172,-4.1172,-4.1172,-4.1172,-4.1172,-4.1172,-4.1172,-4.1172,-4.1172,-4.1172,-4.1172,-4.1172,-4.1172,-4.1172,-4.122,-4.1389,-4.1918,-4.2506,-4.2952,-4.3481,-4.3925,-4.4285,-4.4285,-4.4285,-4.4285,-4.4285,-4.4285,-4.4285,-4.4285,-4.3559,-4.2919,-4.2612,-4.1813,-4.1327,-4.1327,-4.1593,-4.1751,-4.1704,-4.2329,-4.2065,-4.0709,-3.9264,-3.8287,-3.7742,-3.7063,-3.697,-3.7508,-3.7422,-3.7233,-3.7011,-3.6355,-3.6016,-3.701,-3.7236,-3.7589,-3.8067,-3.8562,-3.9325,-4.0775,-4.0821,-4.0221,-3.8811,-3.7254,-3.5657,-3.3903,-3.4533,-3.5687,-3.6748,-3.7509,-3.8122,-3.85,-3.8798,0.0,0.0,0.0,0.0,0.0,0.0,0.0,0.0,0.0,0.0,-4.2567,-4.2182,-4.1822,-4.1485,-4.1293,-4.1172,-4.1172,-4.1172,-4.1172,-4.1172,-4.1172,-4.1172,-4.1172,-4.1172,-4.1172,-4.1172,-4.1172,-4.1172,-4.1172,-4.1172,-4.1172,-4.1172,-4.1172,-4.1172,-4.1172,-4.1172,-4.1172,-4.1172,-4.1172,-4.1172,-4.1172,-4.1172,-4.1172,-4.1172,-4.1172,-4.1172,-4.1172,-4.1172,-4.1172,-4.1172,-4.1172,-4.1172,-4.1172,-4.1172,-4.1172,-4.1317,-4.187,-4.2193,-4.2519,-4.3337,-4.3673,-4.3938,-4.4213,-4.4285,-4.4285,-4.4285,-4.4285,-4.4285,-4.4285,-4.366,-4.2958,-4.2458,-4.1012,-4.0433,-4.1148,-4.146,-4.1746,-4.2094,-4.2127,-4.1532,-4.0208,-3.8835,-3.8039,-3.793,-3.7457,-3.747,-3.7902,-3.786,-3.7565,-3.7079,-3.6355,-3.6016,-3.6505,-3.6681,-3.6912,-3.67,-3.6971,-3.7681,-3.9338,-3.9565,-3.9144,-3.8049,-3.662,-3.5015,-3.3313,0.0,0.0,0.0,-3.6465,-3.7184,-3.7714,-3.7796,0.0,0.0,0.0,0.0,0.0,0.0,0.0,0.0,0.0,0.0,0.0,-4.1822,-4.1557,-4.1196,-4.1172,-4.1172,-4.1172,-4.1172,-4.1172,-4.1172,-4.1172,-4.1172,-4.1172,-4.1172,-4.1172,-4.1172,-4.1172,-4.1172,-4.1172,-4.1172,-4.1172,-4.1172,-4.1172,-4.1172,-4.1172,-4.1172,-4.1172,-4.1172,-4.1172,-4.1172,-4.1172,-4.1172,-4.1172,-4.1172,-4.1172,-4.1172,-4.1172,-4.1172,-4.1172,-4.1172,-4.1172,-4.1172,-4.1172,-4.1172,-4.1172,-4.1293,-4.1653,-4.1846,-4.2182,-4.288,-4.3168,-4.3433,-4.3925,-4.4021,-4.4069,-4.4261,-4.4285,-4.4285,-4.4285,-4.3639,-4.2736,-4.1591,-4.0015,-3.9498,-4.0624,-4.1167,-4.1628,-4.1952,-4.1713,-4.1074,-3.9948,-3.8594,-3.7863,-3.8023,-3.7805,-3.7819,-3.8171,-3.8129,-3.7796,-3.7079,-3.6355,-3.6016,-3.6405,-3.6405,-3.6413,-3.6382,-3.6028,-3.5741,-3.6291,-3.7331,-3.7923,-3.7162,-3.5701,-3.4329,-3.3559,-3.367,0.0,-3.4943,-3.5469,-3.6073,-3.6938,0.0,0.0,0.0,0.0,0.0,0.0,0.0,0.0,0.0,0.0,0.0,0.0,-4.1461,-4.1172,-4.1172,-4.1172,-4.1172,-4.1172,-4.1172,-4.1172,-4.1172,-4.1172,-4.1172,-4.1172,-4.1172,-4.1172,-4.1172,-4.1172,-4.1172,-4.1172,-4.1172,-4.1172,-4.1172,-4.1172,-4.1172,-4.1172,-4.1172,-4.1172,-4.1172,-4.1172,-4.1172,-4.1172,-4.1172,-4.1172,-4.1172,-4.1172,-4.1172,-4.1172,-4.1172,-4.1172,-4.1172,-4.1172,-4.1172,-4.1172,-4.1172,-4.1172,-4.1196,-4.1196,-4.1605,-4.199,-4.199,-4.2399,-4.2988,-4.3433,-4.3529,-4.3697,-4.4213,-4.4285,-4.4285,-4.4285,-4.3389,-4.1975,-3.991,-3.8705,-3.8507,-3.9583,-4.0581,-4.1184,-4.1315,-4.1248,-4.0904,-4.0192,-3.8838,-3.8109,-3.8109,-3.8109,-3.8109,-3.8109,-3.8109,-3.7729,-3.7079,-3.6355,-3.6016,-3.6405,-3.6681,-3.6889,-3.648,-3.6657,-3.6731,-3.6195,-3.6164,-3.633,-3.6325,-3.5468,-3.4426,-3.3555,-3.3481,0.0,-3.3516,-3.4108,-3.4778,-3.533,0.0,0.0,0.0,0.0,0.0,0.0,0.0,0.0,0.0,0.0,0.0,0.0,-4.1268,-4.1172,-4.1172,-4.1172,-4.1172,-4.1172,-4.1172,-4.1172,-4.1172,-4.1172,-4.1172,-4.1172,-4.1172,-4.1172,-4.1172,-4.1172,-4.1172,-4.1172,-4.1172,-4.1172,-4.1172,-4.1172,-4.1172,-4.1172,-4.1172,-4.1172,-4.1172,-4.1172,-4.1172,-4.1172,-4.1172,-4.1172,-4.1172,-4.1172,-4.1172,-4.1172,-4.1172,-4.1172,-4.1172,-4.1172,-4.1172,-4.1172,-4.1172,-4.1461,-4.1725,-4.1725,-4.2158,-4.2699,-4.2976,-4.3192,-4.3457,-4.3949,-4.4045,-4.4093,-4.4261,-4.4285,-4.3974,-4.2988,-4.1761,-4.0344,-3.8772,-3.713,-3.687,-3.842,-3.9477,-4.0142,-4.0582,-4.056,-4.0214,-3.9517,-3.8129,-3.7394,-3.7394,-3.7394,-3.7394,-3.7394,-3.7394,-3.7126,-3.6654,-3.6219,-3.6191,-3.6681,-3.7086,-3.7466,-3.7368,-3.7617,-3.7478,-3.6224,-3.5741,-3.5648,-3.5925,-3.5312,-3.4492,-3.3809,-3.3535,0.0,-3.3086,-3.3633,-3.4219,0.0,0.0,0.0,0.0,0.0,0.0,0.0,0.0,0.0,0.0,0.0,0.0,0.0,-4.1172,-4.1172,-4.1172,-4.1172,-4.1172,-4.1172,-4.1172,-4.1172,-4.1172,-4.1172,-4.1172,-4.1172,-4.1172,-4.1172,-4.1172,-4.1172,-4.1172,-4.1172,-4.1172,-4.1172,-4.1172,-4.1172,-4.1172,-4.1172,-4.1172,-4.1172,-4.1172,-4.1172,-4.1172,-4.1172,-4.1172,-4.1172,-4.1172,-4.1172,-4.1172,-4.1172,-4.1172,-4.1172,-4.1172,-4.1172,-4.1172,-4.1172,-4.1172,-4.1581,-4.1966,-4.1966,-4.2458,-4.2916,-4.3144,-4.3216,-4.3385,-4.3853,-4.3949,-4.4021,-4.4261,-4.4285,-4.3826,-4.2483,-4.1055,-3.967,-3.8242,-3.6636,-3.6261,-3.7775,-3.8825,-3.9498,-3.9844,-3.9844,-3.943,-3.8615,-3.7348,-3.6674,-3.6674,-3.6674,-3.6674,-3.6674,-3.6853,-3.6816,-3.6592,-3.6514,-3.666,-3.696,-3.7588,-3.8191,-3.8726,-3.8659,-3.808,-3.6473,-3.5881,-3.5736,-3.5857,0.0,-3.4531,-3.4141,-3.3711,-3.3418,-3.3418,-3.375,-3.4141,0.0,0.0,0.0,0.0,0.0,0.0,0.0,0.0,0.0,0.0,0.0,0.0,0.0,-4.1172,-4.1172,-4.1172,-4.1172,-4.1172,-4.1172,-4.1172,-4.1172,-4.1172,-4.1172,-4.1172,-4.1172,-4.1172,-4.1172,-4.1172,-4.1172,-4.1172,-4.1172,-4.1172,-4.1172,-4.1172,-4.1172,-4.1172,-4.1172,-4.1172,-4.1172,-4.1172,-4.1172,-4.1172,-4.1172,-4.1172,-4.1172,-4.1172,-4.1172,-4.1172,-4.1172,-4.1172,-4.1172,-4.1172,-4.1172,-4.1172,-4.1172,-4.1172,-4.1629,-4.2038,-4.2038,-4.2554,-4.2964,-4.2964,-4.2964,-4.3048,-4.3505,-4.3577,-4.377,-4.4213,-4.4285,-4.3826,-4.2483,-4.1055,-3.967,-3.8242,-3.6876,-3.6423,-3.7482,-3.8528,-3.9123,-3.9078,-3.9123,-3.866,-3.7616,-3.6559,-3.6016,-3.6016,-3.6016,-3.6035,-3.6074,-3.6484,-3.668,-3.6738,-3.7129,-3.7324,-3.6383,-3.7637,-3.8793,-3.9109,-3.8837,-3.8212,-3.7053,-3.6163,-3.5517,-3.508,-3.457,-3.418,-3.4082,-3.3711,-3.3418,-3.3418,-3.3496,0.0,0.0,0.0,0.0,0.0,0.0,0.0,0.0,0.0,0.0,0.0,0.0,0.0,-4.1139,-4.1172,-4.1172,-4.1172,-4.1172,-4.1172,-4.1172,-4.1172,-4.1172,0.0,-4.1172,-4.1172,-4.1172,-4.1172,-4.1172,-4.1172,-4.1172,-4.1172,-4.1172,-4.1172,-4.1172,-4.1172,-4.1172,-4.1172,-4.1172,-4.1172,-4.1172,-4.1172,-4.1172,-4.1172,-4.1172,-4.1172,-4.1172,-4.1172,-4.1172,-4.1172,-4.1172,-4.1172,-4.1172,-4.1172,-4.1172,-4.1172,-4.1172,-4.1172,-4.1894,-4.2651,-4.2651,-4.3337,-4.401,-4.401,-4.401,-4.4034,-4.4093,-4.4117,-4.4141,-4.4261,-4.4285,-4.3826,-4.2483,-4.1055,-3.967,-3.8242,-3.6876,-3.6355,-3.7146,-3.7929,-3.8308,-3.8329,-3.8308,-3.7996,-3.7213,-3.6423,-3.6016,-3.6016,-3.6016,-3.6191,-3.6523,-3.6621,-3.6836,-3.7168,-3.7266,-3.748,-3.6533,-3.799,-3.9494,-4.0393,-4.0002,-3.8928,-3.7449,-3.6309,-3.5224,-3.43,-3.4082,-3.4082,-3.4082,-3.3711,-3.3418,-3.3418,-3.3418,0.0,0.0,0.0,0.0,0.0,0.0,0.0,0.0,0.0,0.0,0.0,0.0,-3.9403,-4.0653,-4.0884,-4.1,-4.1172,-4.1172,-4.1172,-4.1172,-4.1172,-4.1172,-4.1172,-4.1172,-4.1172,-4.1172,-4.1172,-4.1172,-4.1172,-4.1172,-4.1172,-4.1172,-4.1172,-4.1172,-4.1172,-4.1172,-4.1172,-4.1172,-4.1172,-4.1172,-4.1172,-4.1172,-4.1172,-4.1172,-4.1172,-4.1172,-4.1172,-4.1172,-4.1172,-4.1172,-4.1172,-4.1172,-4.1172,-4.1172,-4.1172,-4.1172,-4.1172,-4.1798,-4.2506,-4.2771,-4.3385,-4.3973,-4.4237,-4.4285,-4.4285,-4.4285,-4.4285,-4.4285,-4.4285,-4.4285,-4.3826,-4.2483,-4.1055,-3.967,-3.8242,-3.6876,-3.6219,-3.6809,-3.7327,-3.7595,-3.7595,-3.7595,-3.7394,-3.6876,-3.6484,-3.6328,-3.6328,-3.6523,-3.6738,-3.6973,-3.7168,-3.7383,-3.7598,-3.7812,-3.8027,-3.6709,-3.8492,-4.0317,-4.1706,-4.1206,-3.9767,-3.791,-3.6481,-3.517,-3.3859,-3.3775,-3.3965,-3.3965,-3.3672,-3.3418,-3.3418,-3.3418,0.0,0.0,0.0,0.0,0.0,0.0,0.0,0.0,0.0,0.0,0.0,0.0,-3.873,-3.9966,-4.0421,-4.0769,-4.1196,-4.1172,-4.1172,-4.1172,-4.1172,-4.1172,-4.1172,-4.1172,-4.1172,-4.1172,-4.1172,-4.1172,-4.1172,-4.1172,-4.1172,-4.1172,-4.1172,-4.1172,-4.1172,-4.1172,-4.1172,-4.1172,-4.1172,-4.1172,-4.1172,-4.1172,-4.1172,-4.1172,-4.1172,-4.1172,-4.1172,-4.1172,-4.1172,-4.1172,-4.1172,-4.1172,-4.1172,-4.1172,-4.1172,-4.1172,-4.1172,-4.1509,-4.2014,-4.2675,-4.3168,-4.3673,-4.4189,-4.4285,-4.4285,-4.4285,-4.4285,-4.4285,-4.4285,-4.4285,-4.3826,-4.2483,-4.1055,-3.967,-3.8242,-3.6937,-3.625,-3.6502,-3.6921,-3.7097,-3.7097,-3.7097,-3.6961,-3.6669,-3.6779,-3.6894,-3.6894,-3.7148,-3.7324,-3.7402,-3.7754,-3.7969,-3.8047,-3.8418,-3.8574,-3.6078,-3.8743,-4.1268,-4.1903,-4.1378,-4.0199,-3.8529,-3.7149,-3.589,0.0,-3.3836,-3.3516,-3.3516,-3.3457,-3.3418,-3.3418,0.0,0.0,0.0,0.0,0.0,0.0,0.0,0.0,0.0,0.0,0.0,0.0,-3.6746,-3.8074,-3.9298,-3.9908,-4.0537,-4.1172,-4.1172,-4.1172,-4.1172,-4.1172,-4.1172,-4.1172,-4.1172,-4.1172,-4.1172,-4.1172,-4.1172,-4.1172,-4.1172,-4.1172,-4.1172,-4.1172,-4.1172,-4.1172,-4.1172,-4.1172,-4.1172,-4.1172,-4.1172,-4.1172,-4.1172,-4.1172,-4.1172,-4.1172,-4.1172,-4.1172,-4.1172,-4.1172,-4.1172,-4.1172,-4.1172,-4.1172,-4.1172,-4.1172,-4.1172,-4.1172,-4.1244,-4.1557,-4.2602,-4.3168,-4.3673,-4.4189,-4.4285,-4.4285,-4.4285,-4.4285,-4.4285,-4.4285,-4.4285,-4.3826,-4.2483,-4.1055,-3.967,-3.8242,-3.7217,-3.6651,-3.6651,-3.7053,-3.7269,-3.7269,-3.7269,-3.7269,-3.7199,-3.7539,-3.7754,-3.7754,-3.7461,-3.748,-3.7832,-3.7891,-3.8125,-3.8496,-3.8555,-3.8574,-3.7236,-3.9295,-4.1046,-4.1706,-4.1557,-4.0836,-3.9416,-3.8089,-3.6785,-3.5253,-3.4403,-3.3859,-3.3481,-3.3418,-3.3418,-3.3418,0.0,0.0,0.0,0.0,0.0,0.0,0.0,0.0,0.0,0.0,0.0,0.0,-3.6074,-3.7413,-3.8648,-3.9498,-4.0339,-4.1172,-4.1172,-4.1172,-4.1172,-4.1172,-4.1172,-4.1172,-4.1172,-4.1172,-4.1172,-4.1172,-4.1172,-4.1172,-4.1172,-4.1172,-4.1172,-4.1172,-4.1172,-4.1172,-4.1172,-4.1172,-4.1172,-4.1172,-4.1172,-4.1172,-4.1172,-4.1172,-4.1172,-4.1172,-4.1172,-4.1172,-4.1172,-4.1172,-4.1172,-4.1172,-4.1172,-4.1244,-4.1557,-4.1629,-4.1701,-4.2049,-4.2121,-4.2279,-4.3024,-4.3144,-4.3276,-4.3907,-4.3888,-4.3701,-4.3451,-4.3326,-4.3177,-4.3177,-4.3177,-4.2736,-4.1591,-4.0409,-3.9273,-3.8279,-3.73,-3.6758,-3.7012,-3.7187,-3.7305,-3.7305,-3.7305,-3.7305,-3.7305,-3.7695,-3.793,-3.793,-3.7988,-3.8105,-3.8281,-3.8281,-3.8379,-3.8574,-3.8574,-3.8574,-3.7789,-3.9245,-4.0445,-4.1101,-4.1305,-4.1047,-3.9998,0.0,-3.7537,0.0,-3.5149,-3.4423,-3.3544,-3.3418,-3.3418,-3.3418,0.0,0.0,0.0,0.0,0.0,0.0,0.0,0.0,0.0,0.0,0.0,0.0,-3.5397,-3.6685,-3.7992,-3.9085,-4.0106,-4.1172,-4.1172,-4.1172,-4.1172,-4.1172,-4.1172,-4.1172,-4.1172,-4.1172,-4.1172,-4.1172,-4.1172,-4.1172,-4.1172,-4.1172,-4.1172,-4.1172,-4.1172,-4.1172,-4.1172,-4.1172,-4.1172,-4.1172,-4.1172,-4.1172,-4.1172,-4.1172,-4.1172,-4.1172,-4.1172,-4.1172,-4.1172,-4.1172,-4.1172,-4.1172,-4.1172,-4.1293,-4.1846,-4.1966,-4.2169,-4.2699,-4.2819,-4.2964,-4.3409,-4.3337,-4.3264,-4.3597,-4.3302,-4.2925,-4.2483,-4.2038,-4.1761,-4.1761,-4.1761,-4.1441,-4.0495,-3.9603,-3.8821,-3.818,-3.748,-3.7109,-3.7422,-3.7559,-3.7617,-3.7617,-3.7617,-3.7617,-3.7617,-3.793,-3.8086,-3.8086,-3.8418,-3.8574,-3.8574,-3.8574,-3.8574,-3.8574,-3.8574,-3.8574,-3.6505,-3.8065,-3.9821,-4.0134,-4.0306,-4.033,-4.0001,0.0,-3.7988,-3.6639,-3.5828,-3.4922,-3.3607,-3.3418,-3.3418,-3.3418,0.0,0.0,0.0,0.0,0.0,0.0,0.0,0.0,0.0,0.0,0.0,0.0,-3.4673,-3.6013,-3.7309,-3.8611,-3.9896,-4.1172,-4.1172,-4.1172,-4.1172,-4.1172,-4.1172,-4.1172,-4.1172,-4.1172,-4.1172,-4.1172,-4.1172,-4.1172,-4.1172,-4.1172,-4.1172,-4.1172,-4.1172,-4.1172,-4.1172,-4.1172,-4.1172,-4.1172,-4.1172,-4.1172,-4.1172,-4.1172,-4.1172,-4.1172,-4.1172,-4.1172,-4.1172,-4.1172,-4.1172,-4.1172,-4.1172,-4.1293,-4.1846,-4.1966,-4.2169,-4.2699,-4.2819,-4.2964,-4.3409,-4.3914,-4.4027,-4.3428,-4.2799,-4.2079,-4.1418,-4.071,-4.0322,-4.0322,-4.0322,-4.0084,-3.9364,-3.895,-3.8479,-3.7791,-3.7786,-3.7871,-3.7891,-3.8262,-3.8516,-3.8516,-3.8516,-3.8516,-3.8516,-3.8535,-3.8535,-3.8535,-3.8555,-3.8574,-3.8574,-3.8574,-3.8574,-3.8574,-3.8574,-3.8574,-3.5801,-3.6684,-3.7688,-3.8141,-3.9116,-3.995,-4.004,-3.9682,-3.8909,-3.756,-3.6481,-3.5273,-3.367,-3.3418,-3.3418,-3.3418,0.0,0.0,0.0,0.0,0.0,0.0,0.0,0.0,0.0,0.0,0.0,0.0,0.0,-3.5951,-3.7248,-3.8551,-3.9896,-4.1172,-4.1172,-4.1172,-4.1172,-4.1172,-4.1172,-4.1172,-4.1172,-4.1172,-4.1172,-4.1172,-4.1172,-4.1172,-4.1172,-4.1172,-4.1172,-4.1172,-4.1172,-4.1172,-4.1172,-4.1172,-4.1172,-4.1172,-4.1172,-4.1172,-4.1172,-4.1172,-4.1172,-4.1172,-4.1413,-4.1677,-4.1677,-4.1918,-4.2265,-4.2265,-4.2265,-4.2303,-4.2832,-4.2952,-4.3096,-4.3649,-4.3505,-4.3168,-4.2994,-4.3322,-4.3389,-4.2506,-4.1569,-4.0732,-4.004,-3.9299,-3.8838,-3.8838,-3.8838,-3.8811,-3.8678,-3.8303,-3.8081,-3.8177,-3.8039,-3.8027,-3.832,-3.8476,-3.8574,-3.8574,-3.8574,-3.8574,-3.8574,-3.8574,-3.8574,-3.8574,-3.8574,-3.8574,-3.8574,-3.8574,-3.8574,-3.8574,-3.8574,-3.8574,-3.4951,-3.5529,-3.6182,-3.6533,-3.7739,-3.8993,-3.9434,-3.9399,-3.9028,-3.8055,-3.7008,-3.5802,-3.432,-3.3985,-3.3796,-3.3418,0.0,0.0,0.0,0.0,0.0,0.0,0.0,0.0,0.0,0.0,0.0,0.0,0.0,0.0,-3.7248,-3.8551,-3.9896,-4.1172,-4.1287,-4.1344,-4.1344,-4.1344,-4.1344,-4.1344,-4.1344,-4.1344,-4.1344,-4.1344,-4.1344,-4.1344,-4.123,-4.1172,-4.1172,-4.1172,-4.1172,-4.1172,-4.1172,-4.1172,-4.1172,-4.1172,-4.1172,-4.1172,-4.1172,-4.1172,-4.1172,-4.1172,-4.1533,-4.1966,-4.1966,-4.241,-4.2819,-4.2819,-4.2819,-4.294,-4.3385,-4.3649,-4.389,-4.4189,-4.3997,-4.3549,-4.2809,-4.2537,-4.2163,-4.1031,-3.9993,-3.9064,-3.8385,-3.7904,-3.7618,-3.7618,-3.7739,-3.7895,-3.7924,-3.7877,-3.7917,-3.8228,-3.821,-3.8262,-3.8555,-3.8574,-3.8574,-3.8574,-3.8574,-3.8574,-3.8574,-3.8574,-3.8574,-3.8574,-3.8574,-3.8574,-3.8574,-3.8574,-3.8574,-3.8574,-3.8574,-3.8574,0.0,0.0,0.0,0.0,0.0,0.0,-3.8115,0.0,-3.8198,-3.7977,-3.7448,-3.6762,-3.5683,-3.517,-3.461,-3.3607,0.0,0.0,0.0,0.0,0.0,0.0,0.0,0.0,0.0,0.0,0.0,0.0,-3.4936,-3.6034,-3.7248,-3.8611,-3.9954,-4.1172,-4.1435,-4.1606,-4.1606,-4.1606,-4.1606,-4.1606,-4.1606,-4.1606,-4.1606,-4.1606,-4.1606,-4.1606,-4.1344,-4.1172,-4.1172,-4.1172,-4.1172,-4.1172,-4.1172,-4.1172,-4.1172,-4.1172,-4.1172,-4.1172,-4.1172,-4.1172,-4.1172,-4.1172,-4.1557,-4.199,-4.199,-4.2434,-4.2867,-4.2867,-4.2867,-4.2988,-4.3409,-4.3938,-4.4285,-4.4285,-4.4261,-4.4013,-4.2988,-4.1738,-4.0387,-3.9151,-3.8146,-3.727,-3.6567,-3.657,-3.668,-3.668,-3.7031,-3.7305,-3.7324,-3.7676,-3.793,-3.7949,-3.832,-3.8574,-3.8574,-3.8574,-3.8574,-3.8574,-3.8574,-3.8574,-3.8574,-3.8574,-3.8574,-3.8574,-3.8574,-3.8574,-3.8574,-3.8574,-3.8574,-3.8574,-3.8574,-3.8574,-3.3388,0.0,0.0,0.0,0.0,0.0,0.0,0.0,-3.8024,-3.8044,-3.8215,-3.8131,-3.7259,-3.6621,-3.5971,-3.5005,0.0,0.0,0.0,0.0,0.0,0.0,0.0,0.0,0.0,0.0,0.0,0.0,-3.5976,-3.705,-3.7954,-3.9697,-4.0942,-4.1492,-4.1549,-4.172,-4.1972,-4.172,-4.1606,-4.1606,-4.1606,-4.1606,-4.1606,-4.1606,-4.1606,-4.1606,-4.1344,-4.1172,-4.1172,-4.1172,-4.1172,-4.1172,-4.1172,-4.1172,-4.1172,-4.1172,-4.1172,-4.1172,-4.1172,-4.1172,-4.1172,-4.1172,-4.1798,-4.2602,-4.2602,-4.3168,-4.3914,-4.3914,-4.3914,-4.3938,-4.4021,-4.4165,-4.4285,-4.4285,-4.3973,-4.3378,-4.2203,-4.0801,-3.968,-3.9196,-3.8058,-3.7011,-3.6542,-3.6631,-3.668,-3.668,-3.7031,-3.7402,-3.7715,-3.7851,-3.8047,-3.8359,-3.8496,-3.8574,-3.8574,-3.8574,-3.8574,-3.8574,-3.8574,-3.8574,-3.8574,-3.8574,-3.8574,-3.8574,-3.8574,-3.8574,-3.8574,-3.8574,-3.8574,-3.8574,-3.8574,-3.8574,-3.3111,0.0,0.0,0.0,0.0,0.0,-3.5031,-3.6177,-3.7192,0.0,-3.8034,-3.8297,-3.7723,-3.7331,-3.6816,0.0,0.0,0.0,0.0,0.0,0.0,0.0,0.0,0.0,0.0,-3.5838,-3.6047,-3.5837,-3.6876,-3.8038,-3.9226,-4.0745,-4.1631,-4.1802,-4.1891,-4.2061,-4.2256,-4.1972,-4.1802,-4.1802,-4.1802,-4.1802,-4.1802,-4.1802,-4.1802,-4.1802,-4.1344,-4.1172,-4.1172,-4.1172,-4.1172,-4.1172,-4.1172,-4.1172,-4.1172,-4.1172,-4.1172,-4.122,-4.1437,-4.1509,-4.1557,-4.1774,-4.2399,-4.3072,-4.3072,-4.3673,-4.4285,-4.4285,-4.4285,-4.4285,-4.4285,-4.4285,-4.4285,-4.4137,-4.3774,-4.3042,-4.1754,-4.0312,-3.9153,-3.8563,-3.7636,-3.6884,-3.6612,-3.6916,-3.7187,-3.7187,-3.7559,-3.791,-3.8164,-3.8203,-3.8301,-3.8555,-3.8574,-3.8574,-3.8574,-3.8574,-3.8574,-3.8574,-3.8574,-3.8574,-3.8574,-3.8574,-3.8574,-3.8574,-3.8574,-3.8574,-3.8574,-3.8574,-3.8574,-3.8574,-3.8574,-3.8574,-3.3036,-3.2993,0.0,0.0,-3.3395,0.0,-3.4424,-3.5219,-3.5959,0.0,-3.7194,-3.7719,-3.7356,-3.7437,-3.7121,0.0,0.0,0.0,0.0,0.0,0.0,0.0,0.0,0.0,-3.5555,-3.6163,-3.6668,-3.7018,-3.79,-3.9168,-4.0711,-4.1631,-4.211,-4.2167,-4.2369,-4.2513,-4.2594,-4.2256,-4.211,-4.211,-4.211,-4.211,-4.211,-4.211,-4.211,-4.2054,-4.1483,-4.1172,-4.1172,-4.1172,-4.1172,-4.1196,-4.1244,-4.1268,-4.1268,-4.1268,-4.1317,-4.1413,-4.1822,-4.2014,-4.2193,-4.2675,-4.3096,-4.3505,-4.3505,-4.3853,-4.4285,-4.4285,-4.4237,-4.4213,-4.4261,-4.4285,-4.4223,-4.3826,-4.3451,-4.2822,-4.1486,-4.0084,-3.8795,-3.7695,-3.7017,-3.668,-3.6738,-3.7402,-3.793,-3.793,-3.8301,-3.8574,-3.8574,-3.8574,-3.8574,-3.8574,-3.8574,-3.8574,-3.8574,-3.8574,-3.8574,-3.8574,-3.8574,-3.8574,-3.8574,-3.8574,-3.8574,-3.8574,-3.8574,-3.8574,-3.8574,-3.8574,-3.8574,-3.8574,-3.8574,-3.8574,-3.2432,-3.239,-3.239,-3.239,0.0,0.0,-3.337,-3.4204,-3.509,0.0,-3.6573,-3.7394,-3.7486,-3.7146,-3.6588,0.0,0.0,0.0,0.0,0.0,0.0,0.0,0.0,0.0,-3.6265,-3.6938,-3.7687,-3.8487,-3.9953,-4.0975,-4.1402,-4.1859,-4.2199,-4.2425,-4.2457,-4.2625,-4.293,-4.2369,-4.211,-4.211,-4.211,-4.211,-4.211,-4.211,-4.211,-4.2054,-4.1483,-4.1172,-4.1172,-4.1172,-4.1172,-4.122,-4.1653,-4.1822,-4.1822,-4.1822,-4.2145,-4.2458,-4.2086,-4.2313,-4.2675,-4.2795,-4.3096,-4.3505,-4.3505,-4.3853,-4.4285,-4.4285,-4.3949,-4.377,-4.4165,-4.4285,-4.4161,-4.3576,-4.2925,-4.2102,-4.0732,-3.9576,-3.8559,-3.7821,-3.7162,-3.6777,-3.7109,-3.7598,-3.793,-3.793,-3.8301,-3.8574,-3.8574,-3.8574,-3.8574,-3.8574,-3.8574,-3.8574,-3.8574,-3.8574,-3.8574,-3.8574,-3.8574,-3.8574,-3.8574,-3.8574,-3.8574,-3.8574,-3.8574,-3.8574,-3.8574,-3.8574,-3.8574,-3.8574,-3.8574,-3.8574,-3.1854,-3.2014,-3.2215,-3.2215,0.0,0.0,0.0,0.0,-3.4399,-3.4675,-3.5604,-3.6363,-3.6351,0.0,-3.6086,0.0,0.0,0.0,0.0,0.0,0.0,0.0,0.0,0.0,-3.6289,-3.754,-3.8956,-4.0258,-4.1638,-4.2281,-4.2029,-4.2369,-4.2594,-4.2737,-4.2737,-4.2818,-4.2986,-4.2369,-4.211,-4.211,-4.211,-4.211,-4.211,-4.2256,-4.2312,-4.2256,-4.1688,-4.1402,-4.1426,-4.1519,-4.1581,-4.1605,-4.187,-4.2193,-4.2434,-4.2434,-4.2434,-4.2399,-4.2663,-4.276,-4.2916,-4.3385,-4.3721,-4.3938,-4.3938,-4.3938,-4.3925,-4.4213,-4.3877,-4.3649,-4.4141,-4.4285,-4.4099,-4.3263,-4.242,-4.1377,-4.004,-3.8762,-3.78,-3.7497,-3.7183,-3.7109,-3.7539,-3.7969,-3.8242,-3.8242,-3.8437,-3.8574,-3.8574,-3.8574,-3.8574,-3.8574,-3.8574,-3.8574,-3.8574,-3.8574,-3.8574,-3.8574,-3.8574,-3.8574,-3.8574,-3.8574,-3.8574,-3.8574,-3.8574,-3.8574,-3.8574,-3.8574,-3.8574,-3.8574,-3.8574,-3.8574,0.0,0.0,0.0,0.0,0.0,-3.2943,0.0,0.0,0.0,0.0,0.0,0.0,0.0,0.0,0.0,0.0,0.0,0.0,0.0,0.0,0.0,0.0,0.0,0.0,0.0,-3.8392,-4.0265,-4.1643,-4.271,-4.3084,-4.2619,-4.2874,-4.2986,-4.2986,-4.2986,-4.2986,-4.2986,-4.2369,-4.211,-4.211,-4.211,-4.211,-4.211,-4.2369,-4.2513,-4.2457,-4.1834,-4.1606,-4.1631,-4.1924,-4.2038,-4.2134,-4.223,-4.2519,-4.2904,-4.2904,-4.2711,-4.2519,-4.3265,-4.3313,-4.3216,-4.4058,-4.4285,-4.4285,-4.4285,-4.3962,-4.3625,-4.4117,-4.3949,-4.3794,-4.4285,-4.4429,-4.418,-4.3088,-4.1983,-4.0691,-3.9276,-3.7945,-3.7029,-3.6966,-3.7103,-3.7344,-3.7832,-3.8281,-3.8574,-3.8574,-3.8574,-3.8574,-3.8574,-3.8574,-3.8574,-3.8574,-3.8574,-3.8574,-3.8574,-3.8574,-3.8574,-3.8574,-3.8574,-3.8574,-3.8574,-3.8574,-3.8574,-3.8574,-3.8574,-3.8574,-3.8574,-3.8574,-3.8574,-3.8574,-3.8574,-3.8574,0.0,0.0,0.0,0.0,-3.2265,0.0,0.0,0.0,0.0,0.0,0.0,0.0,0.0,0.0,0.0,0.0,0.0,0.0,0.0,0.0,0.0,0.0,0.0,0.0,0.0,-4.0056,-4.1745,-4.1875,-4.2781,-4.3223,-4.2955,-4.2986,-4.2986,-4.2986,-4.2986,-4.2986,-4.2986,-4.2369,-4.211,-4.211,-4.211,-4.211,-4.211,-4.2369,-4.2513,-4.2457,-4.1834,-4.1606,-4.1631,-4.1924,-4.2313,-4.2771,-4.3168,-4.3385,-4.3433,-4.3433,-4.3697,-4.3973,-4.3649,-4.3794,-4.4117,-4.4237,-4.4285,-4.4285,-4.4285,-4.3962,-4.3625,-4.4117,-4.4237,-4.4309,-4.4837,-4.4981,-4.4666,-4.3345,-4.1941,-4.0386,-3.8591,-3.7448,-3.6642,-3.6221,-3.6514,-3.6992,-3.7793,-3.8281,-3.8574,-3.8574,-3.8574,-3.8574,-3.8574,-3.8574,-3.8574,-3.8574,-3.8574,-3.8574,-3.8574,-3.8574,-3.8574,-3.8574,-3.8574,-3.8574,-3.8574,-3.8574,-3.8574,-3.8574,-3.8574,-3.8574,-3.8574,-3.8574,-3.8574,-3.8574,-3.8574,-3.8574,0.0,0.0,0.0,0.0,0.0,0.0,-3.3093,0.0,-3.3111,0.0,0.0,0.0,0.0,0.0,0.0,0.0,0.0,0.0,0.0,0.0,0.0,0.0,0.0,0.0,0.0,0.0,0.0,0.0,-4.2863,-4.31,-4.2986,-4.2986,-4.2986,-4.2986,-4.2986,-4.2986,-4.2986,-4.2369,-4.211,-4.211,-4.211,-4.211,-4.211,-4.2594,-4.2818,-4.2762,-4.2142,-4.1915,-4.1907,-4.1982,-4.2338,-4.2867,-4.3313,-4.3697,-4.3925,-4.3925,-4.3938,-4.3866,-4.3901,-4.3938,-4.3914,-4.4189,-4.4285,-4.4285,-4.4285,-4.3962,-4.3625,-4.4117,-4.4285,-4.4405,-4.4744,-4.4848,-4.4613,-4.3225,-4.175,-4.0277,-3.8889,-3.7797,-3.6914,-3.6484,-3.6738,-3.7148,-3.75,-3.791,-3.8281,-3.8535,-3.8574,-3.8574,-3.8574,-3.8574,-3.8574,-3.8574,-3.8574,-3.8574,-3.8574,-3.8574,-3.8574,-3.8574,-3.8574,-3.8574,-3.8574,-3.8574,-3.8574,-3.8574,-3.8574,-3.8574,-3.8574,-3.8574,-3.8574,-3.8574,-3.8574,-3.8574,-3.2039,0.0,0.0,0.0,0.0,0.0,0.0,0.0,0.0,0.0,0.0,0.0,0.0,0.0,0.0,0.0,0.0,0.0,0.0,0.0,0.0,0.0,0.0,0.0,0.0,0.0,0.0,0.0,0.0,-4.2585,-4.2735,-4.276,-4.2866,-4.2961,-4.2986,-4.2986,-4.2986,-4.2369,-4.2167,-4.2199,-4.2167,-4.2167,-4.2199,-4.2762,-4.2986,-4.2818,-4.2312,-4.2054,-4.1964,-4.1982,-4.2265,-4.2651,-4.3096,-4.3553,-4.3938,-4.4189,-4.4021,-4.3794,-4.4141,-4.4021,-4.3818,-4.4165,-4.4285,-4.4285,-4.4285,-4.4093,-4.4034,-4.4381,-4.4717,-4.4966,-4.4903,-4.4807,-4.4345,-4.2951,-4.1445,-4.0103,-3.8963,-3.8087,-3.7344,-3.6914,-3.6992,-3.7168,-3.7285,-3.7637,-3.8066,-3.8516,-3.8574,-3.8574,-3.8574,-3.8574,-3.8574,-3.8574,-3.8574,-3.8574,-3.8574,-3.8574,-3.8574,-3.8574,-3.8574,-3.8574,-3.8574,-3.8574,-3.8574,-3.8574,-3.8574,-3.8574,-3.8574,-3.8574,-3.8574,-3.8574,-3.8574,-3.8574,0.0,0.0,0.0,-3.3721,0.0,0.0,0.0,0.0,-3.3111,0.0,0.0,0.0,0.0,0.0,0.0,0.0,0.0,0.0,0.0,0.0,0.0,0.0,0.0,0.0,0.0,0.0,0.0,0.0,0.0,0.0,-4.2213,-4.2238,-4.2489,-4.2961,-4.2986,-4.2986,-4.2986,-4.2369,-4.2199,-4.2457,-4.2199,-4.2256,-4.2513,-4.2874,-4.2793,-4.2513,-4.2199,-4.1915,-4.1655,-4.1924,-4.199,-4.2062,-4.2627,-4.2867,-4.2988,-4.3962,-4.4285,-4.4261,-4.4285,-4.4261,-4.4261,-4.4285,-4.4285,-4.4285,-4.4285,-4.4621,-4.5029,-4.5053,-4.5838,-4.6436,-4.5715,-4.5053,-4.4162,-4.2764,-4.1162,-3.9713,-3.8627,-3.8094,-3.7773,-3.7363,-3.6953,-3.6816,-3.7226,-3.7637,-3.8066,-3.8516,-3.8574,-3.8574,-3.8574,-3.8574,-3.8574,-3.8574,-3.8574,-3.8574,-3.8574,-3.8574,-3.8574,-3.8574,-3.8574,-3.8574,-3.8574,-3.8574,-3.8574,-3.8574,-3.8574,-3.8574,-3.8574,-3.8574,-3.8574,-3.8574,-3.8574,-3.8574,0.0,0.0,-3.4675,-3.45,0.0,0.0,0.0,0.0,0.0,0.0,0.0,0.0,0.0,0.0,0.0,0.0,0.0,0.0,0.0,0.0,0.0,0.0,0.0,0.0,0.0,0.0,0.0,0.0,-4.0197,0.0,0.0,-4.1404,-4.1856,-4.2464,-4.2785,-4.2986,-4.2986,-4.2594,-4.2425,-4.2513,-4.2425,-4.2425,-4.2513,-4.265,-4.2625,-4.2457,-4.1948,-4.172,-4.1606,-4.1538,-4.1653,-4.2049,-4.2217,-4.2506,-4.2867,-4.3168,-4.3505,-4.3842,-4.4165,-4.4285,-4.4285,-4.4285,-4.4285,-4.4285,-4.4285,-4.4645,-4.5077,-4.5077,-4.591,-4.6508,-4.5521,-4.4796,-4.3937,-4.244,-4.0967,-3.9647,-3.9046,-3.8623,-3.8144,-3.7441,-3.7187,-3.7051,-3.6914,-3.7012,-3.7246,-3.7656,-3.7734,-3.7832,-3.8105,-3.8144,-3.8262,-3.8555,-3.8574,-3.8574,-3.8574,-3.8574,-3.8574,-3.8574,-3.8574,-3.8574,-3.8574,-3.8574,-3.8574,-3.8574,-3.8574,-3.8574,-3.8574,-3.8574,-3.8574,-3.8574,-3.8574,-3.8574,-3.4374,-3.4956,0.0,-3.5056,-3.5232,0.0,-3.4806,0.0,0.0,0.0,0.0,0.0,0.0,0.0,0.0,0.0,0.0,0.0,0.0,0.0,0.0,0.0,0.0,0.0,0.0,0.0,-3.9697,-3.9145,-3.9094,0.0,0.0,0.0,-4.1681,-4.2489,-4.2986,-4.3263,-4.3263,-4.2725,-4.2569,-4.2706,-4.2569,-4.2569,-4.2681,-4.2513,-4.2481,-4.2312,-4.1834,-4.1549,-4.1435,-4.1287,-4.1389,-4.1701,-4.1701,-4.1894,-4.2313,-4.2675,-4.3072,-4.3601,-4.4093,-4.4285,-4.4285,-4.4285,-4.4405,-4.4573,-4.4573,-4.5053,-4.5694,-4.5694,-4.6319,-4.6729,-4.5512,-4.4505,-4.3423,-4.1926,-4.0433,-3.9228,-3.903,-3.8675,-3.8184,-3.7637,-3.7285,-3.6992,-3.6719,-3.6543,-3.6641,-3.7207,-3.7305,-3.7461,-3.7871,-3.793,-3.8086,-3.8535,-3.8574,-3.8574,-3.8574,-3.8574,-3.8574,-3.8574,-3.8574,-3.8574,-3.8574,-3.8574,-3.8574,-3.8574,-3.8574,-3.8574,-3.8574,-3.8574,-3.8574,-3.8574,-3.8574,-3.8574]},{"header":{"parameterUnit":"m.s-1","parameterCategory":1,"la1":30.6,"la2":29.2853,"lo1":-89.7004,"lo2":-87.6739,"dy":0.0162,"dx":0.0183,"nx":112,"ny":82,"refTime":"2026-03-27T00:00:00:Z","depth":0,"parameterNumber":3,"parameterNumberName":"V-component_of_WINDS"},"data":[0.0,0.0,0.0,0.0,0.0,0.0,0.0,0.0,0.0,0.0,0.0,0.0,0.0,0.0,0.0,0.0,0.0,0.0,0.0,0.0,0.0,0.0,0.0,0.0,0.0,0.0,0.0,0.0,0.0,0.0,0.0,0.0,0.0,0.0,0.0,0.0,0.0,0.0,0.0,0.0,0.0,0.0,0.0,0.0,0.0,0.0,0.0,0.0,0.0,0.0,0.0,0.0,0.0,0.0,0.0,0.0,0.0,0.0,0.0,0.0,0.0,0.0,0.0,0.0,0.0,0.0,0.0,0.0,0.0,0.0,0.0,0.0,0.0,0.0,0.0,0.0,0.0,0.0,0.0,0.0,0.0,0.0,0.0,0.0,0.0,0.0,0.0,0.0,0.0,0.0,2.1101,2.266,2.4308,2.4957,2.4329,2.3768,2.2939,2.1762,0.0,0.0,0.0,0.0,0.0,0.0,0.0,0.0,0.0,0.0,0.0,0.0,0.0,0.0,0.0,0.0,0.0,0.0,0.0,0.0,0.0,0.0,0.0,0.0,0.0,0.0,0.0,0.0,0.0,0.0,0.0,0.0,0.0,0.0,0.0,0.0,0.0,0.0,0.0,0.0,0.0,0.0,0.0,0.0,0.0,0.0,0.0,0.0,0.0,0.0,0.0,0.0,0.0,0.0,0.0,0.0,0.0,0.0,0.0,0.0,0.0,0.0,0.0,0.0,0.0,0.0,0.0,0.0,0.0,0.0,0.0,0.0,0.0,0.0,0.0,0.0,0.0,0.0,0.0,0.0,0.0,0.0,0.0,0.0,0.0,0.0,0.0,0.0,0.0,0.0,0.0,0.0,0.0,0.0,0.0,0.0,0.0,0.0,0.0,0.0,0.0,0.0,0.0,0.0,2.2614,2.4566,2.5437,2.5478,2.4636,2.4262,2.346,2.2017,0.0,0.0,0.0,0.0,0.0,0.0,0.0,0.0,0.0,0.0,0.0,0.0,0.0,0.0,0.0,0.0,0.0,0.0,0.0,0.0,0.0,0.0,0.0,0.0,0.0,0.0,0.0,0.0,0.0,0.0,0.0,0.0,0.0,0.0,0.0,0.0,0.0,0.0,0.0,0.0,0.0,0.0,0.0,0.0,0.0,0.0,0.0,0.0,0.0,0.0,0.0,0.0,0.0,0.0,0.0,0.0,0.0,0.0,0.0,0.0,0.0,0.0,0.0,0.0,0.0,0.0,0.0,0.0,0.0,0.0,0.0,0.0,0.0,0.0,0.0,0.0,0.0,0.0,0.0,0.0,0.0,0.0,0.0,0.0,0.0,0.0,0.0,0.0,0.0,0.0,0.0,0.0,0.0,0.0,0.0,0.0,0.0,0.0,0.0,0.0,0.0,0.0,0.0,2.3985,2.5186,2.6097,2.6852,2.696,2.5943,2.5438,2.4442,2.2693,2.1196,0.0,0.0,0.0,0.0,0.0,0.0,0.0,0.0,0.0,0.0,0.0,0.0,0.0,0.0,0.0,0.0,0.0,0.0,0.0,0.0,0.0,0.0,0.0,0.0,0.0,0.0,0.0,0.0,0.0,0.0,0.0,0.0,0.0,0.0,0.0,0.0,0.0,0.0,0.0,0.0,0.0,0.0,0.0,0.0,0.0,0.0,0.0,0.0,0.0,0.0,0.0,0.0,0.0,0.0,0.0,0.0,0.0,0.0,0.0,0.0,0.0,0.0,0.0,0.0,0.0,0.0,0.0,0.0,0.0,0.0,0.0,0.0,0.0,0.0,0.0,0.0,0.0,0.0,0.0,0.0,0.0,0.0,0.0,0.0,0.0,0.0,0.0,0.0,0.0,0.0,0.0,0.0,0.0,0.0,0.0,0.0,0.0,0.0,0.0,0.0,0.0,0.0,2.6867,2.8013,2.8137,2.8942,2.8988,2.7813,2.6989,2.5659,2.3623,2.1824,0.0,0.0,0.0,0.0,0.0,0.0,0.0,0.0,0.0,0.0,0.0,0.0,0.0,0.0,0.0,0.0,0.0,0.0,0.0,0.0,0.0,0.0,0.0,0.0,0.0,0.0,0.0,0.0,0.0,0.0,0.0,0.0,0.0,0.0,0.0,0.0,0.0,0.0,0.0,0.0,0.0,0.0,0.0,0.0,0.0,0.0,0.0,0.0,0.0,0.0,0.0,0.0,0.0,0.0,0.0,0.0,0.0,0.0,0.0,0.0,0.0,0.0,0.0,0.0,0.0,0.0,0.0,0.0,0.0,0.0,0.0,0.0,0.0,0.0,0.0,0.0,0.0,0.0,0.0,0.0,0.0,0.0,0.0,0.0,0.0,0.0,0.0,0.0,0.0,0.0,0.0,0.0,0.0,0.0,0.0,0.0,0.0,0.0,0.0,0.0,0.0,0.0,2.9732,3.086,3.1559,3.201,3.1579,3.0014,2.8871,2.7194,2.4796,2.2296,0.0,0.0,0.0,0.0,0.0,0.0,0.0,0.0,0.0,0.0,0.0,0.0,0.0,0.0,0.0,0.0,0.0,0.0,0.0,0.0,0.0,0.0,0.0,0.0,0.0,0.0,0.0,0.0,0.0,0.0,0.0,0.0,0.0,0.0,0.0,0.0,0.0,0.0,0.0,0.0,0.0,0.0,0.0,0.0,0.0,0.0,0.0,0.0,0.0,0.0,0.0,0.0,0.0,0.0,0.0,0.0,0.0,0.0,0.0,0.0,0.0,0.0,0.0,0.0,0.0,0.0,0.0,0.0,0.0,0.0,0.0,0.0,0.0,0.0,0.0,0.0,0.0,0.0,0.0,0.0,0.0,0.0,0.0,0.0,0.0,0.0,0.0,0.0,0.0,0.0,0.0,0.0,0.0,0.0,0.0,0.0,0.0,0.0,0.0,0.0,0.0,0.0,3.0786,3.2141,0.0,3.3033,3.2753,3.1391,3.0188,2.8473,2.6044,0.0,0.0,0.0,0.0,0.0,0.0,0.0,0.0,0.0,0.0,0.0,0.0,0.0,0.0,0.0,0.0,0.0,0.0,0.0,0.0,0.0,0.0,0.0,0.0,0.0,0.0,0.0,0.0,0.0,0.0,0.0,0.0,0.0,0.0,0.0,0.0,0.0,0.0,0.0,0.0,0.0,0.0,0.0,0.0,0.0,0.0,0.0,0.0,0.0,0.0,0.0,0.0,0.0,0.0,0.0,0.0,0.0,0.0,0.0,0.0,0.0,0.0,0.0,0.0,0.0,0.0,0.0,0.0,0.0,0.0,0.0,0.0,0.0,0.0,0.0,0.0,0.0,0.0,0.0,0.0,0.0,0.0,0.0,0.0,0.0,0.0,0.0,0.0,0.0,0.0,0.0,0.0,0.0,0.0,0.0,0.0,0.0,0.0,0.0,0.0,0.0,0.0,3.0254,3.2189,3.3569,0.0,3.4518,3.428,3.2947,3.1851,3.0067,2.7404,0.0,0.0,0.0,0.0,0.0,0.0,0.0,0.0,0.0,0.0,0.0,0.0,0.0,0.0,0.0,0.0,0.0,0.0,0.0,0.0,0.0,0.0,0.0,0.0,0.0,0.0,0.0,0.0,0.0,0.0,0.0,0.0,0.0,0.0,0.0,0.0,0.0,0.0,0.0,0.0,0.0,0.0,0.0,0.0,0.0,0.0,0.0,0.0,0.0,0.0,0.0,0.0,0.0,0.0,0.0,0.0,0.0,0.0,0.0,0.0,0.0,0.0,0.0,0.0,0.0,0.0,0.0,0.0,0.0,0.0,0.0,0.0,0.0,0.0,0.0,0.0,0.0,0.0,0.0,0.0,0.0,0.0,0.0,0.0,0.0,0.0,0.0,0.0,0.0,0.0,0.0,0.0,0.0,0.0,0.0,0.0,0.0,0.0,0.0,0.0,0.0,0.0,3.1994,3.4043,3.5547,3.5976,3.6777,3.6582,3.4844,3.3906,3.208,0.0,0.0,0.0,0.0,0.0,0.0,0.0,0.0,0.0,0.0,0.0,0.0,0.0,0.0,0.0,0.0,0.0,0.0,0.0,0.0,0.0,0.0,0.0,0.0,0.0,0.0,0.0,0.0,0.0,0.0,0.0,0.0,0.0,0.0,0.0,0.0,0.0,0.0,0.0,0.0,0.0,0.0,0.0,0.0,0.0,0.0,0.0,0.0,0.0,0.0,0.0,0.0,0.0,0.0,0.0,0.0,0.0,0.0,0.0,0.0,0.0,0.0,0.0,0.0,0.0,0.0,0.0,0.0,0.0,0.0,0.0,0.0,0.0,0.0,0.0,0.0,0.0,0.0,0.0,0.0,0.0,0.0,0.0,0.0,0.0,0.0,0.0,0.0,0.0,0.0,0.0,0.0,0.0,0.0,0.0,0.0,0.0,0.0,0.0,0.0,0.0,0.0,0.0,3.1445,3.3574,3.5078,3.5527,3.5801,3.5605,3.4766,3.3633,3.1947,2.9642,0.0,0.0,0.0,0.0,0.0,0.0,0.0,0.0,0.0,0.0,0.0,0.0,0.0,0.0,0.0,0.0,0.0,0.0,0.0,0.0,0.0,0.0,0.0,0.0,0.0,0.0,0.0,0.0,0.0,0.0,0.0,0.0,0.0,0.0,0.0,0.0,0.0,0.0,0.0,0.0,0.0,0.0,0.0,0.0,0.0,0.0,0.0,0.0,0.0,0.0,0.0,0.0,0.0,0.0,0.0,0.0,0.0,0.0,0.0,0.0,0.0,0.0,0.0,0.0,0.0,0.0,0.0,0.0,0.0,0.0,0.0,0.0,0.0,0.0,0.0,0.0,0.0,0.0,0.0,0.0,0.0,0.0,0.0,0.0,0.0,0.0,0.0,0.0,0.0,0.0,0.0,0.0,0.0,0.0,0.0,0.0,0.0,0.0,0.0,0.0,0.0,0.0,3.1327,3.35,3.4942,3.5218,3.5574,3.5514,3.4882,3.4195,3.2728,3.0466,0.0,0.0,0.0,0.0,0.0,0.0,0.0,0.0,0.0,0.0,0.0,0.0,0.0,0.0,0.0,0.0,0.0,0.0,0.0,0.0,0.0,0.0,0.0,0.0,0.0,0.0,0.0,0.0,0.0,0.0,0.0,0.0,0.0,0.0,0.0,0.0,0.0,0.0,0.0,0.0,0.0,0.0,0.0,0.0,0.0,0.0,0.0,0.0,0.0,0.0,0.0,0.0,0.0,0.0,0.0,0.0,0.0,0.0,0.0,0.0,0.0,0.0,0.0,0.0,0.0,0.0,0.0,0.0,0.0,0.0,0.0,0.0,0.0,0.0,0.0,0.0,0.0,0.0,0.0,0.0,0.0,0.0,0.0,0.0,0.0,0.0,0.0,0.0,0.0,0.0,0.0,0.0,0.0,0.0,0.0,0.0,0.0,0.0,0.0,0.0,0.0,0.0,3.1677,3.3862,3.5237,3.5278,3.6006,3.6127,3.5298,3.5217,3.4084,3.1398,0.0,0.0,0.0,0.0,0.0,0.0,0.0,0.0,0.0,0.0,0.0,0.0,0.0,0.0,0.0,0.0,0.0,0.0,0.0,0.0,0.0,0.0,0.0,0.0,0.0,0.0,0.0,0.0,0.0,0.0,0.0,0.0,0.0,0.0,0.0,0.0,0.0,0.0,0.0,0.0,0.0,0.0,0.0,0.0,0.0,0.0,0.0,0.0,0.0,0.0,0.0,0.0,0.0,0.0,0.0,0.0,0.0,0.0,0.0,0.0,3.1222,0.0,0.0,0.0,0.0,0.0,0.0,0.0,0.0,0.0,0.0,0.0,0.0,0.0,0.0,0.0,0.0,0.0,0.0,0.0,0.0,0.0,0.0,0.0,0.0,0.0,0.0,0.0,0.0,0.0,0.0,0.0,0.0,0.0,0.0,0.0,0.0,0.0,0.0,0.0,0.0,0.0,3.2903,3.484,3.6184,3.6519,3.675,3.6645,3.61,3.6098,3.5008,3.2294,3.1212,0.0,0.0,0.0,0.0,0.0,0.0,0.0,0.0,0.0,0.0,0.0,0.0,0.0,0.0,0.0,0.0,0.0,0.0,0.0,0.0,0.0,0.0,0.0,0.0,0.0,0.0,0.0,0.0,0.0,0.0,0.0,0.0,0.0,0.0,0.0,0.0,0.0,0.0,0.0,0.0,0.0,0.0,0.0,0.0,0.0,0.0,0.0,0.0,0.0,0.0,0.0,0.0,0.0,0.0,0.0,0.0,0.0,0.0,0.0,0.0,3.2849,0.0,0.0,0.0,0.0,0.0,0.0,0.0,0.0,0.0,0.0,0.0,0.0,0.0,0.0,0.0,0.0,0.0,0.0,0.0,0.0,0.0,0.0,0.0,0.0,0.0,0.0,0.0,0.0,0.0,0.0,0.0,0.0,0.0,0.0,0.0,0.0,0.0,0.0,0.0,0.0,3.4173,3.6126,3.7367,3.767,3.8133,3.8111,3.7345,3.7339,3.6391,3.4054,3.2968,0.0,0.0,0.0,0.0,0.0,0.0,0.0,0.0,0.0,0.0,0.0,0.0,0.0,0.0,0.0,0.0,0.0,0.0,0.0,0.0,0.0,0.0,0.0,0.0,0.0,0.0,0.0,0.0,0.0,0.0,0.0,0.0,0.0,0.0,0.0,0.0,0.0,0.0,0.0,0.0,0.0,0.0,0.0,0.0,0.0,0.0,0.0,0.0,0.0,0.0,0.0,0.0,0.0,3.9229,3.951,3.9218,3.9627,3.9891,3.9888,3.7548,3.6452,3.6297,3.5862,0.0,0.0,0.0,0.0,0.0,0.0,0.0,0.0,0.0,0.0,0.0,0.0,0.0,0.0,0.0,0.0,0.0,0.0,0.0,0.0,0.0,0.0,0.0,0.0,3.8505,3.8125,0.0,0.0,0.0,0.0,0.0,0.0,0.0,0.0,0.0,0.0,0.0,0.0,3.5392,3.7336,3.8481,3.8574,3.9336,3.9451,3.8527,3.8527,3.7844,3.6001,3.4901,3.3433,0.0,0.0,0.0,0.0,0.0,0.0,0.0,0.0,0.0,0.0,0.0,0.0,0.0,0.0,0.0,0.0,0.0,0.0,0.0,0.0,0.0,0.0,0.0,0.0,0.0,0.0,0.0,0.0,0.0,0.0,0.0,0.0,3.6972,3.7527,0.0,0.0,0.0,0.0,0.0,0.0,0.0,0.0,0.0,0.0,0.0,0.0,0.0,3.941,3.9834,4.049,4.1259,4.2147,4.2292,4.282,4.3612,4.3289,4.3458,4.4075,4.3549,0.0,3.9235,3.9139,0.0,0.0,0.0,0.0,0.0,0.0,0.0,0.0,0.0,0.0,0.0,0.0,0.0,0.0,0.0,0.0,0.0,0.0,0.0,0.0,0.0,0.0,4.0236,4.1331,4.1637,4.1559,0.0,3.8825,3.6648,3.6047,3.4654,0.0,0.0,0.0,0.0,0.0,0.0,0.0,3.6637,3.7971,3.8823,3.9332,3.9443,3.93,3.8704,3.9062,3.8823,3.7501,3.6806,3.5625,3.3742,3.2793,0.0,0.0,0.0,0.0,0.0,0.0,0.0,0.0,0.0,0.0,0.0,0.0,0.0,0.0,0.0,0.0,0.0,0.0,0.0,0.0,0.0,0.0,0.0,0.0,0.0,0.0,0.0,0.0,0.0,3.8206,3.9241,3.9783,3.9635,3.9266,0.0,0.0,0.0,0.0,0.0,0.0,0.0,0.0,0.0,4.1747,4.2599,4.3325,4.3876,4.4694,4.5345,4.5845,4.6445,4.6845,4.7045,4.7095,4.7157,4.723,4.7439,4.6547,4.4803,4.2487,4.0874,3.9775,0.0,0.0,0.0,0.0,3.9905,4.0671,4.1362,4.1183,0.0,4.0166,0.0,0.0,0.0,0.0,0.0,0.0,0.0,0.0,0.0,0.0,0.0,4.331,4.3516,4.3562,4.3401,4.1605,3.9792,0.0,3.7691,3.6241,3.449,0.0,0.0,0.0,0.0,3.5347,3.7792,3.9287,4.0259,4.0508,4.1081,4.1106,4.0234,4.0657,4.0508,3.936,3.936,3.8515,3.6368,3.6235,3.5219,0.0,0.0,0.0,0.0,0.0,0.0,0.0,0.0,0.0,0.0,0.0,0.0,0.0,0.0,0.0,0.0,0.0,0.0,0.0,0.0,0.0,0.0,0.0,0.0,0.0,0.0,0.0,0.0,4.0565,4.1557,4.191,4.2141,4.1861,0.0,0.0,0.0,0.0,0.0,0.0,4.2969,4.3905,4.471,4.5308,4.6295,4.7022,4.7406,4.8332,4.8902,4.9058,4.9887,5.0172,4.9939,5.0354,5.0302,4.9965,5.0354,5.0224,4.9402,4.58,4.3647,4.2476,4.0778,4.0395,4.0816,4.1077,4.1977,4.3061,4.3707,4.3851,4.3625,4.3176,0.0,4.0977,4.073,0.0,0.0,0.0,0.0,4.2304,4.2988,4.4374,4.5516,4.5099,4.5183,4.5258,4.472,4.3564,4.2317,0.0,3.9952,3.8463,3.6462,0.0,0.0,0.0,0.0,3.6647,3.8748,4.026,4.108,4.108,4.2003,4.2182,4.1157,4.1772,4.1824,4.0978,4.1389,4.0721,3.8794,3.912,3.8032,3.5383,0.0,0.0,0.0,0.0,0.0,0.0,0.0,0.0,0.0,0.0,0.0,0.0,0.0,0.0,0.0,0.0,0.0,0.0,0.0,0.0,0.0,0.0,0.0,0.0,0.0,0.0,0.0,0.0,0.0,4.386,4.4357,0.0,0.0,0.0,0.0,4.4124,4.5555,4.6677,4.7157,4.78,4.8359,4.8946,4.9529,4.9876,4.9903,5.0457,5.1043,5.1542,5.1595,5.1915,5.2385,5.2474,5.2412,5.2385,5.2474,5.2154,5.1368,4.8868,4.7197,4.6078,4.4335,4.3669,4.3749,4.4077,4.4575,4.5171,4.6021,4.6339,4.6195,4.5545,4.4532,4.3539,4.3511,4.3076,0.0,0.0,4.3888,4.4603,4.5765,4.6982,4.7785,4.7201,4.7149,4.6973,4.5822,4.4625,4.3491,0.0,4.0798,3.9285,3.8056,0.0,3.6359,3.6975,3.7103,3.7745,3.9464,4.0158,4.0542,4.0542,4.1132,4.1235,4.0594,4.1542,4.2157,4.2106,4.2106,4.1749,4.0818,4.0546,3.9402,3.7307,3.6917,0.0,0.0,0.0,0.0,0.0,0.0,0.0,0.0,0.0,0.0,0.0,0.0,0.0,0.0,0.0,0.0,0.0,0.0,0.0,0.0,0.0,0.0,0.0,0.0,0.0,0.0,0.0,0.0,4.781,4.8818,0.0,4.8054,4.8128,4.8259,4.8452,5.0187,5.1322,5.1516,5.2875,5.3483,5.3232,5.384,5.3948,5.3502,5.3696,5.3917,5.4079,5.4079,5.4189,5.441,5.441,5.441,5.441,5.441,5.4272,5.3968,5.2264,5.0286,4.8078,4.6312,4.5947,4.6402,4.6166,4.6754,4.7747,4.8099,4.8433,4.8625,4.794,4.7096,4.6339,4.6339,4.6212,4.6068,4.6253,4.6771,4.73,4.7712,4.8488,4.905,4.8624,4.8139,4.7498,4.6507,4.5291,4.4111,4.3293,4.2154,4.0813,3.9284,3.8661,3.8371,3.8215,3.8527,3.9099,4.0011,4.0659,4.1023,4.1023,4.1567,4.1826,4.1619,4.2268,4.2709,4.2709,4.3099,4.284,4.17,4.2572,4.1995,3.9714,3.9408,3.8394,0.0,0.0,0.0,0.0,0.0,0.0,0.0,0.0,0.0,0.0,0.0,0.0,0.0,0.0,0.0,0.0,0.0,0.0,0.0,0.0,0.0,0.0,0.0,0.0,0.0,0.0,4.9718,5.0836,5.2042,5.2434,5.1504,5.1689,5.185,5.185,5.3829,5.4938,5.4654,5.6251,5.682,5.6165,5.6506,5.6476,5.605,5.605,5.605,5.605,5.605,5.605,5.605,5.605,5.605,5.605,5.605,5.605,5.5964,5.4685,5.3023,5.1068,4.9118,4.8654,4.9064,4.8708,4.9173,5.0023,5.0243,5.0347,5.0456,5.0162,4.9582,4.8958,4.8958,4.8958,4.8958,4.8958,4.9298,4.9669,4.9669,5.0217,5.0659,5.0086,4.9366,4.8524,4.7553,4.5909,4.4642,4.4449,4.3517,4.2216,4.068,4.0574,4.0494,3.9885,4.015,4.06,4.1183,4.1607,4.1925,4.2137,4.2666,4.301,4.3061,4.3726,4.399,4.3542,4.4123,4.401,4.2932,4.4075,4.3677,4.1395,4.0336,3.9183,3.7973,0.0,0.0,0.0,0.0,0.0,0.0,0.0,0.0,0.0,0.0,0.0,0.0,0.0,0.0,0.0,0.0,0.0,0.0,0.0,0.0,0.0,0.0,0.0,4.8154,5.0303,5.2096,5.2812,5.3987,5.4558,5.3984,5.4169,5.4331,5.4331,5.6316,5.7241,5.6601,5.7736,5.8085,5.7389,5.736,5.736,5.733,5.736,5.736,5.736,5.736,5.736,5.736,5.736,5.736,5.736,5.736,5.736,5.7272,5.5994,5.5471,5.5217,5.2727,5.1757,5.1757,5.1757,5.1757,5.1866,5.2405,5.2156,5.1628,5.2188,5.1873,5.1229,5.1229,5.1199,5.1199,5.1199,5.1356,5.1512,5.1588,5.2241,5.2667,5.1506,5.0733,4.9974,4.8883,4.6667,4.5075,4.5692,4.4809,4.3563,4.229,4.2589,4.278,4.2154,4.21,0.0,4.2867,4.2922,4.3215,4.3813,4.4307,4.466,4.4765,4.5774,4.5858,4.4742,4.5153,4.5189,4.4449,4.4953,4.4273,4.231,3.9661,3.8306,3.8352,0.0,0.0,0.0,0.0,0.0,0.0,0.0,0.0,0.0,0.0,0.0,0.0,0.0,0.0,0.0,0.0,0.0,0.0,0.0,0.0,0.0,4.7654,4.9037,5.0793,5.2842,5.5042,5.7113,5.809,5.8711,5.9037,5.9122,5.9177,5.9177,6.0182,6.0535,5.9852,6.0123,5.9796,5.8639,5.8609,5.8372,5.7897,5.8372,5.8609,5.8609,5.8609,5.8609,5.8609,5.8609,5.8609,5.8609,5.8609,5.8609,5.8491,5.7155,5.6621,5.6367,5.3965,5.2996,5.2996,5.2996,5.2996,5.3049,5.3419,5.2939,5.2188,5.2566,5.2018,5.1229,5.1229,5.0853,5.0511,5.0695,5.0472,5.0321,5.0986,5.1349,5.1562,5.1727,5.0979,4.9994,4.9202,4.7815,4.6661,4.6384,4.6657,4.6262,4.4256,4.4646,4.4864,4.3807,4.4143,0.0,4.42,4.4097,4.4396,4.506,4.5092,4.547,4.6361,4.6284,4.6011,4.5629,4.5302,4.4634,4.3466,4.4807,4.5038,4.395,4.1829,4.0337,0.0,0.0,0.0,0.0,0.0,0.0,0.0,0.0,0.0,0.0,0.0,0.0,0.0,0.0,0.0,0.0,0.0,0.0,0.0,0.0,0.0,0.0,5.0242,5.1875,5.3562,5.4836,5.6466,5.883,5.9668,6.0356,6.1044,6.1104,6.1104,6.1104,6.1732,6.1672,6.0745,6.0685,6.0206,5.9129,5.883,5.865,5.853,5.8919,5.9099,5.9099,5.9099,5.9099,5.9099,5.9099,5.9099,0.0,5.9099,5.8949,5.862,5.7543,5.6944,0.0,0.0,0.0,0.0,0.0,5.4178,5.4259,5.4385,5.368,5.2763,5.2911,5.2258,5.1309,5.1009,5.0515,5.0035,4.9913,4.9502,4.9257,5.0056,5.0371,5.0642,5.1314,5.0725,4.9896,4.9472,4.8407,4.7602,4.7826,4.8222,0.0,4.7166,4.6893,4.6415,4.5252,4.5505,4.5683,4.5417,4.5298,4.5511,4.6142,4.6271,4.6614,4.7279,4.725,0.0,0.0,0.0,4.4835,4.3719,4.434,0.0,0.0,0.0,0.0,0.0,0.0,0.0,0.0,4.0055,4.0487,0.0,0.0,0.0,0.0,0.0,0.0,0.0,0.0,0.0,0.0,0.0,0.0,0.0,0.0,0.0,0.0,5.2725,5.479,5.6196,5.6466,5.7214,5.9099,5.9847,6.0505,6.1253,6.1343,6.1343,6.1343,6.1882,6.1613,6.0266,0.0,0.0,0.0,0.0,5.8411,5.8979,5.9069,5.9099,5.9099,5.9099,5.9099,5.9099,5.9153,5.9153,5.9153,5.9093,5.8704,5.8105,5.7408,5.6719,5.6089,5.5469,5.5179,5.5179,5.5179,5.5179,5.5179,5.5179,0.0,0.0,5.3223,5.2467,5.1482,5.0925,5.0426,4.9893,4.9239,4.873,4.8534,4.9188,4.9512,4.9866,5.0543,5.0174,4.9682,4.9682,4.8635,4.8081,4.9312,4.9408,4.9451,4.9983,4.9014,4.7787,4.6696,4.6535,4.6594,4.6697,4.6521,4.6682,4.7284,0.0,0.0,4.794,4.8512,4.8045,4.6178,4.5857,4.542,4.479,4.3945,4.3908,4.474,4.3243,4.2781,4.3396,4.2879,4.3183,4.4248,4.297,4.2596,0.0,0.0,0.0,0.0,0.0,0.0,0.0,0.0,0.0,0.0,0.0,0.0,0.0,0.0,0.0,5.3234,5.4311,5.5628,5.7483,5.8201,5.9069,6.0535,6.0835,6.1373,6.26,6.269,6.269,6.269,6.281,6.2301,6.0984,6.0386,5.9548,5.8351,5.8201,5.8171,5.8321,5.883,5.9099,5.9099,0.0,0.0,5.9099,5.9315,5.9422,5.9392,5.9063,5.8866,5.8654,5.7414,5.6587,5.5962,5.5441,5.5179,5.5179,5.5179,5.5179,5.5179,5.5179,5.4311,5.3223,5.3447,5.264,5.1618,5.1682,5.1289,0.0,5.0157,4.9573,4.92,4.9524,4.9639,4.9866,5.0543,5.0174,4.9682,4.9682,4.9035,4.8512,4.8758,4.9071,4.9145,4.876,4.9607,4.993,4.8662,4.8581,4.8498,4.7995,4.7934,4.8165,4.8819,4.9265,4.9524,4.9494,4.9644,4.9147,4.7671,4.6075,4.5333,4.5716,4.5042,4.508,4.595,4.5624,4.562,4.5901,4.63,4.6361,4.6054,4.51,4.5581,0.0,0.0,0.0,0.0,0.0,0.0,0.0,0.0,0.0,0.0,0.0,5.072,5.072,0.0,5.3922,5.4581,5.5807,5.7124,5.8441,5.9567,6.0491,6.1044,6.1403,6.2002,6.2989,6.3079,6.2929,6.26,6.26,6.2002,6.0685,5.9967,5.9279,5.865,5.8291,5.8291,5.862,5.8949,5.9099,5.9099,5.9099,5.9153,5.9285,5.9091,5.907,5.9146,5.8637,5.8204,5.781,5.6859,5.6252,5.5979,5.5681,5.5581,5.5581,5.5581,5.5581,5.5581,5.5581,5.4707,5.364,5.3736,5.297,5.1926,5.1683,5.1269,5.0761,5.0143,4.9481,4.9094,4.9589,4.9435,4.9312,5.002,4.9651,4.9158,4.9158,4.8881,4.8727,4.9097,4.9351,4.9512,4.9481,5.0253,5.0337,4.8877,4.8748,4.8711,4.8499,4.8385,4.8424,4.8791,4.9217,4.9361,4.8997,4.8663,4.8207,4.7551,4.6244,4.5667,4.6001,4.5778,4.5868,4.6284,4.6404,4.6524,4.6603,4.6942,4.7096,4.7096,4.6975,4.7119,0.0,0.0,0.0,0.0,0.0,0.0,0.0,5.069,5.0571,5.1079,5.2157,5.2965,5.2965,5.4401,5.5598,5.5748,5.7214,5.853,5.9189,6.0691,6.1558,6.1216,6.1815,6.2532,6.3192,6.3194,6.2924,6.2235,6.2148,6.1493,6.0146,5.9632,5.9273,5.9153,5.8697,5.8751,5.9261,5.9261,5.9261,5.9261,5.9261,5.9308,5.9372,5.8882,5.8737,5.8763,5.8145,5.7527,5.6827,5.6389,5.6176,5.6176,5.6176,5.6176,5.6127,5.6028,5.5979,5.5979,5.5979,5.5098,5.3975,5.407,5.3267,5.2215,5.1709,5.1366,5.0944,5.0266,4.9651,4.9312,4.9774,4.9343,4.8974,4.9558,4.9127,4.8604,4.8604,4.8604,4.8789,4.9374,4.9466,4.9651,5.0205,5.0297,4.9916,4.8764,4.8569,4.858,4.8593,4.8469,4.8385,4.8385,4.8828,4.8913,4.8377,4.7707,4.7311,4.7311,4.6823,4.6458,4.6336,4.662,4.6701,4.6578,4.6831,4.7004,4.7004,4.7004,4.7281,4.7804,4.8358,4.8112,4.6113,4.7881,5.0136,5.0883,5.2456,5.3773,0.0,5.4162,5.4551,5.461,5.5209,5.5718,5.5718,5.6346,5.7094,5.7693,5.8471,5.9219,5.9877,6.1383,6.2152,6.1524,6.2289,6.3152,6.3819,6.3652,6.318,6.2487,6.2232,6.1493,6.0146,6.0216,6.0078,5.9476,5.966,5.9819,5.988,5.988,5.988,5.988,5.988,5.9577,5.894,5.9192,5.898,5.8451,5.8028,5.7451,5.6805,5.6744,5.6713,5.6713,5.6713,5.6713,5.6664,5.6176,5.5979,5.5979,5.5979,5.5098,5.4023,5.4229,5.336,5.2321,5.2471,5.2499,5.2359,5.1652,5.1436,5.1251,5.0728,5.0082,4.9589,4.9682,4.9127,4.8604,4.8604,4.8604,4.8635,4.8727,4.8727,4.8758,4.882,4.885,4.9004,4.9455,4.9516,4.9301,4.8696,4.8563,4.8563,4.8563,4.9209,4.9608,4.9547,4.8828,4.8429,4.8429,4.8337,4.803,4.7446,4.804,4.8071,4.7455,4.8081,4.8389,4.8389,4.8389,4.8419,4.8512,4.8573,4.8881,4.7999,4.9628,5.1618,5.2695,5.4431,5.5987,5.6406,5.6705,5.7004,5.7393,5.7992,5.8321,5.7962,5.8411,5.8919,0.0,5.9847,6.0505,6.1164,6.2513,6.3127,6.2375,6.2665,6.289,6.2779,6.2893,6.2513,6.1428,6.1451,6.098,5.9795,5.9844,5.9885,5.9773,5.9933,6.0016,6.0016,6.0016,6.0016,5.9986,5.9591,5.9279,5.9183,5.8522,5.794,5.7445,5.7315,5.7087,5.681,5.681,5.681,5.681,5.681,5.681,5.6761,5.6567,5.647,5.647,5.647,5.5582,5.4402,5.4543,5.3622,5.2563,5.2653,5.2698,5.2637,5.2359,5.2298,5.2236,5.1959,5.1067,5.0266,5.0266,4.9435,4.8604,4.8604,4.8604,4.8604,4.8604,4.8604,4.8604,4.8604,4.8604,4.8727,4.9004,4.9066,4.8943,4.8666,4.8604,4.8604,4.8604,4.8881,4.9066,4.9066,4.8789,4.8604,4.8604,4.8604,4.8481,4.8204,4.845,4.8481,4.8204,4.8481,4.882,4.9251,4.9251,4.9251,4.9251,4.9251,4.9189,4.9689,5.1109,5.2845,5.4371,5.6196,5.7842,5.8501,5.88,5.9039,5.9308,5.9608,5.9668,5.9189,5.9338,5.9668,6.0027,6.0655,6.1343,6.2115,6.323,6.3715,6.2889,6.2625,6.2234,6.1409,6.2026,6.1982,6.0832,6.1102,6.0866,5.9727,5.969,5.9849,6.0092,6.0197,6.0197,6.0197,6.0197,6.0106,5.9923,5.9405,5.9082,5.894,5.7725,5.7027,5.681,5.681,5.681,5.681,5.681,5.681,5.681,5.681,5.6686,5.6532,5.6532,5.6656,5.6779,5.6594,5.5715,5.4652,5.4468,5.3652,5.2698,5.2698,5.2698,5.2698,5.2698,5.2698,5.2698,5.2698,5.1713,5.0697,5.0697,4.962,4.8604,4.8604,4.8604,4.8604,4.8604,4.8604,4.8604,4.8604,4.8604,4.8604,4.8604,4.8604,4.8604,4.8604,4.8604,4.8604,4.8604,4.8604,4.8696,4.8881,4.8727,4.8696,4.8881,4.8727,4.8604,4.8604,4.882,4.8912,4.8912,4.9097,4.9435,4.9959,4.9959,4.9959,4.9959,4.9774,4.9404,5.0631,5.2127,5.3623,5.5628,5.7603,5.9219,5.9877,6.0535,6.0835,6.0176,5.9548,5.9129,5.9099,5.859,5.859,5.9877,6.0655,6.1425,6.2337,6.3369,6.3619,6.2554,6.2058,6.1317,0.0,6.14,6.2096,6.1447,6.1758,6.1413,6.0077,6.025,6.0377,6.0377,6.0638,6.0794,6.0794,6.0794,6.0455,5.9839,5.9809,5.9101,5.7808,5.71,5.684,5.681,5.681,5.681,5.681,5.681,5.681,5.681,5.681,5.6378,5.5715,5.5715,5.6224,5.6717,5.5961,5.5284,5.456,5.3914,5.3283,5.2698,5.2698,5.2698,5.2698,5.2698,5.2698,5.2698,5.2698,5.1713,5.0697,5.0697,4.962,4.8604,4.8604,4.8604,4.8604,4.8604,4.8604,4.8604,4.8604,4.8604,4.8604,4.8604,4.8604,4.8604,4.8604,4.8604,4.8604,4.8604,4.8604,4.8881,4.9589,4.9004,4.8912,4.962,4.9004,4.8604,4.8604,4.9281,4.9651,4.9651,5.0297,5.0636,5.0667,5.0667,5.0667,5.0636,4.9989,4.9682,5.1439,5.3773,5.6047,5.7184,5.9308,6.1164,6.1373,6.1942,6.2241,6.1553,6.0535,5.9757,5.9757,5.9381,5.9308,6.021,6.1459,6.241,6.2733,6.3619,6.3812,6.2524,6.2028,0.0,0.0,0.0,0.0,6.0071,6.0418,6.0495,6.025,6.0324,6.0481,6.0638,6.0742,6.0794,6.0794,6.0363,6.0024,5.9778,5.8885,5.8011,5.7148,5.6902,5.681,5.681,5.681,5.681,5.681,5.681,5.681,5.6748,5.6238,5.5899,5.5653,5.5222,5.5191,5.5376,5.513,5.4607,5.3976,5.376,5.3283,5.2698,5.2698,5.2698,5.2698,5.2698,5.239,5.2052,5.2052,5.1036,5.002,5.002,4.9312,4.8604,4.8604,4.8974,4.9312,4.9312,4.9312,4.9312,4.9312,4.8943,4.8604,4.8604,4.8604,4.8604,4.8604,4.8604,4.8789,4.9281,4.9312,4.9435,4.9651,4.9466,4.922,4.9004,4.8758,4.8604,4.8604,4.9312,4.9682,4.9682,5.0499,5.1227,5.1821,5.1821,5.1821,5.1821,5.1401,5.0684,5.3114,5.5508,5.7752,5.889,6.0655,6.2151,6.2391,6.278,6.275,6.1613,6.0326,5.9308,5.9069,5.8684,5.8836,5.9982,6.1498,6.2688,6.3011,6.3842,6.404,6.3023,6.2257,6.1379,0.0,0.0,0.0,5.9154,5.9591,5.9958,6.0166,6.0411,6.0638,6.0794,6.0794,6.0671,6.0424,6.0024,5.9562,5.907,5.798,5.7241,5.681,5.681,5.681,5.681,5.681,5.681,5.681,5.681,5.6656,5.6378,5.5869,5.5407,5.4945,5.4468,5.416,5.4006,5.4252,5.4037,5.3683,5.3437,5.3067,5.2698,5.2698,5.2698,5.2698,5.2698,5.239,5.2082,5.2082,5.1067,5.0051,5.0051,4.9312,4.8604,4.8604,4.8974,4.9312,4.9312,4.9312,4.9312,4.9312,4.8912,4.8604,4.8604,4.8604,4.8604,4.8604,4.885,4.9158,4.962,4.9897,5.0051,5.0051,4.9835,4.9497,4.9035,4.8758,4.8604,4.8604,4.9528,5.0051,5.0051,5.1258,5.2211,5.2993,5.3024,5.3024,5.295,5.2398,5.137,5.5508,5.7244,5.874,6.0685,6.1642,6.2271,6.2869,6.2989,6.2421,6.0446,5.8949,5.7782,0.0,0.0,5.717,5.9047,6.0856,6.2366,6.325,6.4009,6.4248,0.0,0.0,0.0,0.0,0.0,0.0,5.8731,0.0,5.9747,5.9778,6.0393,6.0763,6.0763,6.0763,6.0424,5.9747,5.9686,5.9008,5.7765,5.7118,5.681,5.681,5.681,5.681,5.681,5.681,5.681,5.681,5.6779,5.6347,5.5684,5.5622,5.4822,5.3714,5.3683,5.3283,5.279,5.3437,5.3683,5.3514,5.2914,5.2698,5.2698,5.2698,5.2698,5.2698,5.2698,5.2698,5.2667,5.2667,5.1682,5.0697,5.0667,4.962,4.8666,4.8635,4.8635,4.8666,4.8666,4.8666,4.8666,4.8635,4.8604,4.8604,4.8604,4.8604,4.8604,4.8604,4.9251,4.9682,4.9743,5.0328,5.0759,5.0759,5.0143,4.9712,4.9682,4.9004,4.8604,4.8604,4.9959,5.0697,5.0697,5.2474,5.3608,5.4008,5.4071,5.4071,5.3976,5.295,5.1852,5.6406,5.856,6.0595,6.1583,6.1972,6.2151,6.2301,6.1972,6.1194,5.9668,5.7543,5.5897,5.5718,5.5521,5.5899,5.7365,6.0425,0.0,6.2933,6.4009,0.0,6.3848,0.0,6.2641,6.0948,5.987,0.0,0.0,5.8947,5.9255,5.9747,5.9963,6.0055,6.0055,6.0055,5.9716,5.9039,5.8547,5.7919,5.7056,5.6902,5.681,5.681,5.681,5.681,5.681,5.681,5.681,5.6779,5.6176,5.5869,5.5592,5.4607,5.4022,5.3652,5.316,5.2852,5.2729,5.2914,5.2975,5.2944,5.276,5.2698,5.2698,5.2698,5.2698,5.2698,5.2698,5.2359,5.1959,5.1959,5.1313,5.0574,5.0051,4.9682,4.9281,4.8727,4.9035,4.9404,4.9404,4.9404,4.9251,4.8696,4.8604,4.8604,4.8604,4.8604,4.8604,4.8604,4.9251,4.9866,5.0389,5.1036,5.1436,5.1436,5.082,5.0236,4.9712,4.9004,4.8604,4.8604,4.9959,5.0697,5.0697,5.2474,5.364,5.4071,5.4071,5.4071,5.4071,5.3408,5.2536,5.7543,5.9518,6.1194,6.1583,6.1882,6.1942,6.1343,6.0715,5.9787,5.8141,5.5957,5.4311,5.4311,5.4473,5.5086,5.6757,0.0,0.0,6.2364,6.3564,6.418,0.0,6.3379,0.0,6.1379,6.064,5.9963,0.0,5.8947,5.8947,5.9316,5.9624,5.9655,5.9347,5.9347,5.9008,5.8381,5.7734,5.7179,5.681,5.681,5.681,5.681,5.681,5.681,5.681,0.0,5.6625,5.6269,5.5869,5.5345,5.476,5.4022,5.3529,5.3221,5.2852,5.2698,5.2698,5.2698,5.2698,5.2698,5.2698,5.2698,5.2698,5.2698,5.2698,5.2698,5.2698,5.2452,5.2144,5.2144,5.1652,5.1036,5.0667,5.0112,4.9589,4.9158,4.9158,4.922,4.922,4.922,4.9097,4.8696,4.8604,4.8604,4.8604,4.8604,4.8604,4.8604,4.9497,5.0266,5.0667,5.1559,5.2021,5.1744,5.1344,5.0728,4.9743,4.9312,4.8943,4.8635,4.9959,5.0697,5.0697,5.2474,5.3483,5.364,5.3671,5.3671,5.3597,5.3169,5.2536,5.862,6.0027,6.1014,6.1104,6.1403,6.1373,6.0116,5.9129,5.7962,5.6188,5.4102,5.2725,5.2875,5.3476,5.4509,5.6545,0.0,6.1809,6.1809,6.2887,6.3472,6.2887,6.2825,6.2548,6.1871,6.1348,6.0763,5.9993,5.9378,5.8978,5.8793,5.9347,5.9347,5.867,5.8547,5.827,5.7826,5.7148,5.681,5.681,5.681,5.681,5.681,5.681,5.681,5.681,5.6717,0.0,5.5684,5.5499,5.476,5.3714,5.3622,5.3221,5.2698,5.2698,5.2698,5.2698,5.2698,5.2698,5.2698,5.2698,5.2698,5.2698,5.2698,5.2698,5.2698,5.2698,5.2698,5.2698,5.2698,5.2267,5.1805,5.1713,5.082,4.9928,4.9835,4.9343,4.8881,4.8881,4.882,4.8758,4.8758,4.8666,4.8604,4.8604,4.8604,4.8604,4.8604,4.9743,5.0605,5.0697,5.1836,5.239,5.1867,5.1744,5.119,5.002,4.9866,4.9558,4.8912,5.0143,5.082,5.082,5.2492,5.3251,5.2923,5.2986,5.3028,5.3007,5.2553,5.2199,5.886,5.9668,6.0416,6.0984,6.0356,5.9428,5.865,5.6705,5.479,5.3892,5.1755,5.0272,5.1349,5.2433,5.381,5.5846,5.9348,6.1809,6.1809,6.2487,6.2948,0.0,6.2825,6.2548,6.1871,6.221,0.0,0.0,0.0,5.9963,5.8854,5.8885,5.8639,5.7962,5.7457,5.7364,5.7826,5.7148,5.681,5.681,5.681,5.681,5.681,5.681,5.681,5.6779,5.6146,0.0,5.5592,5.4514,5.3929,5.3607,5.3098,5.2821,5.2698,5.2698,5.2698,5.2698,5.2698,5.2698,5.2698,5.2698,5.2698,5.2698,5.2698,5.2698,5.2698,5.2698,5.2698,5.2698,5.2698,5.2637,5.239,5.1836,5.1528,5.119,5.0636,5.042,5.0328,5.0328,4.9866,4.9497,4.9497,4.9004,4.8604,4.8604,4.8604,4.8604,4.8604,4.9343,5.0082,5.0636,5.1405,5.2052,5.2513,5.2021,5.159,5.1374,5.082,5.0451,5.0328,5.1097,5.1528,5.1528,5.2608,5.2934,5.252,5.269,5.286,5.307,5.2376,5.2324,5.9428,6.0116,6.0535,6.0146,5.9308,5.8141,5.6466,5.4311,5.2366,5.1349,4.9629,4.8536,4.9523,5.0925,5.2595,5.463,5.794,6.024,6.024,6.1132,6.1625,6.1286,6.1563,6.1625,0.0,6.1902,6.1871,6.0886,0.0,6.0209,5.8854,5.8165,5.7641,5.7303,5.6994,5.6964,5.7303,5.6964,5.681,5.681,5.681,5.681,5.681,5.681,5.6594,5.6176,5.5838,0.0,5.4607,5.3991,5.3453,5.316,5.2852,5.2698,5.2698,5.2698,5.2698,5.2698,5.2698,5.2698,5.2698,5.2698,5.2698,5.2698,5.2698,5.2698,5.2698,5.2698,5.2698,5.2698,5.2698,5.2698,5.2637,5.2298,5.1959,5.1528,5.0851,5.0697,5.0697,5.0697,5.0143,4.9682,4.9682,4.9097,4.8604,4.8604,4.8604,4.8604,4.8604,4.8912,4.9404,5.0082,5.0759,5.1436,5.2144,5.1898,5.1713,5.1713,5.1405,5.1067,5.0697,5.1344,5.1713,5.1713,5.2493,5.2613,5.2033,5.2379,5.2733,5.3039,5.293,5.3369,6.0116,6.0595,6.0595,5.9398,5.8291,5.6885,5.4521,5.2127,5.0092,4.9045,4.7668,4.692,4.7728,4.9205,5.1016,5.3338,5.6176,5.822,5.8681,5.9686,6.0178,5.9624,6.0178,0.0,6.0578,6.1317,0.0,6.0855,0.0,0.0,5.8854,5.7549,5.681,5.681,5.681,5.681,5.681,5.681,5.681,5.681,5.681,5.6717,5.6594,5.6594,5.6146,5.5468,5.5345,0.0,0.0,5.3514,5.3191,5.2698,5.2698,5.2698,5.2698,5.2698,5.2698,5.2698,5.2698,5.2698,5.2698,5.2698,5.2698,5.2698,5.2698,5.2698,5.2698,5.2698,5.2698,5.2698,5.2698,5.2698,5.2698,5.2698,5.2298,5.1775,5.1251,5.1128,5.1128,5.1128,5.0574,5.0112,5.0112,4.9404,4.885,4.885,4.8696,4.8604,4.8604,4.8604,4.882,4.9404,5.0205,5.0974,5.1652,5.1836,5.1929,5.1929,5.1929,5.1682,5.1159,5.1621,5.1929,5.1929,5.2497,5.2479,5.1858,5.2379,5.286,5.3299,5.3591,5.4317,6.0835,6.0625,5.9997,5.9279,5.7274,5.5089,5.3623,5.0361,4.7638,4.7519,4.5933,4.4975,4.6262,4.7315,4.9038,5.2192,5.4392,5.6347,5.8165,5.8734,5.8947,5.8885,0.0,0.0,5.987,6.104,0.0,0.0,0.0,0.0,5.8793,5.7549,5.681,5.681,5.681,5.681,5.681,5.681,5.681,5.681,5.681,5.6471,5.5776,5.5776,5.5438,5.4745,5.4176,0.0,0.0,5.3067,5.276,5.2698,5.2698,5.2698,5.2698,5.2698,5.2698,5.2698,5.2698,5.2698,5.2698,5.2698,5.2698,5.2698,5.2698,5.2698,5.2698,5.2698,5.2698,5.2698,5.2698,5.2698,5.2698,5.2698,5.2667,5.2606,5.2544,5.2513,5.2513,5.2513,5.199,5.1528,5.1528,5.0451,4.9589,4.9589,4.9035,4.8604,4.8604,4.8604,4.8635,4.8696,4.9897,5.0974,5.1652,5.2267,5.2637,5.2637,5.2637,5.2575,5.2513,5.2575,5.2637,5.2637,5.2922,5.2803,5.2305,5.2976,5.3643,5.4261,5.3981,5.4503,5.9817,6.0296,6.0356,5.889,5.6555,5.4132,5.2396,4.9254,4.6591,4.6172,4.5155,4.4466,4.5005,4.6202,4.7787,4.9899,5.2124,5.4004,5.5228,5.6647,5.7611,5.7611,5.8227,0.0,0.0,0.0,6.0486,0.0,0.0,0.0,5.8177,5.7333,5.681,5.681,5.681,5.681,5.681,5.681,5.681,5.681,5.6378,5.5961,5.5684,5.5284,5.476,5.4068,5.3837,0.0,0.0,5.2821,5.2698,5.2698,5.2698,5.2698,5.2698,5.2698,5.2698,5.2698,5.2698,5.2698,5.2698,5.2698,5.2698,5.2698,5.2698,5.2698,5.2698,5.2698,5.2698,5.2698,5.2698,5.2698,5.2698,5.2698,5.2698,5.2698,5.2698,5.2698,5.2698,5.2698,5.2175,5.1713,5.1713,5.0574,4.9682,4.9682,4.9066,4.8604,4.8604,4.8604,4.8604,4.8604,4.9497,5.0359,5.1036,5.1713,5.2267,5.2698,5.2698,5.2698,5.2698,5.2698,5.2698,5.2698,5.31,5.334,5.3341,5.4208,5.4988,5.5752,5.588,5.6563,5.8949,5.9937,6.0386,5.856,5.5987,5.3443,5.1618,4.8536,4.5873,4.5394,4.4616,4.4018,4.4018,4.4918,4.6304,4.8273,4.9998,5.1711,5.3314,5.5064,5.6176,5.6176,0.0,5.7346,0.0,5.867,5.9193,0.0,0.0,0.0,5.7518,5.7087,5.681,5.681,5.681,5.681,5.681,5.6594,5.6502,5.6502,5.5745,5.5315,5.5099,5.4637,5.4006,5.3406,5.3406,0.0,0.0,5.2698,5.2698,5.2698,5.2698,5.2698,5.2698,5.2698,5.2698,5.2698,5.2698,5.2698,5.2698,5.2698,5.2698,5.2698,5.2698,5.2698,5.2698,5.2698,5.2698,5.2698,5.2698,5.2698,5.2698,5.2698,5.2698,5.2698,5.2698,5.2698,5.2698,5.2698,5.2329,5.2021,5.2021,5.1036,5.0266,5.0266,4.9682,4.922,4.922,4.922,4.922,4.922,4.9866,5.0389,5.0667,5.1313,5.199,5.2667,5.2698,5.2698,5.2698,5.2698,5.2698,5.2698,5.3201,5.3738,5.4221,5.5131,5.5981,5.6839,5.7214,5.7954,5.859,5.9578,5.9787,5.8471,5.5628,5.2845,5.1528,4.8147,4.5304,4.5304,4.4257,4.329,4.329,4.3319,4.4436,4.7758,4.8192,4.9465,5.3398,5.4402,5.4714,0.0,0.0,5.5715,5.5715,5.6977,0.0,0.0,0.0,0.0,5.6871,5.681,5.681,5.681,5.681,5.681,5.681,5.6053,5.5715,5.5684,5.5037,5.4345,5.3699,5.3745,5.3375,0.0,0.0,0.0,0.0,5.2698,5.2698,5.2698,5.2698,5.2698,5.2698,5.2698,5.2698,5.2698,5.2698,5.2698,5.2698,5.2698,5.2698,5.2698,5.2698,5.2698,5.2698,5.2698,5.2698,5.2698,5.2698,5.2698,5.2698,5.2698,5.2698,5.2698,5.2698,5.2698,5.2698,5.2698,5.2698,5.2698,5.2698,5.2144,5.1682,5.1682,5.1097,5.0667,5.0667,5.0667,5.0667,5.0667,5.1282,5.1405,5.0759,5.1313,5.199,5.2667,5.2698,5.2698,5.2698,5.2698,5.2698,5.2698,5.3365,5.4028,5.4685,5.558,5.6453,5.7289,5.7514,5.8103,5.476,5.6526,5.7633,5.5867,5.3952,5.2157,5.0794,4.7818,4.5304,4.5304,4.4257,4.329,4.329,4.329,4.4028,4.6172,4.6978,4.8292,5.1072,0.0,0.0,5.4052,5.5007,5.5869,0.0,0.0,0.0,0.0,0.0,0.0,5.681,5.681,5.681,5.681,5.681,5.6563,5.6023,5.5807,5.5468,5.5037,5.436,5.3929,5.3668,5.3252,5.2914,0.0,0.0,0.0,0.0,5.2698,5.2698,5.2698,5.2698,5.2698,5.2698,5.2698,5.2698,5.2698,5.2698,5.2698,5.2698,5.2698,5.2698,5.2698,5.2698,5.2698,5.2698,5.2698,5.2698,5.2698,5.2698,5.2698,5.2698,5.2698,5.2698,5.2698,5.2698,5.2698,5.2698,5.2698,5.2698,5.2698,5.2698,5.2144,5.1713,5.1713,5.1128,5.0697,5.0697,5.0697,5.0697,5.0697,5.0882,5.1128,5.1374,5.2021,5.2483,5.2698,5.2698,5.2698,5.2698,5.2698,5.2944,5.3375,5.4197,5.5259,5.6528,5.7535,5.8407,5.9216,5.9865,6.0275,5.1618,5.3623,5.497,5.3743,5.2276,5.081,4.9733,4.713,4.4915,4.4915,4.4077,4.329,4.329,4.3369,4.3938,4.5423,4.6284,4.7596,4.9983,0.0,0.0,5.4052,0.0,0.0,0.0,0.0,0.0,0.0,0.0,0.0,5.681,5.681,5.681,5.681,5.681,5.6471,5.5715,5.5438,5.5007,5.4283,5.3652,5.3345,5.3345,5.2914,5.2698,0.0,0.0,0.0,0.0,5.2698,5.2698,5.2698,5.2698,5.2698,5.2698,5.2698,5.2698,5.2698,5.2698,5.2698,5.2698,5.2698,5.2698,5.2698,5.2698,5.2698,5.2698,5.2698,5.2698,5.2698,5.2698,5.2698,5.2698,5.2698,5.2698,5.279,5.3037,5.3098,5.316,5.3437,5.3468,5.3468,5.3468,5.3129,5.276,5.2513,5.2113,5.1744,5.1498,5.1436,5.1436,5.1436,5.1436,5.1744,5.2421,5.239,5.2452,5.2698,5.2788,5.2877,5.2966,5.3055,5.3454,5.4228,5.5083,5.6221,5.7711,5.88,5.9616,6.0114,6.0926,6.1298,0.0,5.096,5.1977,5.1977,5.0571,4.906,4.8356,4.6202,0.0,4.4317,4.3738,4.329,4.3329,4.3518,4.4097,4.5434,4.6042,4.7232,0.0,5.1734,0.0,0.0,5.4745,0.0,5.4745,0.0,0.0,0.0,0.0,0.0,5.681,5.681,5.681,5.681,5.6748,5.6378,5.5622,5.5037,5.4314,5.3607,5.3006,5.2698,5.2698,5.2698,5.2698,0.0,0.0,0.0,0.0,5.2698,5.2698,5.2698,5.2698,5.2698,5.2698,5.2698,5.2698,5.2698,5.2698,5.2698,5.2698,5.2698,5.2698,5.2698,5.2698,5.2698,5.2698,5.2698,5.2698,5.2698,5.2698,5.2698,5.2698,5.2698,5.2698,5.2883,5.3591,5.3714,5.3883,5.456,5.4683,5.4683,5.4683,5.4683,5.4468,5.3853,5.3745,5.3498,5.2852,5.2729,5.2698,5.2698,5.2698,5.2975,5.3591,5.2544,5.2144,5.2821,5.3121,5.3388,5.3577,5.384,5.4372,5.534,5.6135,5.7163,5.8437,5.9639,6.025,6.0283,6.1028,6.1366,4.6578,0.0,4.9988,4.9988,4.9224,4.8356,0.0,4.5873,4.4317,4.4317,4.3738,4.3369,4.3557,4.3636,4.4246,4.5869,4.6244,4.7313,5.0211,5.2253,0.0,5.5315,5.5468,5.5468,5.5468,0.0,0.0,0.0,0.0,5.681,5.681,5.681,5.681,5.681,5.6238,5.5622,5.4976,5.4775,5.4145,5.2944,5.279,5.2698,5.2698,5.2698,5.2698,0.0,0.0,0.0,5.2698,5.2698,5.2698,5.2698,5.2698,5.2698,5.2698,5.2698,5.2698,5.2698,5.2698,5.2698,5.2698,5.2698,5.2698,5.2698,5.2698,5.2698,5.2698,5.2698,5.2698,5.2698,5.2698,5.2698,5.2698,5.2698,5.2698,5.2883,5.3591,5.3714,5.3883,5.456,5.4683,5.4683,5.4683,5.4683,5.4621,5.4468,5.4052,5.3652,5.3498,5.3037,5.2698,5.2698,5.2698,5.276,5.2944,5.3129,5.3529,5.416,5.4651,5.5072,5.5456,5.5883,5.6669,5.7775,5.9137,6.02,6.0891,6.1565,6.1839,6.1839,6.2042,6.2144,4.5741,4.686,4.7772,4.9,4.8327,4.7369,4.7309,4.5992,4.4766,4.4766,4.4308,4.3938,4.4057,4.4043,4.44,4.5633,4.6425,4.8111,0.0,0.0,5.4668,5.6023,5.6176,5.6176,0.0,0.0,0.0,0.0,0.0,5.681,5.681,5.681,5.6656,5.6317,5.5899,5.5376,5.4683,5.4375,5.3699,5.2698,5.2698,5.2698,5.2698,5.2698,5.2698,0.0,0.0,0.0,5.2698,5.2698,5.2698,5.2698,5.2698,5.2698,5.2698,5.2698,5.2698,5.2698,5.2698,5.2698,5.2698,5.2698,5.2698,5.2698,5.2698,5.2698,5.2698,5.2698,5.2698,5.2698,5.2698,5.2698,5.2698,5.2698,5.2944,5.3345,5.3976,5.4422,5.4822,5.553,5.5653,5.5653,5.5653,5.5653,5.5561,5.5222,5.4853,5.4514,5.4206,5.3591,5.3191,5.3191,5.2883,5.2821,5.316,5.3498,5.3822,5.4191,5.4417,5.4849,5.562,5.5932,5.6902,5.8698,6.0084,6.1139,6.1837,6.2223,6.2381,6.2381,6.2381,6.2381,4.5891,4.5963,4.6052,4.855,4.7788,4.6621,4.7189,4.6411,4.5615,4.5567,4.5202,4.4881,4.5001,4.493,4.508,4.5808,0.0,0.0,5.3312,5.4484,5.544,5.6752,5.6858,0.0,0.0,0.0,0.0,0.0,0.0,5.681,5.681,5.6717,5.6378,5.5715,5.5499,5.513,5.4529,5.3976,5.3375,5.2698,5.2698,5.2698,5.2698,5.2698,5.2698,5.2698,0.0,0.0,5.2698,5.2698,5.2698,5.2698,5.2698,5.2698,5.2698,5.2698,5.2698,5.2698,5.2698,5.2698,5.2698,5.2698,5.2698,5.2698,5.2698,5.2698,5.2698,5.2698,5.2698,5.2698,5.2698,5.2698,5.2698,5.2698,5.316,5.373,5.4529,5.5161,5.5776,5.6656,5.681,5.681,5.681,5.681,5.6594,5.593,5.5745,5.5499,5.4945,5.416,5.3714,5.3714,5.3129,5.2944,5.3529,5.356,5.3622,5.3714,5.3703,5.4279,5.5415,5.5599,5.6727,5.8946,5.9984,6.097,6.1868,6.2133,6.2279,6.2381,6.2381,6.2381,4.6621,4.6681,4.6531,4.8057,4.7788,4.7189,4.7279,4.713,4.6916,4.6766,4.6316,4.615,4.6772,4.6982,4.748,4.8764,0.0,5.2947,0.0,0.0,5.6498,5.7307,0.0,0.0,0.0,0.0,0.0,0.0,0.0,5.681,5.681,5.6176,5.5807,5.5684,5.4607,5.3991,5.3822,5.3775,5.3375,5.2698,5.2698,5.2698,5.2698,5.2698,5.2698,5.2698,0.0,5.2698,5.2698,5.2698,5.2698,5.2698,5.2698,5.2698,5.2698,5.2698,5.2698,5.2698,5.2698,5.2698,5.2698,5.2698,5.2698,5.2698,5.2698,5.2698,5.2698,5.2698,5.2698,5.2698,5.2698,5.2698,5.2698,5.2698,5.279,5.3221,5.4406,5.4775,5.5253,5.6563,5.681,5.681,5.681,5.681,5.6779,5.6656,5.6084,5.5653,5.5561,5.4483,5.3714,5.3714,5.3129,5.276,5.2852,5.2852,5.3129,5.3683,5.4649,5.5784,5.7141,5.7888,5.8608,5.9388,5.991,6.0579,6.1429,6.1467,6.1772,6.2381,6.2381,6.2381,4.5873,4.5992,4.6082,4.7429,4.8057,4.8566,4.9254,4.9224,4.8906,4.8292,4.8071,4.8151,4.8772,4.9273,5.0122,5.1764,0.0,5.4725,5.5763,5.6441,5.7132,0.0,0.0,0.0,0.0,0.0,0.0,0.0,0.0,0.0,5.6255,5.5869,5.5376,5.4637,5.4022,5.356,5.3191,5.3191,5.3006,5.2698,5.2698,5.2698,5.2698,5.2698,5.2698,5.2698,0.0,5.2698,5.2698,5.2698,5.2698,5.2698,5.2698,5.2698,5.2698,5.2698,5.2698,5.2698,5.2698,5.2698,5.2698,5.2698,5.2698,5.2698,5.2698,5.2698,5.2698,5.2698,5.2698,5.2698,5.2698,5.2698,5.2698,5.2698,5.3006,5.3529,5.4468,5.5007,5.5561,5.6625,5.681,5.681,5.681,5.681,5.681,5.681,5.6532,5.6269,5.6269,5.5407,5.4791,5.4791,5.4206,5.3806,5.3806,5.3806,5.3667,5.3371,5.4321,5.5222,5.6005,5.6809,5.7886,5.9145,5.9577,6.0342,6.152,6.152,6.1767,6.2189,6.2341,6.2381,4.5125,4.5304,4.5663,4.716,4.8297,4.9389,5.0527,5.0923,5.0803,5.0125,5.0133,5.0438,5.0948,5.1647,5.2695,5.4358,5.525,5.6141,5.7306,5.7656,5.7974,5.8437,0.0,0.0,0.0,0.0,0.0,0.0,0.0,0.0,5.5715,5.5407,5.476,5.3745,5.356,5.3252,5.2729,5.2698,5.2698,5.2698,5.2698,5.2698,5.2698,5.2698,5.2698,5.2698,5.2698,5.2698,5.2698,5.2698,5.2698,5.2698,5.2698,5.2698,5.2698,5.2698,5.2698,5.2698,5.2698,5.2698,5.2698,5.2698,5.2698,5.2698,5.2698,5.2698,5.2698,5.2698,5.2698,5.2698,5.2698,5.2698,5.2698,5.2698,5.3098,5.3683,5.4314,5.5007,5.5684,5.6409,5.6686,5.681,5.681,5.681,5.681,5.681,5.681,5.681,5.681,5.6241,5.5826,5.5873,5.5333,5.4931,5.4931,5.4916,5.4529,5.3703,5.4151,5.4674,5.5017,5.5871,5.7076,5.8705,5.9106,5.9977,6.128,6.128,6.1508,6.1917,6.2229,6.2381,4.5125,4.5304,4.5753,4.7728,4.8297,4.8625,4.9494,5.0955,5.2225,5.2328,5.2517,5.2882,5.3503,5.4246,5.5038,5.6048,5.688,5.7624,5.8378,0.0,5.9499,0.0,0.0,0.0,0.0,0.0,0.0,0.0,0.0,0.0,5.5684,5.4545,5.3806,5.3714,5.3129,5.276,5.2698,5.2698,5.2698,5.2698,5.2698,5.2698,5.2698,5.2698,5.2698,5.2698,5.2698,5.2698,5.2698,5.2698,5.2698,5.2698,5.2698,5.2698,5.2698,5.2698,5.2698,5.2698,5.2698,5.2698,5.2698,5.2698,5.2698,5.2698,5.2698,5.2698,5.2698,5.2698,5.2698,5.2698,5.2698,5.2698,5.2698,5.2698,5.276,5.2975,5.3652,5.4283,5.4976,5.5653,5.6347,5.681,5.681,5.681,5.681,5.681,5.681,5.681,5.681,5.6384,5.6186,5.6419,5.5994,5.5722,5.5722,5.5573,5.5405,5.5343,5.4916,5.5069,5.6031,5.6863,5.7572,5.8257,5.8599,5.9164,6.0026,6.0033,6.061,6.175,6.2183,6.2381,4.4107,4.4377,4.4896,4.577,4.678,4.8024,5.0017,5.1782,5.3134,5.3788,5.4972,5.5836,5.5733,5.6492,5.7111,5.7131,5.8175,5.9267,5.9999,6.0318,0.0,0.0,0.0,0.0,0.0,0.0,0.0,0.0,0.0,0.0,5.4483,5.3991,5.3529,5.3098,5.2852,5.2698,5.2698,5.2698,5.2698,5.2698,5.2698,5.2698,5.2698,5.2698,5.2698,5.2698,5.2698,5.2698,5.2698,5.2698,5.2698,5.2698,5.2698,5.2698,5.2698,5.2698,5.2698,5.2698,5.2698,5.2698,5.2698,5.2698,5.2698,5.2698,5.2698,5.2698,5.2698,5.2698,5.2698,5.2698,5.2698,5.2698,5.2698,5.2698,5.2698,5.2883,5.3591,5.3883,5.4422,5.5468,5.5899,5.6238,5.6717,5.681,5.681,5.681,5.681,5.681,5.681,5.6898,5.7137,5.7509,5.7497,5.7476,5.7688,5.6933,5.6675,5.7147,5.5904,5.5618,5.6631,5.744,5.8296,5.9111,5.9366,5.9819,6.0655,6.0589,6.1002,6.1709,6.2183,6.2381,4.3409,4.3618,4.4088,4.4619,4.5859,4.7691,5.0463,5.2504,5.4125,5.5233,5.6796,5.7845,5.7265,0.0,0.0,0.0,5.8927,6.0089,6.1094,6.1227,0.0,0.0,0.0,0.0,0.0,0.0,0.0,0.0,0.0,0.0,0.0,5.3529,5.3191,5.2729,5.2698,5.2698,5.2698,5.2698,5.2698,5.2698,5.2698,5.2698,5.2698,5.2698,5.2698,5.2698,5.2698,5.2698,5.2698,5.2698,5.2698,5.2698,5.2698,5.2698,5.2698,5.2698,5.2698,5.2698,5.2698,5.2698,5.2698,5.2698,5.2698,5.2698,5.2698,5.2698,5.2698,5.2698,5.2698,5.2698,5.2698,5.2698,5.2698,5.2698,5.2698,5.2852,5.3314,5.356,5.3991,5.4884,5.5253,5.5592,5.6347,5.6471,5.6532,5.6779,5.681,5.681,5.681,5.7258,5.7887,5.8714,5.9046,5.9253,5.9246,5.8249,5.7825,5.8409,5.7281,5.6924,5.7719,5.8587,5.9433,6.0117,6.0208,6.0523,6.1086,6.102,6.1227,6.1709,6.2183,6.2381,4.329,4.329,4.3588,4.4728,4.601,4.7754,5.0644,5.3067,5.5178,5.6816,5.7975,5.8571,5.798,5.7735,0.0,5.8299,5.9031,6.0035,6.1475,0.0,0.0,0.0,0.0,0.0,0.0,0.0,0.0,0.0,0.0,0.0,0.0,5.3067,5.2698,5.2698,5.2698,5.2698,5.2698,5.2698,5.2698,5.2698,5.2698,5.2698,5.2698,5.2698,5.2698,5.2698,5.2698,5.2698,5.2698,5.2698,5.2698,5.2698,5.2698,5.2698,5.2698,5.2698,5.2698,5.2698,5.2698,5.2698,5.2698,5.2698,5.2698,5.2698,5.2698,5.2698,5.2698,5.2698,5.2698,5.2698,5.2698,5.2698,5.2698,5.2698,5.2698,5.2729,5.2729,5.3252,5.3745,5.3745,5.4268,5.4898,5.5592,5.5715,5.593,5.6717,5.681,5.681,5.681,5.7448,5.8441,5.987,6.0609,6.0736,6.0087,5.9323,5.8953,5.9004,5.8908,5.91,5.9587,6.0525,6.0986,6.0986,6.0986,6.0986,6.0986,6.0986,6.1268,6.1709,6.2183,6.2381,4.329,4.3618,4.4158,4.4849,4.6708,4.8965,5.1096,5.3869,5.6889,6.0157,6.0213,5.9329,5.8118,5.7845,0.0,5.7327,5.8339,5.9486,6.043,0.0,0.0,0.0,0.0,0.0,0.0,0.0,0.0,0.0,0.0,0.0,0.0,5.2821,5.2698,5.2698,5.2698,5.2698,5.2698,5.2698,5.2698,5.2698,5.2698,5.2698,5.2698,5.2698,5.2698,5.2698,5.2698,5.2698,5.2698,5.2698,5.2698,5.2698,5.2698,5.2698,5.2698,5.2698,5.2698,5.2698,5.2698,5.2698,5.2698,5.2698,5.2698,5.2698,5.2698,5.2698,5.2698,5.2698,5.2698,5.2698,5.2698,5.2698,5.2698,5.2698,5.3067,5.3406,5.3406,5.396,5.4529,5.5007,5.5284,5.5622,5.6378,5.6502,5.6563,5.6779,5.681,5.705,5.77,5.8546,5.9531,6.0567,6.1039,6.106,6.0745,5.9361,5.8818,5.9464,5.9431,5.9619,6.013,6.102,6.1473,6.1473,6.1473,6.1473,6.1473,6.1473,6.1635,6.1917,6.2263,6.2685,4.3618,4.4197,4.4948,4.594,4.804,5.0649,5.3452,5.5967,5.8603,6.1756,6.1163,5.9742,5.8558,5.8084,0.0,5.7306,5.8254,5.9268,0.0,0.0,0.0,0.0,0.0,0.0,0.0,0.0,0.0,0.0,0.0,0.0,0.0,5.2698,5.2698,5.2698,5.2698,5.2698,5.2698,5.2698,5.2698,5.2698,5.2698,5.2698,5.2698,5.2698,5.2698,5.2698,5.2698,5.2698,5.2698,5.2698,5.2698,5.2698,5.2698,5.2698,5.2698,5.2698,5.2698,5.2698,5.2698,5.2698,5.2698,5.2698,5.2698,5.2698,5.2698,5.2698,5.2698,5.2698,5.2698,5.2698,5.2698,5.2698,5.2698,5.2698,5.3221,5.3714,5.3714,5.4222,5.4806,5.5222,5.5315,5.553,5.6255,5.6378,5.6471,5.6779,5.681,5.7115,5.8072,5.9043,5.9935,6.0903,6.1428,6.1559,6.1193,5.9929,5.9393,5.9914,5.9914,6.0141,6.076,6.1547,6.1951,6.1951,6.1951,6.1951,6.1951,6.2253,6.2502,6.2588,6.3085,6.3497,4.4047,4.4796,4.5818,4.7504,4.9704,5.2533,5.6704,5.8552,5.9918,6.1795,0.0,5.981,5.9133,5.8389,5.7881,5.7881,5.8457,5.9133,0.0,0.0,0.0,0.0,0.0,0.0,0.0,0.0,0.0,0.0,0.0,0.0,0.0,5.2698,5.2698,5.2698,5.2698,5.2698,5.2698,5.2698,5.2698,5.2698,5.2698,5.2698,5.2698,5.2698,5.2698,5.2698,5.2698,5.2698,5.2698,5.2698,5.2698,5.2698,5.2698,5.2698,5.2698,5.2698,5.2698,5.2698,5.2698,5.2698,5.2698,5.2698,5.2698,5.2698,5.2698,5.2698,5.2698,5.2698,5.2698,5.2698,5.2698,5.2698,5.2698,5.2698,5.3283,5.3806,5.3806,5.4345,5.4868,5.4868,5.4868,5.5099,5.5684,5.5776,5.6023,5.6717,5.681,5.7115,5.8072,5.9043,5.9935,6.0903,6.183,6.2144,6.1465,6.0769,6.0388,6.0463,6.0388,6.0685,6.1383,6.2064,6.2381,6.2381,6.2381,6.2415,6.2482,6.3193,6.3531,6.3632,6.4309,6.4647,4.3359,4.4755,4.6334,4.7443,5.0159,5.3448,5.6515,5.7873,5.8819,6.0304,5.9877,5.9201,5.9032,5.8389,5.7881,5.7881,5.8017,0.0,0.0,0.0,0.0,0.0,0.0,0.0,0.0,0.0,0.0,0.0,0.0,0.0,5.2774,5.2698,5.2698,5.2698,5.2698,5.2698,5.2698,5.2698,5.2698,0.0,5.2698,5.2698,5.2698,5.2698,5.2698,5.2698,5.2698,5.2698,5.2698,5.2698,5.2698,5.2698,5.2698,5.2698,5.2698,5.2698,5.2698,5.2698,5.2698,5.2698,5.2698,5.2698,5.2698,5.2698,5.2698,5.2698,5.2698,5.2698,5.2698,5.2698,5.2698,5.2698,5.2698,5.2698,5.3622,5.4468,5.4468,5.5468,5.633,5.633,5.633,5.6361,5.6563,5.6594,5.6625,5.6779,5.681,5.7115,5.8072,5.9043,5.9935,6.0903,6.183,6.2183,6.1669,6.1144,6.0861,6.0894,6.0861,6.1103,6.1628,6.2144,6.2381,6.2381,6.2381,6.2685,6.326,6.3429,6.3802,6.4377,6.4546,6.4918,4.3539,4.5274,4.7276,4.9219,5.1431,5.3703,5.5783,5.6856,5.7763,5.8815,5.9032,5.9032,5.9032,5.8389,5.7881,5.7881,5.7881,0.0,0.0,0.0,0.0,0.0,0.0,0.0,0.0,0.0,0.0,0.0,0.0,5.3985,5.31,5.2922,5.2833,5.2698,5.2698,5.2698,5.2698,5.2698,5.2698,5.2698,5.2698,5.2698,5.2698,5.2698,5.2698,5.2698,5.2698,5.2698,5.2698,5.2698,5.2698,5.2698,5.2698,5.2698,5.2698,5.2698,5.2698,5.2698,5.2698,5.2698,5.2698,5.2698,5.2698,5.2698,5.2698,5.2698,5.2698,5.2698,5.2698,5.2698,5.2698,5.2698,5.2698,5.2698,5.3498,5.4283,5.4621,5.553,5.6409,5.6748,5.681,5.681,5.681,5.681,5.681,5.681,5.681,5.7115,5.8072,5.9043,5.9935,6.0903,6.183,6.2263,6.187,6.1513,6.135,6.135,6.135,6.1473,6.183,6.256,6.2922,6.2922,6.326,6.3632,6.4038,6.4377,6.4749,6.5121,6.5493,6.5865,4.3748,4.5873,4.8369,5.1274,5.2622,5.362,5.4902,5.5908,5.6834,5.7625,5.8352,5.8829,5.8829,5.8321,5.7881,5.7881,5.7881,0.0,0.0,0.0,0.0,0.0,0.0,0.0,0.0,0.0,0.0,0.0,0.0,5.4423,5.3521,5.3277,5.3011,5.2729,5.2698,5.2698,5.2698,5.2698,5.2698,5.2698,5.2698,5.2698,5.2698,5.2698,5.2698,5.2698,5.2698,5.2698,5.2698,5.2698,5.2698,5.2698,5.2698,5.2698,5.2698,5.2698,5.2698,5.2698,5.2698,5.2698,5.2698,5.2698,5.2698,5.2698,5.2698,5.2698,5.2698,5.2698,5.2698,5.2698,5.2698,5.2698,5.2698,5.2698,5.3129,5.3775,5.4498,5.5253,5.5899,5.6686,5.681,5.681,5.681,5.681,5.681,5.681,5.681,5.7115,5.8072,5.9043,5.9935,6.0903,6.1931,6.2471,6.2278,6.2213,6.2199,6.2199,6.2199,6.228,6.2407,6.3383,6.3903,6.3903,6.4343,6.4647,6.4783,6.5392,6.5764,6.5899,6.6542,6.6812,4.2901,4.6172,4.9509,5.1516,5.2487,5.3346,5.4517,5.5466,5.6336,0.0,5.7729,5.8051,5.8051,5.7949,5.7881,5.7881,0.0,0.0,0.0,0.0,0.0,0.0,0.0,0.0,0.0,0.0,0.0,0.0,5.5781,5.4883,5.3965,5.3565,5.3188,5.2698,5.2698,5.2698,5.2698,5.2698,5.2698,5.2698,5.2698,5.2698,5.2698,5.2698,5.2698,5.2698,5.2698,5.2698,5.2698,5.2698,5.2698,5.2698,5.2698,5.2698,5.2698,5.2698,5.2698,5.2698,5.2698,5.2698,5.2698,5.2698,5.2698,5.2698,5.2698,5.2698,5.2698,5.2698,5.2698,5.2698,5.2698,5.2698,5.2698,5.2698,5.279,5.3191,5.4406,5.5253,5.5899,5.6686,5.681,5.681,5.681,5.681,5.681,5.681,5.681,5.7115,5.8072,5.9043,5.9935,6.0903,6.2401,6.3322,6.3322,6.3856,6.4228,6.4228,6.4228,6.4228,6.4268,6.5019,6.5392,6.5392,6.4884,6.4918,6.5527,6.5628,6.6034,6.6677,6.6779,6.6812,4.4377,4.683,4.9134,5.0819,5.1895,5.286,5.3879,5.4778,5.5708,5.6691,5.7256,5.7625,5.7845,5.7881,5.7881,5.7881,0.0,0.0,0.0,0.0,0.0,0.0,0.0,0.0,0.0,0.0,0.0,0.0,5.6218,5.5336,5.4433,5.3868,5.329,5.2698,5.2698,5.2698,5.2698,5.2698,5.2698,5.2698,5.2698,5.2698,5.2698,5.2698,5.2698,5.2698,5.2698,5.2698,5.2698,5.2698,5.2698,5.2698,5.2698,5.2698,5.2698,5.2698,5.2698,5.2698,5.2698,5.2698,5.2698,5.2698,5.2698,5.2698,5.2698,5.2698,5.2698,5.2698,5.2698,5.279,5.3191,5.3283,5.3375,5.3699,5.3791,5.4114,5.5068,5.5222,5.5516,5.6707,5.7067,5.7211,5.7401,5.7495,5.7559,5.7559,5.7559,5.7887,5.8714,5.9487,6.0476,6.1708,6.2851,6.3666,6.4106,6.441,6.4613,6.4613,6.4613,6.4613,6.4613,6.529,6.5696,6.5696,6.5797,6.6,6.6305,6.6305,6.6474,6.6812,6.6812,6.6812,4.5035,4.677,4.8415,4.9749,5.0894,5.1952,5.2959,0.0,5.4873,0.0,5.6801,5.7289,5.7808,5.7881,5.7881,5.7881,0.0,0.0,0.0,0.0,0.0,0.0,0.0,0.0,0.0,0.0,0.0,0.0,5.6647,5.5821,5.4893,5.4168,5.3465,5.2698,5.2698,5.2698,5.2698,5.2698,5.2698,5.2698,5.2698,5.2698,5.2698,5.2698,5.2698,5.2698,5.2698,5.2698,5.2698,5.2698,5.2698,5.2698,5.2698,5.2698,5.2698,5.2698,5.2698,5.2698,5.2698,5.2698,5.2698,5.2698,5.2698,5.2698,5.2698,5.2698,5.2698,5.2698,5.2698,5.2852,5.356,5.3714,5.3853,5.4529,5.4683,5.4868,5.5561,5.5468,5.5625,5.6946,5.7464,5.7746,5.8072,5.8395,5.8546,5.8546,5.8546,5.8773,5.9476,6.0261,6.1231,6.2457,6.347,6.4275,6.4816,6.5053,6.5155,6.5155,6.5155,6.5155,6.5155,6.5696,6.5967,6.5967,6.6542,6.6812,6.6812,6.6812,6.6812,6.6812,6.6812,6.6812,4.3409,4.5364,4.7562,4.8471,4.9442,5.0476,5.1778,0.0,5.3751,5.5618,5.6375,5.6987,5.7772,5.7881,5.7881,5.7881,0.0,0.0,0.0,0.0,0.0,0.0,0.0,0.0,0.0,0.0,0.0,0.0,5.7139,5.6257,5.5312,5.4507,5.3671,5.2698,5.2698,5.2698,5.2698,5.2698,5.2698,5.2698,5.2698,5.2698,5.2698,5.2698,5.2698,5.2698,5.2698,5.2698,5.2698,5.2698,5.2698,5.2698,5.2698,5.2698,5.2698,5.2698,5.2698,5.2698,5.2698,5.2698,5.2698,5.2698,5.2698,5.2698,5.2698,5.2698,5.2698,5.2698,5.2698,5.2852,5.356,5.3714,5.3853,5.4529,5.4683,5.4868,5.5561,5.6207,5.6862,5.737,5.784,5.8318,5.8741,5.9234,5.9499,5.9499,5.9499,5.9707,6.0184,6.1287,6.2182,6.2739,6.4469,6.5595,6.5628,6.6271,6.6711,6.6711,6.6711,6.6711,6.6711,6.6745,6.6745,6.6745,6.6779,6.6812,6.6812,6.6812,6.6812,6.6812,6.6812,6.6812,4.2572,4.3718,4.4915,4.5657,4.7031,4.8571,4.9556,5.1135,5.2943,5.4906,5.5908,5.6724,5.7735,5.7881,5.7881,5.7881,0.0,0.0,0.0,0.0,0.0,0.0,0.0,0.0,0.0,0.0,0.0,0.0,0.0,5.6297,5.5353,5.4549,5.3671,5.2698,5.2698,5.2698,5.2698,5.2698,5.2698,5.2698,5.2698,5.2698,5.2698,5.2698,5.2698,5.2698,5.2698,5.2698,5.2698,5.2698,5.2698,5.2698,5.2698,5.2698,5.2698,5.2698,5.2698,5.2698,5.2698,5.2698,5.2698,5.2698,5.3006,5.3345,5.3345,5.3652,5.3976,5.3976,5.3976,5.4145,5.4822,5.4976,5.5161,5.5869,5.5684,5.5501,5.603,5.6714,5.7448,5.8104,5.8683,5.9266,5.9783,6.0226,6.0525,6.0525,6.0525,6.0774,6.1598,6.2199,6.3066,6.4329,6.5226,6.5865,6.6373,6.6643,6.6812,6.6812,6.6812,6.6812,6.6812,6.6812,6.6812,6.6812,6.6812,6.6812,6.6812,6.6812,6.6812,6.6812,6.6812,6.6812,4.1654,4.2342,4.312,4.3539,4.4975,4.6574,4.7731,4.942,5.1441,5.3847,5.4996,5.5928,5.726,5.7551,5.7662,5.7881,0.0,0.0,0.0,0.0,0.0,0.0,0.0,0.0,0.0,0.0,0.0,0.0,0.0,0.0,5.5353,5.4549,5.3671,5.2698,5.2608,5.2563,5.2563,5.2563,5.2563,5.2563,5.2563,5.2563,5.2563,5.2563,5.2563,5.2563,5.2653,5.2698,5.2698,5.2698,5.2698,5.2698,5.2698,5.2698,5.2698,5.2698,5.2698,5.2698,5.2698,5.2698,5.2698,5.2698,5.316,5.3714,5.3714,5.416,5.4683,5.4683,5.4683,5.4837,5.553,5.5869,5.6176,5.6686,5.644,5.6244,5.6809,5.6964,5.7241,5.8058,5.9014,5.9867,6.0397,6.1252,6.184,6.184,6.204,6.2448,6.3115,6.3508,6.421,6.5387,6.585,6.6271,6.6779,6.6812,6.6812,6.6812,6.6812,6.6812,6.6812,6.6812,6.6812,6.6812,6.6812,6.6812,6.6812,6.6812,6.6812,6.6812,6.6812,6.6812,0.0,0.0,0.0,0.0,0.0,0.0,4.6237,0.0,4.9222,5.2511,5.3606,5.4503,5.6282,5.6834,5.7176,5.7772,0.0,0.0,0.0,0.0,0.0,0.0,0.0,0.0,0.0,0.0,0.0,0.0,5.7573,5.629,5.5353,5.4507,5.3627,5.2698,5.2442,5.2306,5.2306,5.2306,5.2306,5.2306,5.2306,5.2306,5.2306,5.2306,5.2306,5.2306,5.2563,5.2698,5.2698,5.2698,5.2698,5.2698,5.2698,5.2698,5.2698,5.2698,5.2698,5.2698,5.2698,5.2698,5.2698,5.2698,5.3191,5.3745,5.3745,5.4191,5.4745,5.4745,5.4745,5.4898,5.5561,5.6238,5.681,5.681,5.6779,5.6971,5.77,5.6924,5.6359,5.7366,5.8879,6.0082,6.0558,6.2239,6.3531,6.3531,6.414,6.4613,6.4647,6.5256,6.5696,6.573,6.6373,6.6812,6.6812,6.6812,6.6812,6.6812,6.6812,6.6812,6.6812,6.6812,6.6812,6.6812,6.6812,6.6812,6.6812,6.6812,6.6812,6.6812,6.6812,6.6812,3.9702,0.0,0.0,0.0,0.0,0.0,0.0,0.0,4.8018,5.0372,5.1999,5.3458,5.511,5.5723,5.6192,5.6844,0.0,0.0,0.0,0.0,0.0,0.0,0.0,0.0,0.0,0.0,0.0,0.0,5.7574,5.6376,5.4966,5.377,5.2877,5.2397,5.2352,5.2215,5.2063,5.2215,5.2306,5.2306,5.2306,5.2306,5.2306,5.2306,5.2306,5.2306,5.2563,5.2698,5.2698,5.2698,5.2698,5.2698,5.2698,5.2698,5.2698,5.2698,5.2698,5.2698,5.2698,5.2698,5.2698,5.2698,5.3498,5.4406,5.4406,5.5253,5.6207,5.6207,5.6207,5.6238,5.6471,5.6656,5.681,5.681,5.6409,5.6277,5.7164,5.7599,5.8141,5.9359,6.0465,6.1294,6.1575,6.2655,6.3531,6.3531,6.414,6.4783,6.5324,6.5561,6.5899,6.644,6.6677,6.6812,6.6812,6.6812,6.6812,6.6812,6.6812,6.6812,6.6812,6.6812,6.6812,6.6812,6.6812,6.6812,6.6812,6.6812,6.6812,6.6812,6.6812,6.6812,3.9373,0.0,0.0,0.0,0.0,0.0,4.1841,4.3886,4.6133,0.0,4.9792,5.1403,5.2886,5.3687,5.4325,0.0,0.0,0.0,0.0,0.0,0.0,0.0,0.0,0.0,0.0,6.0993,6.0141,5.8625,5.7467,5.5998,5.4114,5.298,5.2337,5.22,5.2079,5.1941,5.1834,5.2063,5.22,5.22,5.22,5.22,5.22,5.22,5.22,5.22,5.2563,5.2698,5.2698,5.2698,5.2698,5.2698,5.2698,5.2698,5.2698,5.2698,5.2698,5.276,5.3037,5.3129,5.3191,5.3468,5.4268,5.513,5.513,5.5899,5.681,5.681,5.681,5.681,5.681,5.681,5.681,5.6875,5.6662,5.6731,5.7734,5.8654,5.9435,6.0097,6.1417,6.2461,6.2622,6.362,6.441,6.441,6.5053,6.5662,6.6102,6.617,6.6339,6.6779,6.6812,6.6812,6.6812,6.6812,6.6812,6.6812,6.6812,6.6812,6.6812,6.6812,6.6812,6.6812,6.6812,6.6812,6.6812,6.6812,6.6812,6.6812,6.6812,6.6812,3.9284,3.932,0.0,0.0,3.9798,0.0,4.1025,4.2346,4.3914,0.0,4.718,4.8605,4.9912,5.0825,5.1683,0.0,0.0,0.0,0.0,0.0,0.0,0.0,0.0,0.0,6.1429,6.0936,6.0131,5.8812,5.7125,5.5165,5.3055,5.2337,5.2002,5.1956,5.1741,5.1572,5.1556,5.1834,5.2002,5.2002,5.2002,5.2002,5.2002,5.2002,5.2002,5.2048,5.2503,5.2698,5.2698,5.2698,5.2698,5.2729,5.279,5.2821,5.2821,5.2821,5.2883,5.3006,5.3529,5.3775,5.3883,5.4498,5.5161,5.5684,5.5684,5.6255,5.681,5.681,5.6748,5.6717,5.6779,5.681,5.6858,5.7115,5.7401,5.7871,5.8837,5.9848,6.0459,6.0324,6.2065,6.3531,6.3632,6.4783,6.5696,6.5696,6.6339,6.6812,6.6812,6.6812,6.6812,6.6812,6.6812,6.6812,6.6812,6.6812,6.6812,6.6812,6.6812,6.6812,6.6812,6.6812,6.6812,6.6812,6.6812,6.6812,6.6812,6.6812,6.6812,6.6812,6.6812,6.6812,3.8566,3.8601,3.8601,3.8601,0.0,0.0,3.9768,4.0853,4.2098,0.0,4.4268,4.5464,4.6498,4.7119,4.7898,0.0,0.0,0.0,0.0,0.0,0.0,0.0,0.0,0.0,6.1874,6.1475,6.0605,5.8983,5.6141,5.3885,5.2518,5.2155,5.188,5.1695,5.1618,5.1479,5.1276,5.1741,5.2002,5.2002,5.2002,5.2002,5.2002,5.2002,5.2002,5.2048,5.2503,5.2698,5.2698,5.2698,5.2698,5.276,5.3314,5.3529,5.3529,5.3529,5.3822,5.4222,5.3868,5.4037,5.4498,5.4652,5.5161,5.5684,5.5684,5.6255,5.681,5.681,5.6378,5.6023,5.6656,5.681,5.6906,5.7306,5.7746,5.8349,5.9266,6.0652,6.1857,6.2174,6.2932,6.37,6.4275,6.5121,6.5696,6.5696,6.6339,6.6812,6.6812,6.6812,6.6812,6.6812,6.6812,6.6812,6.6812,6.6812,6.6812,6.6812,6.6812,6.6812,6.6812,6.6812,6.6812,6.6812,6.6812,6.6812,6.6812,6.6812,6.6812,6.6812,6.6812,6.6812,3.7878,3.8153,3.8392,3.8392,0.0,0.0,0.0,0.0,4.0995,4.1324,4.2432,4.3528,4.4097,0.0,4.5367,0.0,0.0,0.0,0.0,0.0,0.0,0.0,0.0,0.0,6.1452,6.1109,5.9844,5.7361,5.4756,5.2917,5.2017,5.1741,5.1556,5.1386,5.1386,5.1369,5.1229,5.1741,5.2002,5.2002,5.2002,5.2002,5.2002,5.1834,5.1787,5.1834,5.2291,5.2518,5.2549,5.3022,5.3221,5.3252,5.3591,5.3883,5.4191,5.4191,5.4191,5.4268,5.4607,5.473,5.4806,5.553,5.5961,5.6238,5.6238,5.6238,5.6347,5.6717,5.6286,5.5869,5.6625,5.681,5.6954,5.7543,5.8119,5.8818,5.9783,6.099,6.214,6.287,6.36,6.4275,6.5019,6.5764,6.6237,6.6237,6.6576,6.6812,6.6812,6.6812,6.6812,6.6812,6.6812,6.6812,6.6812,6.6812,6.6812,6.6812,6.6812,6.6812,6.6812,6.6812,6.6812,6.6812,6.6812,6.6812,6.6812,6.6812,6.6812,6.6812,6.6812,6.6812,0.0,0.0,0.0,0.0,0.0,3.926,0.0,0.0,0.0,0.0,0.0,0.0,0.0,0.0,0.0,0.0,0.0,0.0,0.0,0.0,0.0,0.0,0.0,0.0,0.0,5.9975,5.845,5.5388,5.3574,5.2265,5.1586,5.1323,5.1229,5.1229,5.1229,5.1229,5.1229,5.1741,5.2002,5.2002,5.2002,5.2002,5.2002,5.1741,5.1572,5.1618,5.2124,5.2306,5.2337,5.33,5.3806,5.3929,5.4052,5.4422,5.4914,5.4914,5.4668,5.4422,5.5376,5.5438,5.5315,5.6392,5.681,5.681,5.681,5.6269,5.5838,5.6594,5.6378,5.6053,5.681,5.6994,5.7188,5.7966,5.8723,5.9484,6.0335,6.1318,6.224,6.2912,6.3782,6.4681,6.5527,6.6305,6.6812,6.6812,6.6812,6.6812,6.6812,6.6812,6.6812,6.6812,6.6812,6.6812,6.6812,6.6812,6.6812,6.6812,6.6812,6.6812,6.6812,6.6812,6.6812,6.6812,6.6812,6.6812,6.6812,6.6812,6.6812,6.6812,6.6812,6.6812,0.0,0.0,0.0,0.0,3.8452,0.0,0.0,0.0,0.0,0.0,0.0,0.0,0.0,0.0,0.0,0.0,0.0,0.0,0.0,0.0,0.0,0.0,0.0,0.0,0.0,5.774,5.6287,5.4082,5.3067,5.2201,5.1306,5.1229,5.1229,5.1229,5.1229,5.1229,5.1229,5.1741,5.2002,5.2002,5.2002,5.2002,5.2002,5.1741,5.1572,5.1618,5.2124,5.2306,5.2337,5.33,5.4037,5.4621,5.5253,5.553,5.5592,5.5592,5.593,5.6409,5.5869,5.6053,5.6594,5.6748,5.681,5.681,5.681,5.6269,5.5838,5.6594,5.6748,5.684,5.7518,5.7703,5.7948,5.8845,5.9759,6.0585,6.0868,6.2171,6.3147,6.2578,6.3085,6.4072,6.5459,6.6305,6.6812,6.6812,6.6812,6.6812,6.6812,6.6812,6.6812,6.6812,6.6812,6.6812,6.6812,6.6812,6.6812,6.6812,6.6812,6.6812,6.6812,6.6812,6.6812,6.6812,6.6812,6.6812,6.6812,6.6812,6.6812,6.6812,6.6812,6.6812,0.0,0.0,0.0,0.0,0.0,0.0,3.9439,0.0,3.9373,0.0,0.0,0.0,0.0,0.0,0.0,0.0,0.0,0.0,0.0,0.0,0.0,0.0,0.0,0.0,0.0,0.0,0.0,0.0,5.2346,5.1593,5.1229,5.1229,5.1229,5.1229,5.1229,5.1229,5.1229,5.1741,5.2002,5.2002,5.2002,5.2002,5.2002,5.1556,5.1369,5.1416,5.1926,5.2109,5.2216,5.3254,5.4068,5.4745,5.5438,5.593,5.6347,5.6347,5.6238,5.6146,5.6317,5.6238,5.6207,5.6686,5.681,5.681,5.681,5.6269,5.5838,5.6594,5.681,5.6964,5.7788,5.8448,5.9069,6.0044,6.1031,6.1873,6.2387,6.3373,6.3937,6.3193,6.3632,6.4343,6.4952,6.5662,6.6305,6.6745,6.6812,6.6812,6.6812,6.6812,6.6812,6.6812,6.6812,6.6812,6.6812,6.6812,6.6812,6.6812,6.6812,6.6812,6.6812,6.6812,6.6812,6.6812,6.6812,6.6812,6.6812,6.6812,6.6812,6.6812,6.6812,6.6812,3.8182,0.0,0.0,0.0,0.0,0.0,0.0,0.0,0.0,0.0,0.0,0.0,0.0,0.0,0.0,0.0,0.0,0.0,0.0,0.0,0.0,0.0,0.0,0.0,0.0,0.0,0.0,0.0,0.0,5.075,5.093,5.096,5.0973,5.1199,5.1229,5.1229,5.1229,5.1741,5.1956,5.188,5.1956,5.1956,5.188,5.1416,5.1229,5.1369,5.1787,5.2048,5.217,5.3254,5.3976,5.4468,5.5161,5.5745,5.6238,5.6686,5.6471,5.6053,5.6625,5.6471,5.6084,5.6656,5.681,5.681,5.681,5.6563,5.6361,5.6933,5.7364,5.7814,5.8652,5.9461,6.034,6.134,6.2321,6.31,6.3581,6.4337,6.4681,6.3937,6.4072,6.4377,6.458,6.5189,6.5933,6.6711,6.6812,6.6812,6.6812,6.6812,6.6812,6.6812,6.6812,6.6812,6.6812,6.6812,6.6812,6.6812,6.6812,6.6812,6.6812,6.6812,6.6812,6.6812,6.6812,6.6812,6.6812,6.6812,6.6812,6.6812,6.6812,6.6812,0.0,0.0,0.0,4.0187,0.0,0.0,0.0,0.0,3.9373,0.0,0.0,0.0,0.0,0.0,0.0,0.0,0.0,0.0,0.0,0.0,0.0,0.0,0.0,0.0,0.0,0.0,0.0,0.0,0.0,0.0,5.0196,5.0226,5.0524,5.1199,5.1229,5.1229,5.1229,5.1741,5.188,5.1618,5.188,5.1834,5.1572,5.1323,5.1339,5.1572,5.188,5.2109,5.2367,5.33,5.3745,5.3837,5.4437,5.4745,5.4898,5.6269,5.681,5.6779,5.681,5.6779,5.6779,5.681,5.681,5.681,5.681,5.7241,5.7765,5.7795,5.867,5.9838,6.0391,6.0886,6.1487,6.2514,6.3535,6.4175,6.3969,6.4832,6.5425,6.4715,6.4005,6.3768,6.4478,6.5189,6.5933,6.6711,6.6812,6.6812,6.6812,6.6812,6.6812,6.6812,6.6812,6.6812,6.6812,6.6812,6.6812,6.6812,6.6812,6.6812,6.6812,6.6812,6.6812,6.6812,6.6812,6.6812,6.6812,6.6812,6.6812,6.6812,6.6812,6.6812,0.0,0.0,4.1324,4.1115,0.0,0.0,0.0,0.0,0.0,0.0,0.0,0.0,0.0,0.0,0.0,0.0,0.0,0.0,0.0,0.0,0.0,0.0,0.0,0.0,0.0,0.0,0.0,0.0,4.8011,0.0,0.0,4.9344,4.9883,5.0495,5.099,5.1229,5.1229,5.1556,5.1695,5.1572,5.1695,5.1695,5.1572,5.1509,5.1479,5.1618,5.2033,5.2215,5.2306,5.2809,5.3314,5.3699,5.3914,5.4283,5.4745,5.5253,5.5684,5.6115,5.6656,5.681,5.681,5.681,5.681,5.681,5.681,5.7272,5.7826,5.7826,5.8762,5.993,6.0683,6.1656,6.2748,6.3817,6.4772,6.5497,6.563,6.6061,6.6068,6.485,6.441,6.4174,6.3937,6.4106,6.4512,6.5222,6.5358,6.5527,6.6,6.6068,6.6271,6.6779,6.6812,6.6812,6.6812,6.6812,6.6812,6.6812,6.6812,6.6812,6.6812,6.6812,6.6812,6.6812,6.6812,6.6812,6.6812,6.6812,6.6812,6.6812,6.6812,6.6812,4.0965,4.1752,0.0,4.1871,4.2081,0.0,4.1572,0.0,0.0,0.0,0.0,0.0,0.0,0.0,0.0,0.0,0.0,0.0,0.0,0.0,0.0,0.0,0.0,0.0,0.0,0.0,4.7309,4.6651,4.6591,0.0,0.0,0.0,4.9673,5.0524,5.1229,5.1558,5.1558,5.16,5.1526,5.1463,5.1526,5.1526,5.1433,5.1572,5.1649,5.1787,5.2124,5.2352,5.2442,5.2608,5.2975,5.3375,5.3375,5.3622,5.4037,5.4498,5.513,5.5807,5.6563,5.681,5.681,5.681,5.6964,5.7179,5.7179,5.7795,5.8485,5.8485,5.9285,6.0352,6.1226,6.2394,6.3626,6.4715,6.5658,6.643,6.6592,6.6483,6.6136,6.5189,6.458,6.4072,6.3599,6.3294,6.3463,6.4444,6.4613,6.4884,6.5595,6.5696,6.5967,6.6745,6.6812,6.6812,6.6812,6.6812,6.6812,6.6812,6.6812,6.6812,6.6812,6.6812,6.6812,6.6812,6.6812,6.6812,6.6812,6.6812,6.6812,6.6812,6.6812,6.6812]}]]